[[{"header":{"parameterUnit":"m.s-1","parameterCategory":1,"la1":30.6,"la2":29.2853,"lo1":-89.7004,"lo2":-87.6739,"dy":0.0162,"dx":0.0183,"nx":112,"ny":82,"refTime":"2026-04-03T12:00:00:Z","depth":0,"parameterNumber":2,"parameterNumberName":"U-component_of_WINDS"},"data":[0.0,0.0,0.0,0.0,0.0,0.0,0.0,0.0,0.0,0.0,0.0,0.0,0.0,0.0,0.0,0.0,0.0,0.0,0.0,0.0,0.0,0.0,0.0,0.0,0.0,0.0,0.0,0.0,0.0,0.0,0.0,0.0,0.0,0.0,0.0,0.0,0.0,0.0,0.0,0.0,0.0,0.0,0.0,0.0,0.0,0.0,0.0,0.0,0.0,0.0,0.0,0.0,0.0,0.0,0.0,0.0,0.0,0.0,0.0,0.0,0.0,0.0,0.0,0.0,0.0,0.0,0.0,0.0,0.0,0.0,0.0,0.0,0.0,0.0,0.0,0.0,0.0,0.0,0.0,0.0,0.0,0.0,0.0,0.0,0.0,0.0,0.0,0.0,0.0,0.0,0.0,4.1679,4.5733,4.7716,4.6637,4.5583,4.375,4.08,0.0,0.0,0.0,0.0,0.0,0.0,0.0,0.0,0.0,0.0,0.0,0.0,0.0,0.0,0.0,0.0,0.0,0.0,0.0,0.0,0.0,0.0,0.0,0.0,0.0,0.0,0.0,0.0,0.0,0.0,0.0,0.0,0.0,0.0,0.0,0.0,0.0,0.0,0.0,0.0,0.0,0.0,0.0,0.0,0.0,0.0,0.0,0.0,0.0,0.0,0.0,0.0,0.0,0.0,0.0,0.0,0.0,0.0,0.0,0.0,0.0,0.0,0.0,0.0,0.0,0.0,0.0,0.0,0.0,0.0,0.0,0.0,0.0,0.0,0.0,0.0,0.0,0.0,0.0,0.0,0.0,0.0,0.0,0.0,0.0,0.0,0.0,0.0,0.0,0.0,0.0,0.0,0.0,0.0,0.0,0.0,0.0,0.0,0.0,0.0,0.0,0.0,0.0,0.0,3.9772,4.498,4.7832,4.8887,4.7757,4.7074,4.5141,4.1414,0.0,0.0,0.0,0.0,0.0,0.0,0.0,0.0,0.0,0.0,0.0,0.0,0.0,0.0,0.0,0.0,0.0,0.0,0.0,0.0,0.0,0.0,0.0,0.0,0.0,0.0,0.0,0.0,0.0,0.0,0.0,0.0,0.0,0.0,0.0,0.0,0.0,0.0,0.0,0.0,0.0,0.0,0.0,0.0,0.0,0.0,0.0,0.0,0.0,0.0,0.0,0.0,0.0,0.0,0.0,0.0,0.0,0.0,0.0,0.0,0.0,0.0,0.0,0.0,0.0,0.0,0.0,0.0,0.0,0.0,0.0,0.0,0.0,0.0,0.0,0.0,0.0,0.0,0.0,0.0,0.0,0.0,0.0,0.0,0.0,0.0,0.0,0.0,0.0,0.0,0.0,0.0,0.0,0.0,0.0,0.0,0.0,0.0,0.0,0.0,0.0,0.0,0.0,4.0249,4.3575,4.6421,4.8444,4.9012,4.7591,4.6396,4.4227,4.0663,3.7062,0.0,0.0,0.0,0.0,0.0,0.0,0.0,0.0,0.0,0.0,0.0,0.0,0.0,0.0,0.0,0.0,0.0,0.0,0.0,0.0,0.0,0.0,0.0,0.0,0.0,0.0,0.0,0.0,0.0,0.0,0.0,0.0,0.0,0.0,0.0,0.0,0.0,0.0,0.0,0.0,0.0,0.0,0.0,0.0,0.0,0.0,0.0,0.0,0.0,0.0,0.0,0.0,0.0,0.0,0.0,0.0,0.0,0.0,0.0,0.0,0.0,0.0,0.0,0.0,0.0,0.0,0.0,0.0,0.0,0.0,0.0,0.0,0.0,0.0,0.0,0.0,0.0,0.0,0.0,0.0,0.0,0.0,0.0,0.0,0.0,0.0,0.0,0.0,0.0,0.0,0.0,0.0,0.0,0.0,0.0,0.0,0.0,0.0,0.0,0.0,0.0,0.0,4.4041,4.6838,4.7249,4.8686,4.8862,4.7048,4.5367,4.2947,3.9521,3.6307,0.0,0.0,0.0,0.0,0.0,0.0,0.0,0.0,0.0,0.0,0.0,0.0,0.0,0.0,0.0,0.0,0.0,0.0,0.0,0.0,0.0,0.0,0.0,0.0,0.0,0.0,0.0,0.0,0.0,0.0,0.0,0.0,0.0,0.0,0.0,0.0,0.0,0.0,0.0,0.0,0.0,0.0,0.0,0.0,0.0,0.0,0.0,0.0,0.0,0.0,0.0,0.0,0.0,0.0,0.0,0.0,0.0,0.0,0.0,0.0,0.0,0.0,0.0,0.0,0.0,0.0,0.0,0.0,0.0,0.0,0.0,0.0,0.0,0.0,0.0,0.0,0.0,0.0,0.0,0.0,0.0,0.0,0.0,0.0,0.0,0.0,0.0,0.0,0.0,0.0,0.0,0.0,0.0,0.0,0.0,0.0,0.0,0.0,0.0,0.0,0.0,0.0,4.5412,4.7807,4.7842,4.8887,4.8711,4.6537,4.4805,4.2194,3.8354,3.5504,0.0,0.0,0.0,0.0,0.0,0.0,0.0,0.0,0.0,0.0,0.0,0.0,0.0,0.0,0.0,0.0,0.0,0.0,0.0,0.0,0.0,0.0,0.0,0.0,0.0,0.0,0.0,0.0,0.0,0.0,0.0,0.0,0.0,0.0,0.0,0.0,0.0,0.0,0.0,0.0,0.0,0.0,0.0,0.0,0.0,0.0,0.0,0.0,0.0,0.0,0.0,0.0,0.0,0.0,0.0,0.0,0.0,0.0,0.0,0.0,0.0,0.0,0.0,0.0,0.0,0.0,0.0,0.0,0.0,0.0,0.0,0.0,0.0,0.0,0.0,0.0,0.0,0.0,0.0,0.0,0.0,0.0,0.0,0.0,0.0,0.0,0.0,0.0,0.0,0.0,0.0,0.0,0.0,0.0,0.0,0.0,0.0,0.0,0.0,0.0,0.0,0.0,4.5723,4.8033,0.0,4.9138,4.8711,4.6486,4.4754,4.2133,3.8241,0.0,0.0,0.0,0.0,0.0,0.0,0.0,0.0,0.0,0.0,0.0,0.0,0.0,0.0,0.0,0.0,0.0,0.0,0.0,0.0,0.0,0.0,0.0,0.0,0.0,0.0,0.0,0.0,0.0,0.0,0.0,0.0,0.0,0.0,0.0,0.0,0.0,0.0,0.0,0.0,0.0,0.0,0.0,0.0,0.0,0.0,0.0,0.0,0.0,0.0,0.0,0.0,0.0,0.0,0.0,0.0,0.0,0.0,0.0,0.0,0.0,0.0,0.0,0.0,0.0,0.0,0.0,0.0,0.0,0.0,0.0,0.0,0.0,0.0,0.0,0.0,0.0,0.0,0.0,0.0,0.0,0.0,0.0,0.0,0.0,0.0,0.0,0.0,0.0,0.0,0.0,0.0,0.0,0.0,0.0,0.0,0.0,0.0,0.0,0.0,0.0,0.0,4.2824,4.614,4.835,0.0,4.928,4.8786,4.6737,4.4855,4.2233,3.8517,0.0,0.0,0.0,0.0,0.0,0.0,0.0,0.0,0.0,0.0,0.0,0.0,0.0,0.0,0.0,0.0,0.0,0.0,0.0,0.0,0.0,0.0,0.0,0.0,0.0,0.0,0.0,0.0,0.0,0.0,0.0,0.0,0.0,0.0,0.0,0.0,0.0,0.0,0.0,0.0,0.0,0.0,0.0,0.0,0.0,0.0,0.0,0.0,0.0,0.0,0.0,0.0,0.0,0.0,0.0,0.0,0.0,0.0,0.0,0.0,0.0,0.0,0.0,0.0,0.0,0.0,0.0,0.0,0.0,0.0,0.0,0.0,0.0,0.0,0.0,0.0,0.0,0.0,0.0,0.0,0.0,0.0,0.0,0.0,0.0,0.0,0.0,0.0,0.0,0.0,0.0,0.0,0.0,0.0,0.0,0.0,0.0,0.0,0.0,0.0,0.0,0.0,4.3388,4.6743,4.8818,4.8818,4.9305,4.8921,4.7274,4.5106,4.2448,0.0,0.0,0.0,0.0,0.0,0.0,0.0,0.0,0.0,0.0,0.0,0.0,0.0,0.0,0.0,0.0,0.0,0.0,0.0,0.0,0.0,0.0,0.0,0.0,0.0,0.0,0.0,0.0,0.0,0.0,0.0,0.0,0.0,0.0,0.0,0.0,0.0,0.0,0.0,0.0,0.0,0.0,0.0,0.0,0.0,0.0,0.0,0.0,0.0,0.0,0.0,0.0,0.0,0.0,0.0,0.0,0.0,0.0,0.0,0.0,0.0,0.0,0.0,0.0,0.0,0.0,0.0,0.0,0.0,0.0,0.0,0.0,0.0,0.0,0.0,0.0,0.0,0.0,0.0,0.0,0.0,0.0,0.0,0.0,0.0,0.0,0.0,0.0,0.0,0.0,0.0,0.0,0.0,0.0,0.0,0.0,0.0,0.0,0.0,0.0,0.0,0.0,0.0,4.3901,4.728,4.9515,4.9891,5.0051,4.9665,4.8426,4.6627,4.4127,4.08,0.0,0.0,0.0,0.0,0.0,0.0,0.0,0.0,0.0,0.0,0.0,0.0,0.0,0.0,0.0,0.0,0.0,0.0,0.0,0.0,0.0,0.0,0.0,0.0,0.0,0.0,0.0,0.0,0.0,0.0,0.0,0.0,0.0,0.0,0.0,0.0,0.0,0.0,0.0,0.0,0.0,0.0,0.0,0.0,0.0,0.0,0.0,0.0,0.0,0.0,0.0,0.0,0.0,0.0,0.0,0.0,0.0,0.0,0.0,0.0,0.0,0.0,0.0,0.0,0.0,0.0,0.0,0.0,0.0,0.0,0.0,0.0,0.0,0.0,0.0,0.0,0.0,0.0,0.0,0.0,0.0,0.0,0.0,0.0,0.0,0.0,0.0,0.0,0.0,0.0,0.0,0.0,0.0,0.0,0.0,0.0,0.0,0.0,0.0,0.0,0.0,0.0,4.4468,4.7857,5.0126,5.0695,5.0528,5.0142,4.949,4.8109,4.5874,4.2507,0.0,0.0,0.0,0.0,0.0,0.0,0.0,0.0,0.0,0.0,0.0,0.0,0.0,0.0,0.0,0.0,0.0,0.0,0.0,0.0,0.0,0.0,0.0,0.0,0.0,0.0,0.0,0.0,0.0,0.0,0.0,0.0,0.0,0.0,0.0,0.0,0.0,0.0,0.0,0.0,0.0,0.0,0.0,0.0,0.0,0.0,0.0,0.0,0.0,0.0,0.0,0.0,0.0,0.0,0.0,0.0,0.0,0.0,0.0,0.0,0.0,0.0,0.0,0.0,0.0,0.0,0.0,0.0,0.0,0.0,0.0,0.0,0.0,0.0,0.0,0.0,0.0,0.0,0.0,0.0,0.0,0.0,0.0,0.0,0.0,0.0,0.0,0.0,0.0,0.0,0.0,0.0,0.0,0.0,0.0,0.0,0.0,0.0,0.0,0.0,0.0,0.0,4.501,4.846,5.077,5.1314,5.0896,5.0528,5.0477,4.9506,4.7471,4.4166,0.0,0.0,0.0,0.0,0.0,0.0,0.0,0.0,0.0,0.0,0.0,0.0,0.0,0.0,0.0,0.0,0.0,0.0,0.0,0.0,0.0,0.0,0.0,0.0,0.0,0.0,0.0,0.0,0.0,0.0,0.0,0.0,0.0,0.0,0.0,0.0,0.0,0.0,0.0,0.0,0.0,0.0,0.0,0.0,0.0,0.0,0.0,0.0,0.0,0.0,0.0,0.0,0.0,0.0,0.0,0.0,0.0,0.0,0.0,0.0,3.9308,3.8052,0.0,0.0,0.0,0.0,0.0,0.0,0.0,0.0,0.0,0.0,0.0,0.0,0.0,0.0,0.0,0.0,0.0,0.0,0.0,0.0,0.0,0.0,0.0,0.0,0.0,0.0,0.0,0.0,0.0,0.0,0.0,0.0,0.0,0.0,0.0,0.0,0.0,0.0,0.0,0.0,4.506,4.9138,5.18,5.1925,5.1825,5.1574,5.1122,5.0083,4.82,4.5336,4.2007,0.0,0.0,0.0,0.0,0.0,0.0,0.0,0.0,0.0,0.0,0.0,0.0,0.0,0.0,0.0,0.0,0.0,0.0,0.0,0.0,0.0,0.0,0.0,0.0,0.0,0.0,0.0,0.0,0.0,0.0,0.0,0.0,0.0,0.0,0.0,0.0,0.0,0.0,0.0,0.0,0.0,0.0,0.0,0.0,0.0,0.0,0.0,0.0,0.0,0.0,0.0,0.0,0.0,0.0,0.0,0.0,0.0,0.0,0.0,4.3087,4.1455,0.0,0.0,0.0,0.0,0.0,0.0,0.0,0.0,0.0,0.0,0.0,0.0,0.0,0.0,0.0,0.0,0.0,0.0,0.0,0.0,0.0,0.0,0.0,0.0,0.0,0.0,0.0,0.0,0.0,0.0,0.0,0.0,0.0,0.0,0.0,0.0,0.0,0.0,0.0,0.0,4.5809,4.969,5.2201,5.246,5.2234,5.2,5.1699,5.0645,4.8921,4.6411,4.3388,0.0,0.0,0.0,0.0,0.0,0.0,0.0,0.0,0.0,0.0,0.0,0.0,0.0,0.0,0.0,0.0,0.0,0.0,0.0,0.0,0.0,0.0,0.0,0.0,0.0,0.0,0.0,0.0,0.0,0.0,0.0,0.0,0.0,0.0,0.0,0.0,0.0,0.0,0.0,0.0,0.0,0.0,0.0,0.0,0.0,0.0,0.0,0.0,0.0,0.0,0.0,0.0,0.0,4.9823,5.0134,5.0745,5.0745,5.0745,5.0594,4.7917,4.6235,4.5307,4.497,0.0,0.0,0.0,0.0,0.0,0.0,0.0,0.0,0.0,0.0,0.0,0.0,0.0,0.0,0.0,0.0,0.0,0.0,0.0,0.0,0.0,0.0,4.6728,4.7079,4.7315,4.6411,4.266,0.0,0.0,0.0,0.0,0.0,0.0,0.0,0.0,0.0,0.0,0.0,4.6913,5.0402,5.2703,5.3138,5.2804,5.2452,5.2277,5.1381,4.985,4.7541,4.507,4.2473,0.0,0.0,0.0,0.0,0.0,0.0,0.0,0.0,0.0,0.0,0.0,0.0,0.0,0.0,0.0,0.0,0.0,0.0,0.0,0.0,0.0,0.0,0.0,0.0,0.0,0.0,0.0,0.0,0.0,0.0,0.0,0.0,4.1177,4.2322,0.0,0.0,0.0,0.0,0.0,0.0,0.0,0.0,0.0,0.0,0.0,0.0,0.0,4.8118,4.9724,5.0896,5.2268,5.3843,5.3843,5.4353,5.5322,5.5322,5.5322,5.5322,5.5372,0.0,4.8291,4.8661,0.0,0.0,0.0,0.0,0.0,0.0,0.0,0.0,0.0,0.0,0.0,0.0,0.0,0.0,0.0,0.0,0.0,0.0,0.0,0.0,0.0,0.0,5.1122,5.0736,5.1348,5.1758,5.0678,4.7757,4.4869,4.3338,4.1679,3.9897,0.0,0.0,0.0,0.0,0.0,0.0,4.8124,5.1909,5.4295,5.4371,5.4321,5.3876,5.2887,5.2644,5.1431,4.8752,4.7315,4.5332,4.2587,4.0626,0.0,0.0,0.0,0.0,0.0,0.0,0.0,0.0,0.0,0.0,0.0,0.0,0.0,0.0,0.0,0.0,0.0,0.0,0.0,0.0,0.0,0.0,0.0,0.0,0.0,0.0,0.0,0.0,0.0,4.1893,4.3725,4.389,4.398,4.3793,0.0,0.0,0.0,0.0,0.0,0.0,0.0,0.0,0.0,4.857,5.0594,5.2319,5.364,5.539,5.6965,5.8297,5.8623,5.9156,5.9915,5.9915,5.9915,5.994,6.0518,5.8855,5.5584,5.3323,5.1272,4.9364,0.0,0.0,0.0,0.0,4.7782,4.8878,4.9724,4.9649,4.9113,4.856,0.0,0.0,0.0,0.0,0.0,0.0,0.0,4.7355,4.9038,5.1473,5.3524,5.36,5.3959,5.4235,5.4009,5.2394,5.0284,4.7958,4.5683,4.3499,4.1592,3.9157,0.0,0.0,0.0,4.6301,4.9314,5.257,5.4597,5.4597,5.4597,5.4396,5.3884,5.3264,5.226,5.0761,4.9314,4.7682,4.5824,4.3851,4.1932,0.0,0.0,0.0,0.0,0.0,0.0,0.0,0.0,0.0,0.0,0.0,0.0,0.0,0.0,0.0,0.0,0.0,0.0,0.0,0.0,0.0,0.0,0.0,0.0,0.0,0.0,0.0,0.0,4.4794,4.6426,4.6135,4.6627,4.6542,0.0,0.0,0.0,0.0,0.0,0.0,4.8971,5.0193,5.1247,5.2059,5.426,5.5961,5.7047,5.8956,6.0507,6.1617,6.2169,6.2722,6.3229,6.3229,6.3229,6.3274,6.3701,6.3023,6.1316,5.7744,5.5207,5.3381,5.1289,5.0812,5.1272,5.1122,5.1892,5.3148,5.4217,5.4243,5.3758,5.3482,5.1867,4.9732,4.8083,0.0,0.0,0.0,0.0,5.041,5.1942,5.3876,5.5534,5.5942,5.6143,5.6194,5.6086,5.5609,5.4403,5.1582,4.9172,4.7004,4.5171,4.2811,0.0,0.0,0.0,4.8093,5.0703,5.3356,5.5006,5.5006,5.5006,5.4956,5.4823,5.4034,5.3188,5.236,5.1147,4.985,4.8595,4.6813,4.5045,4.3291,0.0,0.0,0.0,0.0,0.0,0.0,0.0,0.0,0.0,0.0,0.0,0.0,0.0,0.0,0.0,0.0,0.0,0.0,0.0,0.0,0.0,0.0,0.0,0.0,0.0,0.0,0.0,0.0,0.0,5.0051,5.0645,0.0,0.0,0.0,0.0,4.9975,5.0695,5.1967,5.412,5.4295,5.5056,5.6609,5.7355,5.8252,5.9307,6.0532,6.1642,6.2727,6.3324,6.3898,6.44,6.44,6.44,6.44,6.4446,6.3797,6.2626,6.1366,5.9578,5.7449,5.5717,5.539,5.5817,5.529,5.6143,5.7725,5.8805,5.883,5.8434,5.893,5.652,5.3155,5.154,5.0594,0.0,0.0,5.2193,5.3708,5.4888,5.6445,5.775,5.7775,5.8158,5.8384,5.7876,5.7305,5.6057,5.3296,5.185,5.0334,4.8083,0.0,4.5598,4.6722,4.8344,5.0243,5.2485,5.4719,5.61,5.61,5.61,5.5917,5.5408,5.5308,5.4587,5.2945,5.2787,5.2009,5.0352,4.969,4.8335,4.615,4.3905,0.0,0.0,0.0,0.0,0.0,0.0,0.0,0.0,0.0,0.0,0.0,0.0,0.0,0.0,0.0,0.0,0.0,0.0,0.0,0.0,0.0,0.0,0.0,0.0,0.0,0.0,0.0,0.0,5.3022,5.421,0.0,5.3432,5.267,5.2771,5.4059,5.5322,5.6545,5.7694,5.8774,5.9633,6.0191,6.114,6.1818,6.2195,6.3295,6.4028,6.4429,6.4982,6.5333,6.5534,6.5534,6.5534,6.5534,6.5534,6.5107,6.4379,6.3998,6.2094,5.9332,5.8027,5.7851,5.8303,5.8102,5.8629,5.9589,6.0713,6.0763,6.0211,5.9684,5.7832,5.5648,5.4737,5.3808,5.3223,5.3775,5.4587,5.5472,5.6226,5.7405,5.8409,5.8409,5.856,5.8635,5.8459,5.7681,5.6709,5.573,5.4386,5.2922,5.1381,5.0067,4.948,5.0201,5.1105,5.226,5.3801,5.529,5.62,5.62,5.62,5.61,5.5942,5.5591,5.5157,5.4561,5.3816,5.3138,5.2553,5.1674,5.0318,4.846,4.625,4.3589,0.0,0.0,0.0,0.0,0.0,0.0,0.0,0.0,0.0,0.0,0.0,0.0,0.0,0.0,0.0,0.0,0.0,0.0,0.0,0.0,0.0,0.0,0.0,0.0,0.0,5.1891,5.4748,5.5667,5.7331,5.7983,5.689,5.6463,5.6614,5.7506,5.8786,5.9859,6.0588,6.1667,6.2275,6.2275,6.3199,6.3701,6.3701,6.4756,6.5283,6.5329,6.5835,6.609,6.609,6.609,6.609,6.609,6.609,6.581,6.5283,6.5283,6.3877,6.1642,6.0738,6.0468,6.0638,6.0839,6.114,6.1567,6.232,6.2446,6.2089,6.0763,5.9589,5.8585,5.8052,5.7392,5.689,5.7267,5.76,5.7976,5.8309,5.8961,5.9539,5.9539,5.9539,5.9489,5.9288,5.834,5.7512,5.7355,5.5993,5.4579,5.3632,5.2703,5.2226,5.2578,5.313,5.3808,5.4755,5.5641,5.62,5.62,5.62,5.62,5.62,5.5717,5.5333,5.5132,5.4235,5.3632,5.3457,5.2737,5.1582,4.9916,4.6979,4.3901,4.075,0.0,0.0,0.0,0.0,0.0,0.0,0.0,0.0,0.0,0.0,0.0,0.0,0.0,0.0,0.0,0.0,0.0,0.0,0.0,0.0,0.0,0.0,0.0,4.8967,5.321,5.6414,5.7971,6.0031,6.0884,5.9759,5.9659,5.9885,6.0392,6.0989,6.1768,6.2802,6.2852,6.2852,6.2852,6.3425,6.3726,6.3751,6.4802,6.5308,6.5333,6.586,6.609,6.609,6.609,6.609,6.609,6.609,6.581,6.5308,6.5308,6.5003,6.445,6.3948,6.3375,6.2927,6.35,6.3747,6.3751,6.3726,6.4073,6.4224,6.2596,6.2044,6.1893,6.1361,6.1185,6.116,6.116,6.116,6.116,6.116,6.116,6.1185,6.1185,6.1185,6.1014,6.0417,5.9463,5.8535,5.8027,5.6589,5.5282,5.4755,5.4202,5.3833,5.3833,5.4328,0.0,5.5408,5.5942,5.6251,5.6251,5.6251,5.6269,5.6244,5.5742,5.5207,5.4672,5.4027,5.3439,5.2937,5.287,5.2084,5.0402,4.61,4.2534,3.9798,0.0,0.0,0.0,0.0,0.0,0.0,0.0,0.0,0.0,0.0,0.0,0.0,0.0,0.0,0.0,0.0,0.0,0.0,0.0,0.0,0.0,4.2057,4.5285,4.9083,5.365,5.7317,5.9255,6.2262,6.3898,6.3194,6.3496,6.3621,6.337,6.3873,6.4149,6.4048,6.4048,6.4048,6.4048,6.4199,6.4475,6.4877,6.5534,6.5886,6.5886,6.6036,6.609,6.609,6.609,6.609,6.609,6.609,6.6036,6.5886,6.5886,6.5559,6.5028,6.45,6.4174,6.4048,6.4224,6.4526,6.4781,6.44,6.4396,6.435,6.35,6.2672,6.1893,6.1361,6.0889,6.0462,6.0085,5.996,5.996,5.996,6.0261,6.0563,6.0563,6.0889,6.1014,6.0417,5.9458,5.8654,5.851,5.743,5.6502,5.6376,5.657,5.6746,5.6746,5.689,5.7066,5.7198,5.7349,5.7424,5.7424,5.7424,5.7273,5.6828,5.6276,5.5742,5.5207,5.3866,5.3063,5.2895,5.2536,5.1532,4.9841,4.7054,4.4443,0.0,0.0,0.0,0.0,0.0,0.0,0.0,0.0,0.0,0.0,0.0,0.0,0.0,0.0,0.0,0.0,0.0,0.0,0.0,0.0,0.0,0.0,4.2854,4.5746,4.892,5.3476,5.7397,5.9832,6.305,6.4918,6.4561,6.5202,6.5409,6.4877,6.5128,6.5179,6.4852,6.4601,6.4496,6.4496,6.4496,6.4752,6.5283,6.5835,6.609,6.609,6.609,6.609,6.609,6.609,6.609,6.609,6.609,6.609,6.609,6.609,6.5936,6.5584,0.0,0.0,0.0,0.0,6.5179,6.5559,6.5028,6.4676,6.44,6.3852,6.3073,6.2245,6.1692,6.114,6.0563,6.001,5.9684,5.9533,5.9784,6.0261,6.0738,6.0944,6.1466,6.1718,6.114,5.996,5.905,5.9056,5.8133,0.0,5.7663,5.7807,5.7844,5.7631,5.7461,5.7291,5.712,5.693,5.6816,5.6816,5.6816,5.6594,5.6046,5.5479,0.0,0.0,0.0,5.2774,5.2895,5.2385,0.0,0.0,0.0,0.0,0.0,0.0,0.0,0.0,4.2797,4.4066,0.0,0.0,0.0,0.0,0.0,0.0,0.0,0.0,0.0,0.0,0.0,0.0,0.0,0.0,0.0,0.0,4.3594,4.6123,4.8688,5.2861,5.6757,5.9707,6.2749,6.4612,6.4614,6.5567,6.5986,6.5434,6.5383,6.5358,6.5283,6.4777,0.0,0.0,0.0,6.4752,6.5283,6.5835,6.609,6.609,6.609,6.609,6.609,6.609,6.609,6.609,6.609,6.609,6.609,6.609,6.609,6.604,6.5584,6.5103,6.4726,6.5229,6.5685,6.6036,6.5559,0.0,0.0,6.4048,6.3475,6.2877,6.2275,6.1768,6.124,6.0509,5.9943,5.9609,6.0071,6.0581,6.1111,6.1591,6.2116,6.2345,6.1816,6.0492,5.9392,5.9392,5.8518,5.7968,5.8499,5.832,5.7926,5.7408,5.6868,5.6389,5.5926,5.5384,5.5029,5.5029,5.5076,0.0,5.4367,5.3809,5.3454,5.3406,5.2846,5.2689,5.3078,5.2511,5.2026,5.1666,5.0594,4.959,4.8661,4.9254,4.9572,4.9581,4.7782,4.8319,0.0,0.0,0.0,0.0,0.0,0.0,0.0,0.0,0.0,0.0,0.0,0.0,0.0,0.0,0.0,4.291,4.5076,4.7209,4.9216,5.2159,5.5241,5.8248,6.1825,6.4215,6.4623,6.5974,6.6564,6.5986,6.5961,6.576,6.5308,6.4777,6.4496,6.4496,6.4496,6.4752,6.5283,6.5835,6.609,6.609,6.609,0.0,6.609,6.609,6.609,6.609,6.609,6.609,6.609,6.609,6.609,6.609,6.5986,6.5886,6.581,6.5911,6.599,6.6086,6.5986,6.5584,6.5128,6.5007,6.4626,6.3998,6.2952,6.2576,0.0,6.0846,6.0119,5.9689,5.9466,5.9536,5.9683,5.9805,6.0241,6.0483,5.995,5.9227,5.8693,5.8693,5.7845,5.7268,5.7801,5.8599,5.8931,5.8131,5.7026,5.5989,5.5208,5.4101,5.3347,5.3347,5.369,5.3556,5.2669,5.2387,5.2215,5.2148,5.2411,5.3083,5.4225,5.3306,5.313,5.3944,5.3273,5.3047,5.3316,5.3851,5.4353,5.4712,5.2159,5.1724,0.0,0.0,0.0,0.0,0.0,0.0,0.0,0.0,0.0,0.0,0.0,3.8458,4.0195,0.0,4.334,4.5018,4.6755,4.8428,4.9976,5.1932,5.4165,5.6793,6.029,6.2591,6.2882,6.4524,6.5415,6.5122,6.5098,6.5076,6.5054,6.4538,6.4497,6.5028,6.5019,6.5384,6.6192,6.6706,6.6965,6.6965,6.6965,6.6965,6.6965,6.6965,6.6965,6.6965,6.6965,6.6965,6.6965,6.6965,6.6965,6.6965,6.6965,6.6614,6.609,6.609,6.609,6.609,6.609,6.576,6.5283,6.5283,6.4953,6.4325,6.35,6.3028,6.2484,6.0966,5.9626,5.856,5.8144,5.7548,5.7106,5.7426,5.7745,5.7904,5.7672,5.7142,5.6752,5.6752,5.5937,5.5334,5.5589,5.5967,5.6275,5.6566,5.5661,5.4566,5.3442,5.2326,5.1639,5.1639,5.1857,5.1683,5.09,5.0965,5.1193,5.1528,5.2207,5.307,5.412,5.3598,5.3574,5.4132,5.3844,5.3844,5.415,5.4875,5.5516,5.5986,5.5374,5.5492,0.0,0.0,0.0,0.0,0.0,0.0,0.0,0.0,3.6638,3.791,3.9746,4.1484,4.2695,4.3983,4.5369,4.6911,4.8281,4.9531,5.0644,5.1894,5.3345,5.5061,5.812,6.0146,6.0365,6.2025,6.3094,6.3191,6.3191,6.3382,6.3881,6.3479,6.3727,6.4814,6.5058,6.5706,6.6797,6.7463,6.7794,6.7794,6.7794,6.7794,6.7794,6.7794,6.7794,6.7794,6.7794,6.7794,6.7794,6.7794,6.7794,6.7794,6.7794,6.7241,6.6438,6.6438,6.6438,6.6391,6.6205,6.5793,6.5307,6.5121,6.4687,6.4174,6.363,6.3136,6.2411,6.083,5.9055,5.7495,5.6874,5.5717,5.4828,5.5335,5.5534,5.5622,5.5622,5.5224,5.487,5.4782,5.4073,5.3474,5.3363,5.2985,5.3066,5.4184,5.3524,5.2451,5.1201,5.0188,4.9615,4.9615,4.9656,4.9572,4.9237,4.9678,5.0283,5.1035,5.1826,5.2578,5.3365,5.328,5.328,5.3399,5.3399,5.3446,5.356,5.4487,5.5279,5.592,5.7462,5.8398,3.1211,3.2773,3.5215,3.6543,3.7754,3.8633,0.0,0.0,3.9766,4.1035,4.2383,4.3612,4.4549,4.576,4.6931,4.791,4.918,5.0238,5.0723,5.1894,5.2679,5.2619,5.4855,5.6779,5.7711,5.8759,5.9542,5.9902,5.9924,6.0127,6.0599,6.0553,6.1043,6.2087,6.3398,6.4581,6.5673,6.7084,6.7794,6.7794,6.7794,6.7794,6.7794,6.7794,6.7794,6.7794,6.7794,6.7794,6.7794,6.7794,6.7794,6.7794,6.7794,6.7719,6.7618,6.7618,6.7618,6.7477,6.6607,6.592,6.5331,6.4426,6.3815,6.3316,6.2785,6.2591,6.2119,6.0181,5.8857,5.7733,5.6374,5.5225,5.4452,5.4517,5.4561,5.4561,5.4561,5.4519,5.4369,5.4009,5.3452,5.2961,5.2599,5.215,5.1874,5.1979,5.0884,4.9722,4.8803,4.7553,4.6747,4.6747,4.7083,4.7435,4.7793,4.8617,4.9472,5.0272,5.0758,5.1387,5.2243,5.1813,5.179,5.2259,5.2281,5.2527,5.2996,5.3942,5.5018,5.62,5.7684,5.8743,3.3379,3.4766,3.6875,3.8418,3.9961,4.1133,4.1426,4.2012,4.2812,4.3868,4.5273,4.6445,4.6816,4.7519,4.8262,4.8844,4.9648,5.041,5.105,5.1855,5.2183,5.1795,5.222,5.3393,5.5501,5.6602,5.7475,5.8191,5.8448,5.8817,5.9316,5.9338,5.9821,6.0853,6.2351,6.3666,6.4736,6.628,6.7033,6.7033,6.7033,6.7033,6.7033,6.7033,6.7033,6.7033,6.7033,6.7033,6.7033,6.7033,6.7033,6.7033,6.7033,6.7033,6.7096,6.7599,6.7794,6.7608,6.6286,6.5135,6.399,6.2683,6.1556,6.0632,6.0424,6.0355,6.0062,5.8661,5.7366,5.6102,5.4917,5.3464,5.2313,5.2313,5.2111,5.1952,5.1952,5.1952,5.1912,5.1753,5.1125,5.0558,5.0398,4.9768,4.9313,4.9279,4.9479,4.9283,4.8404,4.7563,4.7073,4.7073,4.7207,4.7383,4.7581,4.8206,4.8953,4.9811,5.0256,5.0931,5.1825,5.1651,5.1651,5.1868,5.1868,5.1976,5.2214,5.3379,5.4779,5.6344,5.7795,5.9535,3.5351,3.668,3.8437,4.0156,4.1855,4.3241,4.3712,4.4396,4.5137,4.5881,4.709,4.8066,4.8183,4.8578,4.9066,4.9609,5.0273,5.0942,5.1499,5.209,5.2226,5.1655,5.0859,5.1182,5.328,5.4154,5.4996,5.6016,5.6491,5.6969,5.7447,5.7468,5.7966,5.8962,6.0507,6.1839,6.287,6.4412,6.5188,6.5188,6.5188,6.5188,6.5188,6.5188,6.5188,6.5188,6.5188,6.5188,6.5188,6.5188,6.5188,6.5188,6.5188,6.5188,6.5234,6.5877,6.6675,6.7188,6.5502,6.3951,6.2423,6.0752,5.9223,5.8031,5.814,5.8184,5.802,5.7191,5.6057,5.4844,5.3898,5.2489,5.1308,5.1191,5.0942,5.0688,5.0547,5.0527,5.0488,5.0395,4.9867,4.9379,4.9285,4.8734,4.8323,4.8323,4.9125,4.9352,4.8243,4.7803,4.76,4.76,4.7698,4.7776,4.7776,4.821,4.8683,4.9172,4.9529,4.9976,5.0537,5.0559,5.0559,5.0559,5.0559,5.0559,5.0581,5.2066,5.3829,5.5896,5.7748,6.0104,3.666,3.8496,4.0215,4.1914,4.3632,4.5037,4.5529,4.5937,4.6367,4.6775,4.7266,4.7737,4.8125,4.8578,4.9187,5.0043,5.1235,5.2056,5.2075,5.2818,5.3033,5.2192,5.1308,5.0825,5.0892,5.094,5.1493,5.2766,5.3281,5.3732,5.4131,5.4151,5.4635,5.5704,5.7252,5.855,5.9628,6.112,6.1845,6.1845,6.1845,6.1845,6.1845,6.1845,6.1845,6.1845,6.1845,6.1845,6.1845,6.1845,6.1845,6.1845,6.1845,6.1845,6.1869,6.1872,6.387,6.6236,6.4179,6.2502,6.0903,5.8865,5.7232,5.6154,5.6554,5.6658,5.6549,5.6002,5.5441,5.478,5.3787,5.3073,5.2539,5.2129,5.2056,5.1914,5.146,5.1362,5.1245,5.0859,5.0762,5.0625,5.0238,5.0141,5.0121,5.0121,5.0169,4.9562,4.7838,4.76,4.76,4.76,4.7949,4.8183,4.8183,4.862,4.8702,4.8271,4.8252,4.8098,4.7755,4.7713,4.7713,4.7713,4.7713,4.7713,4.7735,4.9588,5.1849,5.4528,5.7509,6.0288,3.7654,3.9824,4.1894,4.3358,4.4998,4.6306,4.6443,4.7285,4.7894,4.7441,4.7695,4.8047,4.8183,4.8578,4.9187,5.0063,5.1274,5.2114,5.2114,5.2578,5.2617,5.1733,5.0898,5.0391,5.0391,5.0644,5.1094,5.1792,5.2818,5.3443,5.3599,5.3842,5.4329,5.5066,5.6267,5.7252,5.7948,5.9162,5.9775,5.9775,5.9775,5.9775,5.9775,5.9775,5.9775,5.9775,5.9775,5.9775,5.9775,5.9775,5.9775,5.9775,5.9775,5.9775,5.9775,5.9775,6.0458,6.1336,6.0945,5.9822,5.8283,5.6597,5.5036,5.3858,5.3974,5.4014,5.3981,5.3796,5.3613,5.3391,5.3063,5.2839,5.2676,5.2539,5.25,5.2383,5.1953,5.1855,5.1738,5.1284,5.0972,5.0762,5.0625,5.0395,5.0199,5.0199,5.0199,4.9984,4.9398,4.934,4.934,4.934,4.9457,4.9535,4.9535,4.9672,4.9691,4.9555,4.9535,4.9476,4.934,4.934,4.934,4.934,4.934,4.934,4.932,5.0943,5.2981,5.5446,5.7436,5.9881,3.9061,4.1387,4.3573,4.4609,4.6016,4.7207,4.7321,4.8027,4.8441,4.7757,4.7441,4.7344,4.75,4.7776,4.8363,4.9535,5.1079,5.2153,5.2285,5.2812,5.2826,5.1968,5.1289,5.0766,5.043,5.0508,5.0762,5.1148,5.2266,5.2994,5.315,5.3711,5.4151,5.4507,5.5178,5.5709,5.6041,5.6744,5.7069,5.7069,5.7069,5.7069,5.7069,5.7069,5.7069,5.7069,5.7069,5.7069,5.7069,5.7069,5.7172,5.7317,5.7317,5.742,5.7565,5.7565,5.7565,5.7663,5.8432,5.7781,5.646,5.5146,5.3802,5.2734,5.2891,5.2949,5.2969,5.31,5.3158,5.3158,5.3158,5.3158,5.3144,5.2969,5.2949,5.2832,5.2402,5.2187,5.1992,5.1719,5.1304,5.1011,5.1011,5.0801,5.0683,5.0864,5.0746,5.0527,5.0238,5.0199,5.0199,5.0199,5.0199,5.0199,5.0199,5.0199,5.0199,5.0199,5.0199,5.0199,5.0199,5.0199,5.0199,5.0199,5.0199,5.0199,5.0199,5.15,5.3142,5.5101,5.6613,5.8614,4.0859,4.3183,4.5232,4.5725,4.678,4.7773,4.8164,4.8262,4.8125,4.764,4.6506,4.5725,0.0,4.6191,4.6777,4.8561,5.0668,5.2226,5.2656,5.3432,5.3666,0.0,0.0,0.0,0.0,0.0,5.0375,5.0781,5.1601,5.229,5.2695,5.3529,5.3998,5.3998,5.3998,5.3998,5.3998,5.3998,5.3998,5.3998,5.3998,5.3998,5.3998,5.3998,5.3998,5.3998,5.3998,5.3998,5.3998,5.3998,5.4277,5.4713,5.4713,5.4941,5.5312,5.5312,5.5312,5.5462,5.6685,5.6468,5.5523,5.4584,5.361,5.291,5.3345,5.3488,5.3541,5.39,5.3998,5.3998,5.3998,5.3998,5.39,5.3521,5.3424,5.3306,5.2832,5.2441,5.2173,5.2134,5.1777,5.1479,5.1479,5.1479,5.1616,5.2051,5.1714,5.1148,5.0395,5.0278,5.0258,5.0258,5.0258,5.0258,5.0258,5.0258,5.0278,5.0297,5.0297,5.0317,5.0336,5.0336,5.0336,5.0336,5.0336,5.0336,5.0336,5.1264,5.2381,5.3715,5.5196,5.6634,4.2598,4.4961,4.7031,4.7461,4.8278,4.8942,4.8773,4.8945,4.8688,4.6992,4.5332,4.4238,4.4336,4.4648,4.5547,4.76,5.0278,5.2226,5.2656,5.3183,0.0,5.3248,0.0,5.1875,5.1304,5.0605,5.0375,5.0781,5.1601,5.229,5.2695,5.3529,5.3998,5.3998,5.3998,5.3998,5.3998,5.3998,5.3998,5.3998,5.3998,5.3998,5.3998,5.3998,5.3998,5.3998,5.3998,5.3998,5.3998,5.3998,5.4277,5.4713,5.4713,5.4941,5.5312,5.5312,5.5312,5.5352,5.5662,5.5607,5.5373,5.5089,5.4849,5.4609,5.442,5.4361,5.4322,5.4056,5.3998,5.3998,5.3998,5.3998,5.3978,5.3861,5.3867,5.373,5.3306,5.313,5.2974,5.2617,5.2461,5.2358,5.2358,5.2358,5.2422,5.2539,5.2187,5.1836,5.1645,5.1308,5.1089,5.1089,5.1089,5.1089,5.1089,5.1089,5.125,5.1606,5.1626,5.1738,5.2051,5.207,5.207,5.207,5.207,5.207,5.207,5.2708,5.3592,5.4666,5.5465,5.6374,4.4219,4.6172,4.791,4.8144,4.873,4.9062,4.846,4.834,4.7751,4.5605,4.3789,4.2656,4.2832,4.3242,4.4297,4.6641,4.9551,5.166,5.2065,5.2676,5.3033,0.0,5.2407,0.0,5.1738,5.1289,5.1215,5.1601,5.1738,5.207,5.2676,5.373,5.4316,5.4316,5.4466,5.4564,5.4564,5.4564,5.4564,5.4564,5.4564,5.4564,5.4564,5.4564,5.4564,5.4564,5.4564,5.4564,5.4564,5.4564,5.4818,5.5234,5.5234,5.5488,5.5879,5.5879,5.5879,5.5879,5.5879,5.5879,5.5801,5.543,5.5312,5.5254,5.5019,5.4824,5.4655,5.4394,5.4154,5.3998,5.3998,5.3998,5.3998,5.3998,5.3998,5.3939,5.3711,5.3521,5.3248,5.2793,5.2715,5.2715,5.2715,5.2715,5.2773,5.2994,5.2637,5.2363,5.2363,5.1992,5.1719,5.1719,5.185,5.1889,5.1714,5.187,5.2012,5.2095,5.2271,5.2461,5.2695,5.2715,5.2715,5.2715,5.2715,5.2715,5.2715,5.2988,5.3435,5.4009,5.4305,5.4727,4.5822,4.7207,4.8457,4.8398,4.8734,4.8815,4.7757,4.707,4.6033,4.3906,4.2031,4.0918,4.1445,4.1953,4.3163,4.5801,4.875,5.0898,5.1343,5.2046,5.2441,5.2212,5.2134,5.2134,5.2168,5.2266,5.25,5.2851,5.2221,5.2143,5.2851,5.4023,5.4733,5.4791,5.5117,5.5312,5.5312,5.5312,5.5312,5.5312,5.5312,5.5312,5.5312,5.5312,5.5312,5.5312,5.5312,5.5312,5.5312,5.5312,5.5521,5.5911,5.5911,5.6211,5.6609,5.6609,5.6609,5.6609,5.6609,5.6609,5.6491,5.5723,5.5469,5.5469,5.541,5.5137,5.487,5.4785,5.4492,5.4173,5.4173,5.4173,5.4173,5.4173,5.4173,5.4173,5.4173,5.3887,5.3521,5.3125,5.3008,5.2969,5.2969,5.293,5.3008,5.3424,5.3091,5.2793,5.2793,5.2422,5.2173,5.2114,5.2461,5.2558,5.2212,5.25,5.2578,5.229,5.2598,5.2812,5.2891,5.2866,5.2866,5.2866,5.2866,5.2866,5.2866,5.2866,5.2866,5.2866,5.2866,5.2866,4.7637,4.8789,4.9746,4.9371,4.9629,4.9457,4.7458,4.615,0.0,4.2578,4.0195,3.8829,4.0019,4.1152,4.2754,4.5392,4.8343,5.0547,5.1304,5.1538,5.187,0.0,5.2285,5.2226,5.2558,5.3262,5.3705,5.3764,5.4004,5.4023,5.3783,5.4355,5.4844,5.5195,5.5273,5.5312,5.5312,5.5312,5.5312,5.5312,5.5312,5.5312,5.5312,5.5312,5.5312,5.5312,5.5312,5.5312,5.5312,5.5312,5.5521,5.5911,5.5911,5.6211,5.6609,5.6609,5.6609,5.6609,5.6609,5.6609,5.6589,5.6406,5.6367,5.6289,5.5911,5.5755,5.5618,5.5293,5.5137,5.5052,5.5052,5.5052,5.5052,5.5052,5.5052,5.5052,5.5052,5.5019,5.4941,5.4863,5.457,5.4336,5.4336,5.4043,5.3803,5.3881,5.3535,5.3267,5.3267,5.2871,5.2461,5.2153,5.2461,5.2676,5.2598,5.2676,5.2832,5.315,5.3228,5.3443,5.3764,5.3783,5.3783,5.3783,5.3783,5.3783,5.3783,5.3783,5.3783,5.3783,5.3783,5.3783,4.8769,4.9531,5.0102,4.9605,4.9336,4.8594,4.6404,0.0,0.0,4.0898,3.8926,3.793,3.9022,4.0078,4.166,4.4238,4.7034,4.9144,4.998,5.0488,5.1016,5.1641,5.1738,5.209,5.2994,5.3848,5.4453,5.4662,5.4883,5.4922,5.4681,5.5098,5.5527,5.5957,5.5976,5.5976,5.5976,5.5976,5.5976,5.5976,5.5976,5.5976,5.5976,5.5976,5.5976,5.5976,5.5976,5.5976,5.5976,5.5976,5.6094,5.6269,5.6269,5.6406,5.6609,5.6609,5.6609,5.6609,5.6609,5.6609,5.6609,5.6609,5.6609,5.657,5.6328,5.6087,5.5872,5.5657,5.5442,5.5312,5.5312,5.5312,5.5312,5.5312,5.5312,5.5312,5.5312,5.5312,5.5312,5.5312,5.4961,5.4713,5.4713,5.4316,5.3998,5.3998,5.3848,5.3658,5.3449,5.3379,5.3223,5.2818,5.3144,5.3301,5.3066,5.3262,5.3379,5.341,5.3599,5.3906,5.4355,5.4375,5.4473,5.4662,5.4662,5.4662,5.4662,5.4662,5.4662,5.4662,5.4662,5.4662,4.9801,5.0312,5.0547,4.982,4.8981,4.7715,4.5271,4.3241,4.1309,3.9336,3.7832,3.7205,3.8143,3.9042,4.043,4.2891,4.5391,4.7425,4.846,4.9359,5.018,5.0859,5.1284,5.207,5.3404,5.4375,5.5078,5.5384,5.5527,5.5547,5.5423,5.5813,5.623,5.6609,5.6609,5.6609,5.6609,5.6609,5.6609,5.6609,5.6609,5.6609,5.6609,5.6609,5.6609,5.6609,5.6609,5.6609,5.6609,5.6609,5.6609,5.6609,5.6609,5.6609,5.6609,5.6609,5.6609,5.6609,5.6609,5.6609,5.6609,5.6609,5.6609,5.6609,5.6609,5.6348,5.6048,5.6048,5.5813,5.5586,5.5586,5.5586,5.5586,5.5586,5.5586,5.5586,5.5586,5.5586,5.5586,5.5586,5.5234,5.4941,5.4941,5.459,5.4271,5.4271,5.4271,5.4154,5.3853,5.4082,5.416,5.3834,5.3926,5.3861,5.356,5.3828,5.3887,5.356,5.3926,5.4336,5.4668,5.4791,5.498,5.5293,5.5312,5.5312,5.5312,5.5312,5.5312,5.5312,5.5312,5.5312,5.1109,5.1831,5.209,5.0532,4.9476,4.7952,4.459,4.1914,3.9726,3.8302,3.6719,3.5937,3.7187,3.8143,3.9433,4.1621,4.3807,4.5818,4.7483,4.846,4.9594,5.1167,5.1758,5.2539,5.3822,5.5072,5.5813,5.5852,5.625,5.6289,5.5872,5.6289,5.657,5.6609,5.6609,5.6609,5.6609,5.6609,5.6609,5.6609,5.6609,5.6609,5.6609,5.6609,5.6609,5.6609,5.6609,5.6609,5.6609,5.6609,5.6609,5.6609,5.6609,5.6609,5.6609,5.6609,5.6609,5.6609,5.6609,5.6609,5.6609,5.6609,5.6609,5.6609,5.6609,5.6589,5.6523,5.6523,5.6504,5.6465,5.6465,5.6465,5.6465,5.6465,5.6465,5.6465,5.6465,5.6465,5.6465,5.6465,5.6113,5.5794,5.5794,5.5442,5.5195,5.5195,5.5195,5.5176,5.5137,5.5156,5.5176,5.5137,5.4447,5.3998,5.3939,5.3978,5.3978,5.3939,5.4375,5.4674,5.4713,5.5039,5.5273,5.5312,5.5312,5.5312,5.5312,5.5312,5.5312,5.5312,5.5312,5.5312,5.1148,5.2026,5.2305,5.0629,4.9144,4.7268,4.4083,4.1348,3.9101,3.7812,3.6584,3.6016,3.6795,3.742,3.8516,4.0664,4.2382,4.4139,4.6174,4.7168,4.8242,4.973,5.0273,5.1152,5.2715,5.3998,5.5189,5.625,5.6484,5.6504,5.6328,5.6484,5.6609,5.6609,5.6609,5.6609,5.6609,5.6609,5.6609,5.6609,5.6609,5.6609,5.6609,5.6609,5.6609,5.6609,5.6609,5.6609,5.6609,5.6609,5.6609,5.6609,5.6609,5.6609,5.6609,5.6609,5.6609,5.6609,5.6609,5.6609,5.6609,5.6609,5.6609,5.6609,5.6609,5.6609,5.6609,5.6609,5.6609,5.6609,5.6609,5.6609,5.6609,5.6609,5.6609,5.6609,5.6609,5.6609,5.6609,5.6609,5.623,5.5911,5.5911,5.556,5.5312,5.5312,5.5312,5.5312,5.5312,5.5312,5.5312,5.5312,5.5,5.4779,5.4779,5.4779,5.4779,5.4779,5.4961,5.5176,5.5403,5.5579,5.5774,5.6074,5.6074,5.6191,5.6419,5.6419,5.6582,5.6863,5.6863,5.6699,5.0835,5.2124,5.2637,5.0688,4.889,4.678,4.3613,4.0898,3.8691,3.7539,3.6621,3.6096,3.6426,3.6853,3.7695,3.9454,4.0918,4.2558,4.463,4.5742,4.6872,4.8343,4.8769,4.9687,5.1523,5.3223,5.4883,5.6491,5.6609,5.6609,5.6609,5.6609,5.6609,5.6609,5.6609,5.6609,5.6609,5.6609,5.6609,5.6609,5.6609,5.6609,5.6609,5.6609,5.6609,5.6609,5.6609,5.6609,5.6609,5.6609,5.6609,5.6609,5.6609,5.6609,5.6609,5.6609,5.6609,5.6609,5.6609,5.6609,5.6609,5.6609,5.6609,5.6609,5.6609,5.6609,5.6609,5.6609,5.6609,5.6609,5.6609,5.6609,5.6609,5.6609,5.6609,5.6609,5.6609,5.668,5.6777,5.6777,5.6621,5.6438,5.6301,5.6048,5.582,5.5703,5.5683,5.5683,5.5683,5.5683,5.5683,5.5683,5.5683,5.5586,5.5332,5.5312,5.5312,5.5312,5.543,5.5599,5.5891,5.6028,5.6269,5.6582,5.6609,5.6797,5.7207,5.7207,5.7441,5.7898,5.7762,5.7441,5.0332,5.2358,5.3373,5.082,4.889,4.6702,4.3202,4.043,3.8358,3.748,3.6621,3.5999,3.6018,3.6387,3.697,3.7795,3.9395,4.1133,4.2891,4.4219,4.5662,4.7405,4.762,4.8457,5.0605,5.3164,5.5241,5.6511,5.6609,5.6609,5.6609,5.6609,5.6609,5.6609,5.6609,5.6609,5.6609,5.6609,5.6609,5.6609,5.6609,5.6609,5.6609,5.6609,5.6609,5.6609,5.6609,5.6609,5.6609,5.6609,5.6609,5.6609,5.6609,5.6609,5.6609,5.6609,5.6609,5.6609,5.6609,5.6609,5.6609,5.6609,5.6609,5.6609,5.6609,5.6609,5.6609,5.6609,5.6609,5.6609,5.6609,5.6609,5.6609,5.6609,5.6609,5.6609,5.6609,5.6914,5.718,5.718,5.7539,5.7722,5.7265,5.716,5.7051,5.664,5.6609,5.6609,5.6609,5.6609,5.6609,5.6609,5.6609,5.623,5.5371,5.5312,5.5312,5.5312,5.5677,5.5911,5.5911,5.6348,5.6609,5.6609,5.6609,5.6797,5.7207,5.7207,5.7441,5.7879,5.7422,5.6992,4.8144,4.998,5.0918,4.8929,4.7109,4.5135,4.2578,3.9961,3.7969,3.7402,3.6621,3.5999,3.5999,3.6116,3.6584,3.7716,3.8633,4.0,4.2305,4.3769,4.5234,4.6911,4.8457,5.0102,5.1933,5.3398,5.4883,5.6465,5.6609,5.6609,5.6609,5.6609,5.6609,5.6609,5.6609,5.6609,5.6609,5.6609,5.6609,5.6609,5.6609,5.6609,5.6609,5.6609,5.6609,5.6609,5.6609,5.6609,5.6609,5.6609,5.6609,5.6609,5.6609,5.6609,5.6609,5.6609,5.6609,5.6609,5.6609,5.6609,5.6609,5.6609,5.6609,5.6609,5.6609,5.6609,5.6609,5.6609,5.6609,5.6609,5.6609,5.6609,5.6609,5.6609,5.6609,5.6687,5.6953,5.7129,5.7305,5.7625,5.7547,5.7363,5.7246,5.6973,5.6738,5.6601,5.6609,5.6609,5.6609,5.6609,5.6609,5.6609,5.6609,5.6511,5.6211,5.6445,5.6601,5.6601,5.7012,5.7273,5.7273,5.741,5.7488,5.7488,5.7488,5.7703,5.8097,5.8097,5.8156,5.8273,5.7558,5.7129,4.5295,4.7405,4.8535,4.6816,4.5449,4.3905,4.1601,3.9434,3.7736,3.7205,3.6504,3.5999,3.5999,3.6135,3.6523,3.7324,3.8104,3.9374,4.1641,4.3359,4.5215,4.7402,4.9297,5.1016,5.2558,5.3652,5.4922,5.6465,5.6609,5.6609,5.6609,5.6609,5.6609,5.6609,5.6609,5.6609,5.6609,5.6609,5.6609,5.6609,5.6609,5.6609,5.6609,5.6609,5.6609,5.6609,5.6609,5.6609,0.0,5.6609,5.6609,5.6609,5.6609,5.6609,5.6609,5.6609,5.6609,5.6609,5.6609,5.6609,5.6609,5.6609,5.6609,5.6609,5.6609,5.6609,5.6609,5.6609,5.6609,5.6609,5.6609,5.6609,5.6609,5.6609,5.6726,5.6894,5.7148,5.7453,5.7734,5.7879,5.7793,5.7598,5.7265,5.6992,5.6758,5.6601,5.6609,5.6609,5.6609,5.6609,5.6609,5.6609,5.6719,5.6816,5.6816,5.707,5.7285,5.7441,5.7742,5.7898,5.7898,5.7898,5.7898,5.7898,5.7898,5.8113,5.8507,5.8507,5.8418,5.8262,5.7539,5.7129,0.0,4.4551,4.6169,4.4609,4.3828,4.2812,4.0391,3.879,0.0,3.6853,3.6328,3.5999,3.5999,3.6348,3.6658,3.6716,3.7752,3.9179,4.0976,4.3203,4.5762,4.8776,5.0199,5.1445,5.2734,5.3984,5.526,5.6511,5.6609,5.6609,5.6609,5.6609,5.6609,5.6609,5.6609,5.6609,5.6609,5.6609,5.6609,5.6609,5.6609,5.6609,5.6609,5.6609,5.6609,5.6609,5.6609,5.6609,5.6609,5.6609,5.6609,5.6609,5.6609,5.6609,5.6609,5.6609,5.6609,5.6609,5.6609,5.6609,5.6609,5.6609,5.6609,5.6609,5.6609,5.6609,5.6609,5.6609,5.6601,5.6621,5.6621,5.6687,5.6687,5.664,5.6953,5.7265,5.7265,5.791,5.839,5.8055,5.8262,5.8215,5.7402,5.7226,5.707,5.664,5.6601,5.6621,5.6621,5.6687,5.6687,5.6667,5.6973,5.7226,5.7246,5.7285,5.748,5.7926,5.7984,5.7996,5.7996,5.7996,5.7996,5.7996,5.7996,5.8172,5.8566,5.8507,5.8262,5.7879,5.7383,5.6953,3.7908,0.0,4.289,4.2519,4.1601,4.0547,0.0,3.8143,3.6931,3.6753,3.6328,3.5999,3.5999,3.6077,3.6387,3.7051,3.7676,3.8926,4.1308,4.4922,4.8301,5.102,5.1875,5.2773,5.4082,5.4785,5.5566,5.655,5.6609,5.6609,5.6609,5.6609,5.6609,5.6609,5.6609,5.6609,5.6609,5.6609,5.6609,5.6609,5.6609,5.6609,5.6609,5.6609,5.6609,5.6609,5.6609,5.6609,5.6609,5.6609,5.6609,5.6609,5.6609,5.6609,5.6609,5.6609,5.6609,5.6609,5.6609,5.6609,5.6609,5.6609,5.6609,5.6609,5.6609,5.6609,5.6609,5.6609,5.6816,5.707,5.707,5.7332,5.7507,5.7148,5.7429,5.7742,5.7742,5.8144,5.8566,5.8828,5.8683,5.8332,5.782,5.7441,5.707,5.664,5.6855,5.707,5.707,5.739,5.7468,5.7109,5.7148,5.7344,5.7703,5.8027,5.8242,5.8332,5.8699,5.8887,5.8887,5.8887,5.8887,5.8887,5.8887,5.8945,5.9032,5.8379,5.7996,5.7879,5.7117,5.668,3.6814,3.8631,4.0253,3.9824,3.9512,3.9081,3.8241,3.7342,3.6656,3.6406,3.6191,3.5999,3.5999,3.6191,3.6543,3.7187,3.797,3.9883,4.3887,4.7305,5.043,5.3242,5.3769,5.4336,5.5449,5.5762,5.6094,5.6543,5.6609,5.6609,5.6609,5.6609,5.6609,5.6609,5.6609,5.6609,5.6609,5.6609,5.6609,5.6609,5.6609,5.6609,5.6609,5.6609,5.6609,5.6609,5.6609,5.6609,5.6609,5.6609,5.6699,5.6855,5.666,5.6699,5.6855,5.6687,5.6609,5.6609,5.6609,5.6609,5.6609,5.6609,5.6609,5.6609,5.6609,5.6719,5.6836,5.664,5.6894,5.7207,5.7207,5.7539,5.7781,5.7324,5.7695,5.8113,5.7937,5.8406,5.8828,5.8859,5.8683,5.8301,5.7703,5.7363,5.707,5.664,5.6933,5.7207,5.7207,5.7625,5.7722,5.7265,5.7383,5.7547,5.7586,5.8144,5.8594,5.88,5.9062,5.9207,5.9207,5.9207,5.9207,5.9207,5.9207,5.9207,5.9207,5.8524,5.8183,5.8172,5.7507,5.7195,3.6973,3.785,3.8358,3.7734,3.8143,3.8397,3.7244,3.6931,3.6756,3.6291,3.6155,3.6135,3.6272,3.6621,3.7088,3.7695,3.9141,4.1992,4.7148,4.9629,5.1992,5.4961,5.5312,5.5644,5.653,5.6609,5.6609,5.6609,5.6609,5.6609,5.6609,5.6609,5.6609,5.6609,5.6609,5.6609,5.6609,5.6609,5.6609,5.6609,5.6609,5.6609,5.6609,5.6609,5.6609,5.6609,5.6609,5.6609,5.6582,5.6687,5.6894,5.7187,5.6894,5.6953,5.7168,5.6816,5.664,5.6609,5.6609,5.6609,5.6609,5.6609,5.6609,5.6609,5.6609,5.6875,5.7129,5.6777,5.7031,5.7422,5.7422,5.7734,5.7969,5.7519,5.8027,5.8507,5.8086,5.8641,5.9062,5.8683,5.8625,5.8332,5.7531,5.7422,5.7265,5.6863,5.7148,5.7422,5.7422,5.7793,5.791,5.7461,5.7734,5.782,5.7441,5.8086,5.8711,5.918,5.9207,5.9207,5.9207,5.9207,5.9207,5.9207,5.9207,5.9207,5.9207,5.8742,5.8507,5.8507,5.8086,5.7898,3.656,3.7383,3.8146,3.8769,3.9004,3.8965,3.8416,3.7988,3.7599,3.7187,3.6834,3.6814,3.7482,3.7677,3.8224,3.9766,4.2637,4.5764,4.8766,5.0425,5.2299,5.498,5.5312,5.5644,5.653,5.6609,5.6609,5.6609,5.6609,5.6609,5.6609,5.6609,5.6609,5.6609,5.6609,5.6609,5.6609,5.6609,5.6609,5.6609,5.6609,5.6609,5.6609,5.6609,5.6609,5.6609,5.6609,5.6609,5.6648,5.6973,5.7148,5.7246,5.7566,5.7507,5.718,5.7129,5.6894,5.6609,5.6609,5.6609,5.6609,5.6609,5.6609,5.6609,5.6609,5.6875,5.7207,5.7129,5.7668,5.8301,5.8301,5.8652,5.8887,5.8418,5.8711,5.8973,5.8507,5.8828,5.918,5.9121,5.909,5.8917,5.839,5.8301,5.8156,5.7762,5.8027,5.8301,5.8301,5.8711,5.8828,5.8332,5.8359,5.839,5.8304,5.8421,5.8711,5.918,5.9207,5.9207,5.9207,5.9207,5.9207,5.9207,5.9207,5.9207,5.9207,5.8742,5.8507,5.8507,5.8086,5.7898,3.6521,3.7285,3.8107,3.8984,3.9394,3.9531,3.9336,3.9141,3.8867,3.8418,3.8006,3.7908,3.8478,3.8985,4.0176,4.2871,4.5627,4.8069,4.9937,5.1284,5.2885,5.5058,5.5312,5.5644,5.653,5.6609,5.6609,5.6609,5.6609,5.6609,5.6609,5.6609,5.6609,5.6609,5.6609,5.6609,5.6609,5.6609,5.6609,5.6609,5.6609,5.6609,5.6609,5.6609,5.6609,5.6609,5.6609,5.6609,5.6601,5.6797,5.7148,5.7539,5.7312,5.7351,5.75,5.7051,5.6758,5.6609,5.6609,5.6609,5.6609,5.6609,5.6738,5.6914,5.6914,5.7383,5.791,5.791,5.8187,5.8507,5.8507,5.8828,5.9062,5.8625,5.8859,5.9062,5.8597,5.8859,5.9207,5.9207,5.9207,5.9062,5.8566,5.8507,5.8359,5.7957,5.8242,5.8507,5.8507,5.8914,5.9004,5.8566,5.8507,5.8418,5.8203,5.839,5.8711,5.918,5.9207,5.9207,5.9207,5.9207,5.9207,5.9207,5.9207,5.9207,5.9207,5.8976,5.8887,5.8859,5.8699,5.861,3.6541,3.7166,3.7873,3.8945,3.9629,4.0078,4.0176,4.0273,4.0234,3.9883,3.9491,3.9354,3.9863,4.082,4.2597,4.5783,4.7933,4.9672,5.1055,5.2187,5.3476,5.5117,5.5312,5.5644,5.653,5.6609,5.6609,5.6609,5.6609,5.6609,5.6609,5.6609,5.6609,5.6609,5.6609,5.6609,5.6609,5.6609,5.6609,5.6609,5.6609,5.6609,5.6609,5.6609,5.6609,5.6609,5.6609,5.6609,5.6628,5.6699,5.7136,5.7683,5.7136,5.7253,5.7644,5.6882,5.6609,5.6609,5.6609,5.6609,5.6609,5.6609,5.6875,5.7207,5.7207,5.7805,5.8507,5.8507,5.8566,5.8655,5.8655,5.8945,5.9121,5.8742,5.8945,5.909,5.8742,5.8945,5.9207,5.9207,5.9207,5.909,5.8742,5.8655,5.8555,5.823,5.8476,5.8655,5.8655,5.8976,5.9062,5.8711,5.8655,5.8535,5.823,5.8496,5.8828,5.918,5.9207,5.9207,5.9207,5.9207,5.9207,5.9207,5.9207,5.9207,5.9207,5.9207,5.9207,5.9207,5.9207,5.9207,3.6462,3.6736,3.7166,3.8789,3.9825,4.0567,4.1015,4.1406,4.166,4.1621,4.1289,4.125,4.2031,4.3554,4.5408,4.7656,4.918,5.0688,5.2344,5.3033,5.3834,5.5137,5.5312,5.5644,5.653,5.6609,5.6609,5.6609,5.6609,5.6609,5.6609,5.6609,5.6609,5.6609,5.6609,5.6609,5.6609,5.6609,5.6609,5.6609,5.6609,5.6609,5.6609,5.6609,5.6609,5.6609,5.6609,5.6609,5.6648,5.7012,5.7207,5.7285,5.7664,5.7586,5.7207,5.6758,5.6609,5.6609,5.6609,5.6609,5.6609,5.6609,5.6875,5.7207,5.7207,5.7805,5.8507,5.8507,5.88,5.9149,5.9149,5.918,5.918,5.9149,5.918,5.918,5.9149,5.918,5.9207,5.9207,5.9207,5.918,5.9149,5.9149,5.9149,5.911,5.9121,5.9149,5.9149,5.918,5.918,5.9149,5.9149,5.9149,5.911,5.9121,5.9149,5.9207,5.9207,5.9207,5.9207,5.9207,5.9207,5.9207,5.9207,5.9207,5.9207,5.9207,5.9207,5.9207,5.9207,5.9207,3.625,3.6482,3.7029,3.8475,3.9473,4.0527,4.2031,4.3105,4.3866,4.4181,4.4103,4.3927,4.3691,4.5273,4.7051,4.8421,5.018,5.1802,5.2974,5.3496,5.416,5.5195,5.5312,5.5644,5.653,5.6609,5.6609,5.6609,5.6609,5.6609,5.6609,5.6609,5.6609,5.6609,5.6609,5.6609,5.6609,5.6609,5.6609,5.6609,5.6609,5.6609,5.6609,5.6609,5.6609,5.6609,5.6609,5.6609,5.6628,5.6758,5.6973,5.7226,5.7402,5.7207,5.6797,5.6667,5.6609,5.6609,5.6609,5.6609,5.6609,5.6609,5.7078,5.7644,5.7644,5.8242,5.8945,5.8945,5.9062,5.9207,5.9207,5.9207,5.9207,5.9207,5.9207,5.9207,5.9207,5.9207,5.9207,5.9207,5.9207,5.9207,5.9207,5.9207,5.9207,5.9207,5.9207,5.9207,5.9207,5.9207,5.9207,5.9207,5.9207,5.9207,5.9207,5.9207,5.9207,5.9207,5.9207,5.9207,5.9207,5.9207,5.9207,5.9207,5.9207,5.9207,5.9207,5.9207,5.9207,5.9207,5.9207,5.9207,3.6116,3.6133,3.6619,3.8026,3.9238,4.0684,4.2989,4.4394,4.543,4.6154,4.6291,4.6076,4.5332,4.6601,4.8128,4.9144,5.0883,5.2447,5.3463,5.3945,5.4486,5.5215,5.5403,5.5801,5.655,5.6609,5.6609,5.6609,5.6609,5.6609,5.6609,5.6609,5.6609,5.6609,5.6609,5.6609,5.6609,5.6609,5.6609,5.6609,5.6609,5.6609,5.6609,5.6609,5.6609,5.6609,5.6609,5.6609,5.6609,5.6609,5.6758,5.7012,5.7012,5.6836,5.6609,5.6609,5.6609,5.6609,5.6609,5.6609,5.6609,5.6609,5.7195,5.7898,5.7898,5.8524,5.9207,5.9207,5.9207,5.9207,5.9207,5.9207,5.9207,5.9207,5.9207,5.9207,5.9207,5.9207,5.9207,5.9207,5.9207,5.9207,5.9207,5.9207,5.9207,5.9207,5.9207,5.9207,5.9207,5.9207,5.9207,5.9207,5.9207,5.9207,5.9207,5.9207,5.9207,5.9207,5.9207,5.9207,5.9207,5.9207,5.9207,5.9207,5.9207,5.9207,5.9207,5.9207,5.9207,5.9207,5.9207,5.9207,3.6135,3.5723,3.582,3.7502,3.9239,4.1211,4.3828,4.5099,4.6076,4.7366,4.764,4.748,4.7009,4.7634,4.8652,4.9984,5.1274,5.2539,5.3822,5.4414,5.4844,5.5254,5.5657,5.6087,5.6543,5.6609,5.6609,5.6609,5.6609,5.6609,5.6609,5.6609,5.6609,5.6609,5.6609,5.6609,5.6609,5.6609,5.6609,5.6609,5.6609,5.6609,5.6609,5.6609,5.6609,5.6609,5.6609,5.6609,5.6609,5.6609,5.6609,5.6609,5.6609,5.6609,5.6609,5.6609,5.6609,5.6609,5.6609,5.6609,5.6609,5.6609,5.7195,5.7898,5.7898,5.8524,5.9207,5.9207,5.9207,5.9207,5.9207,5.9207,5.9207,5.9207,5.9207,5.9207,5.9207,5.9207,5.9207,5.9207,5.9207,5.9207,5.9207,5.9207,5.9207,5.9207,5.9207,5.9207,5.9207,5.9207,5.9207,5.9207,5.9207,5.9207,5.9207,5.9207,5.9207,5.9207,5.9207,5.9207,5.9207,5.9207,5.9207,5.9207,5.9207,5.9207,5.9207,5.9207,5.9207,5.9207,5.9207,5.9207,3.6521,3.6619,3.7226,3.922,4.1055,4.2988,4.5564,4.6814,4.7988,4.9879,5.0269,4.9883,4.8558,4.9238,5.0078,5.018,5.1782,5.3365,5.4355,5.4863,5.5273,5.5677,5.5833,5.6087,5.6543,5.6609,5.6609,5.6609,5.6609,5.6609,5.6609,5.6609,5.6609,5.6609,5.6609,5.6609,5.6609,5.6609,5.6609,5.6609,5.6609,5.6609,5.6609,5.6609,5.6609,5.6609,5.6609,5.6609,5.6609,5.6609,5.6609,5.6609,5.6609,5.6609,5.6609,5.6609,5.6609,5.6609,5.6609,5.6609,5.6609,5.6609,5.7195,5.7898,5.7898,5.8524,5.9207,5.9207,5.9207,5.9207,5.9207,5.9207,5.9207,5.9207,5.9207,5.9207,5.9207,5.9207,5.9207,5.9207,5.9207,5.9207,5.9207,5.9207,5.9207,5.9207,5.9207,5.9207,5.9207,5.9207,5.9207,5.9207,5.9207,5.9207,5.9207,5.9207,5.9207,5.9207,5.9207,5.9207,5.9207,5.9207,5.9207,5.9207,5.9207,5.9207,5.9207,5.9207,5.9207,5.9207,5.9207,5.9207,3.6853,3.7381,3.832,4.0469,4.2715,4.5176,4.8262,4.9215,4.9937,5.1577,5.1772,5.1308,5.0098,5.0664,5.123,5.1001,5.2441,5.3893,5.4615,5.5195,5.5618,5.5872,5.6067,5.6289,5.6562,5.6609,5.6609,5.6609,5.6609,5.6609,5.6609,5.6609,5.6609,5.6609,5.6609,5.6609,5.6609,5.6609,5.6609,5.6609,5.6609,5.6609,5.6609,5.6609,5.6609,5.6609,5.6609,5.6609,5.6609,5.6609,5.6609,5.6609,5.6609,5.6609,5.6609,5.6609,5.6609,5.6609,5.6609,5.6609,5.6609,5.6609,5.7051,5.7625,5.7625,5.823,5.8917,5.8917,5.9062,5.9207,5.9207,5.9207,5.9207,5.9207,5.9207,5.9207,5.9207,5.9207,5.9207,5.9207,5.9207,5.9207,5.9207,5.9207,5.9207,5.9207,5.9207,5.9207,5.9207,5.9207,5.9207,5.9207,5.9207,5.9207,5.9207,5.9207,5.9207,5.9207,5.9207,5.9207,5.9207,5.9207,5.9207,5.9207,5.9207,5.9207,5.9207,5.9207,5.9207,5.9207,5.9207,5.9297,3.7148,3.8084,3.9315,4.1543,4.4414,4.7676,5.1391,5.1894,5.1811,5.2598,5.25,5.2129,5.1675,5.1973,5.2246,5.2232,5.3301,5.4252,5.4687,5.5469,5.597,5.597,5.6348,5.6609,5.6609,5.6609,5.6609,5.6609,5.6609,5.6609,5.6609,5.6609,5.6609,5.6609,5.6609,5.6609,5.6609,5.6609,5.6609,5.6609,5.6609,5.6609,5.6609,5.6609,5.6609,5.6609,5.6609,5.6609,5.6609,5.6609,5.6609,5.6609,5.6609,5.6609,5.6609,5.6609,5.6609,5.6609,5.6609,5.6609,5.6609,5.6609,5.6875,5.7207,5.7207,5.7805,5.8507,5.8507,5.8828,5.9207,5.9207,5.9207,5.9207,5.9207,5.9207,5.9207,5.9207,5.9207,5.9207,5.9207,5.9207,5.9207,5.9207,5.9207,5.9207,5.9207,5.9207,5.9207,5.9207,5.9207,5.9207,5.9207,5.9207,5.9207,5.9207,5.9207,5.9207,5.9207,5.9207,5.9207,5.9207,5.9207,5.9207,5.9207,5.9207,5.9207,5.9207,5.9207,5.9207,5.9207,5.9207,5.9414,3.7811,3.918,4.0762,4.3593,4.7087,5.041,5.2622,5.3033,5.3013,5.3209,5.3437,5.3451,5.3052,5.332,5.3496,5.317,5.418,5.5058,5.5156,5.5898,5.6445,5.6445,5.6523,5.6609,5.6609,5.6609,5.6609,5.6609,5.6609,5.6609,5.6609,5.6609,5.6609,5.6609,5.6609,5.6609,5.6609,5.6609,5.6609,5.6609,5.6609,5.6609,5.6609,5.6609,5.6609,5.6609,5.6609,5.6609,5.6609,5.6609,5.6609,5.6609,5.6609,5.6609,5.6609,5.6609,5.6609,5.6609,5.6609,5.6609,5.6609,5.6609,5.6875,5.7207,5.7207,5.7805,5.8507,5.8507,5.8828,5.9207,5.9207,5.9207,5.9207,5.9207,5.9207,5.9207,5.9207,5.9207,5.9207,5.9207,5.9207,5.9207,5.9207,5.9207,5.9207,5.9207,5.9207,5.9207,5.9207,5.9207,5.9207,5.9207,5.9207,5.9207,5.9207,5.9207,5.9207,5.9207,5.9207,5.9207,5.9207,5.9207,5.9207,5.9207,5.9207,5.9207,5.9207,5.9207,5.9207,5.9207,5.9207,5.9414,3.8534,4.0605,4.3105,4.7575,5.0215,5.2109,5.3678,5.3853,5.3672,5.3672,5.3842,5.3939,5.373,5.3842,5.392,5.3711,5.459,5.5312,5.5312,5.6055,5.6609,5.6609,5.6609,5.6609,5.6609,5.6609,5.6609,5.6609,5.6609,5.6609,5.6609,5.6609,5.6609,5.6609,5.6609,5.6484,5.6269,5.6269,5.6172,5.5976,5.6172,5.6387,5.6609,5.6609,5.6609,5.6609,5.6609,5.6609,5.6609,5.6609,5.6609,5.6609,5.6609,5.6609,5.6609,5.6609,5.6609,5.6609,5.6609,5.6609,5.6609,5.6609,5.6738,5.6914,5.6914,5.7519,5.8203,5.8203,5.8699,5.9207,5.9207,5.9207,5.9207,5.9207,5.9207,5.9207,5.9207,5.9207,5.9207,5.9207,5.9207,5.9207,5.9207,5.9207,5.9207,5.9207,5.9207,5.9207,5.9207,5.9207,5.9207,5.9207,5.9207,5.9207,5.9207,5.9207,5.9207,5.9207,5.9207,5.9207,5.9207,5.9207,5.9207,5.9207,5.9207,5.9207,5.9207,5.9207,5.9207,5.9207,5.9207,5.9531,3.9062,4.2148,4.582,5.1426,5.2871,5.3242,5.444,5.4453,5.4193,5.4134,5.4056,5.3998,5.3998,5.3998,5.3998,5.3998,5.472,5.5312,5.5312,5.6055,5.6609,5.6609,5.6609,5.6609,5.6609,5.6609,5.6609,5.6609,5.6609,5.6609,5.6609,5.6609,5.6609,5.6609,5.6504,5.6308,5.5911,5.5833,5.5618,5.5312,5.5716,5.6087,5.6465,5.6543,5.6609,5.6609,5.6609,5.6609,5.6609,5.6609,5.6609,5.6609,5.6609,5.6609,5.6609,5.6609,5.6609,5.6609,5.6609,5.6609,5.6609,5.6609,5.664,5.6699,5.6699,5.7332,5.7996,5.7996,5.8582,5.9207,5.9207,5.9207,5.9207,5.9207,5.9207,5.9207,5.9207,5.9207,5.9207,5.9207,5.9207,5.9207,5.9207,5.9207,5.9207,5.9207,5.9207,5.9207,5.9207,5.9207,5.9207,5.9207,5.9207,5.9207,5.9207,5.9207,5.9207,5.9207,5.9207,5.9207,5.9207,5.9207,5.9207,5.9207,5.9207,5.9207,5.9207,5.9207,5.9207,5.9207,5.9207,5.959,3.8965,4.3672,4.8516,5.2349,5.3574,5.3978,5.4576,5.4922,5.5039,5.4668,5.4297,5.3998,5.3998,5.3998,5.3998,5.3998,5.472,5.5312,5.5312,5.6055,5.6609,5.6609,5.6609,5.6609,5.6609,5.6609,5.6609,5.6609,5.6609,5.6609,5.6609,5.6609,5.6609,5.6609,5.6211,5.597,5.5911,5.554,5.5345,5.5312,5.5716,5.593,5.6009,5.6406,5.6609,5.6609,5.6609,5.6609,5.6609,5.6609,5.6609,5.6609,5.6609,5.6609,5.6609,5.6609,5.6609,5.6609,5.6609,5.6609,5.6609,5.6609,5.6836,5.7129,5.7129,5.7734,5.8418,5.8418,5.8817,5.9207,5.9207,5.9207,5.9207,5.9207,5.9207,5.9207,5.9207,5.9207,5.9207,5.9207,5.9207,5.9207,5.9207,5.9207,5.9207,5.9207,5.9207,5.9207,5.9207,5.9207,5.9207,5.9207,5.9207,5.9207,5.9207,5.9207,5.9207,5.9207,5.9207,5.9207,5.9207,5.9207,5.9207,5.9207,5.9207,5.9207,5.9207,5.9207,5.9207,5.9207,5.9207,5.9442,4.1289,4.5779,4.9801,5.3535,5.4414,5.457,5.5234,5.5332,5.5254,5.5058,5.4883,5.472,5.472,5.472,5.472,5.472,5.5228,5.5638,5.5638,5.6191,5.6609,5.6609,5.6609,5.6609,5.6609,5.6609,5.6609,5.6609,5.6609,5.6609,5.6609,5.6609,5.6609,5.6609,5.6126,5.5794,5.556,5.5156,5.4961,5.4961,5.5137,5.5442,5.5911,5.6106,5.6348,5.6609,5.6609,5.6609,5.6609,5.6609,5.6609,5.6609,5.6609,5.6609,5.6609,5.6609,5.6609,5.6609,5.6609,5.6609,5.6609,5.6609,5.6875,5.7207,5.7207,5.7805,5.8507,5.8507,5.8828,5.9207,5.9207,5.9207,5.9207,5.9207,5.9207,5.9207,5.9207,5.9207,5.9207,5.9207,5.9207,5.9207,5.9207,5.9207,5.9207,5.9207,5.9207,5.9207,5.9207,5.9207,5.9207,5.9207,5.9207,5.9207,5.9207,5.9207,5.9207,5.9207,5.9414,5.9442,5.9207,5.9414,5.9442,5.9207,5.9207,5.9207,5.9207,5.9207,5.9207,5.9207,5.9207,5.9414,4.2636,4.6306,4.943,5.3223,5.4101,5.4238,5.5098,5.5267,5.5312,5.5312,5.5488,5.5625,5.5625,5.5449,5.5312,5.5312,5.5638,5.5911,5.5911,5.6308,5.6609,5.6609,5.6609,5.6609,5.6609,5.6609,5.6609,5.6609,5.6609,5.6609,5.6609,5.6609,5.6609,5.6609,5.6055,5.5599,5.5312,5.4785,5.4512,5.4512,5.4629,5.5019,5.5599,5.5813,5.6087,5.6426,5.6543,5.6609,5.6609,5.6609,5.6609,5.6609,5.6609,5.6609,5.6609,5.6609,5.6609,5.6601,5.6726,5.6738,5.6758,5.6902,5.7207,5.7512,5.7512,5.8086,5.8683,5.8683,5.8945,5.9207,5.9207,5.9207,5.9207,5.9207,5.9207,5.9207,5.9207,5.9207,5.9207,5.9207,5.9207,5.9207,5.9207,5.9207,5.9207,5.9207,5.9207,5.9207,5.9207,5.9207,5.9207,5.9207,5.9207,5.9207,5.9207,5.9207,5.9238,5.9355,5.9629,5.9707,5.9512,5.9687,5.9676,5.9355,5.9238,5.9207,5.9207,5.9207,5.9207,5.9207,5.9207,5.9355,4.1308,4.3887,4.6721,5.0176,5.1641,5.2466,5.3326,5.4459,5.5312,5.5312,5.5957,5.6523,5.6523,5.5859,5.5312,5.5312,5.5638,5.5911,5.5911,5.6308,5.6609,5.6609,5.6609,5.6609,5.6609,5.6609,5.6609,5.6609,5.6609,5.6609,5.6609,5.6609,5.6609,5.6609,5.5781,5.5332,5.5312,5.4466,5.4037,5.4037,5.4492,5.4733,5.4791,5.554,5.5911,5.597,5.6406,5.6609,5.6609,5.6609,5.6609,5.6609,5.6609,5.6609,5.6609,5.6609,5.6609,5.664,5.7051,5.7187,5.7246,5.7683,5.8113,5.8421,5.8421,5.8769,5.9149,5.9149,5.918,5.9207,5.9207,5.9207,5.9207,5.9207,5.9207,5.9207,5.9207,5.9207,5.9207,5.9207,5.9207,5.9207,5.9207,5.9207,5.9207,5.9207,5.9207,5.9207,5.9207,5.9207,5.9207,5.9207,5.9207,5.9207,5.9207,5.9207,5.9355,5.9746,5.9776,5.9952,6.0314,6.0011,5.9776,5.9765,5.9386,5.9207,5.9207,5.9207,5.9207,5.9207,5.9207,5.9207,3.9315,4.1621,4.4277,4.7187,4.918,5.082,5.2251,5.3795,5.5058,5.5579,5.6172,5.6609,5.6609,5.6328,5.6133,5.6133,5.625,5.6348,5.6348,5.6484,5.6609,5.6609,5.6609,5.6609,5.6609,5.6609,5.6609,5.6609,5.6609,5.6609,5.6609,5.6609,5.6609,5.6609,5.5762,5.5013,5.4466,5.4154,5.3998,5.3998,5.4154,5.4551,5.5098,5.539,5.584,5.6367,5.6523,5.6609,5.6609,5.6609,5.6609,5.6609,5.6609,5.6609,5.6609,5.6609,5.6758,5.7012,5.7168,5.7402,5.7683,5.7867,5.8172,5.8507,5.8507,5.8828,5.9207,5.9207,5.9207,5.9207,5.9207,5.9207,5.9207,5.9207,5.9207,5.9207,5.9207,5.9207,5.9207,5.9207,5.9207,5.9207,5.9207,5.9207,5.9207,5.9207,5.9207,5.9207,5.9207,5.9207,5.9207,5.9207,5.9207,5.9207,5.9207,5.9442,5.9648,5.9776,6.0332,6.0566,6.0401,6.0566,6.0362,5.9805,5.9676,5.9473,5.9207,5.9207,5.9207,5.9207,5.9207,5.9207,3.7693,3.9511,4.1699,4.418,4.6287,4.8239,4.9961,5.1914,5.3711,5.4844,5.5644,5.625,5.657,5.6609,5.6609,5.6609,5.6609,5.6609,5.6609,5.6609,5.6609,5.6609,5.6609,5.6609,5.6609,5.6609,5.6523,5.6387,5.6504,5.6523,5.6367,5.6504,5.6472,5.6172,5.5469,5.4746,5.4017,5.3998,5.3998,5.3998,5.4154,5.4551,5.5117,5.539,5.582,5.6367,5.6523,5.6609,5.6609,5.6609,5.6609,5.6609,5.6609,5.6609,5.6609,5.6609,5.6758,5.7051,5.7324,5.7644,5.7937,5.823,5.8524,5.8742,5.8742,5.8945,5.9207,5.9207,5.9207,5.9207,5.9207,5.9207,5.9207,5.9207,5.9207,5.9207,5.9207,5.9207,5.9207,5.9207,5.9207,5.9207,5.9207,5.9207,5.9207,5.9207,5.9207,5.9207,5.9207,5.9207,5.9207,5.9207,5.9207,5.9238,5.9383,5.9648,5.9922,6.0215,6.0801,6.1015,6.084,6.1015,6.0829,6.0245,5.9952,5.9659,5.9414,5.9266,5.9207,5.9207,5.9207,5.9207,0.0,0.0,0.0,4.1113,4.2969,4.4726,4.6404,4.8824,5.123,5.2994,5.4401,5.5547,5.6452,5.6609,5.6609,5.6609,5.6609,5.6609,5.6609,5.6609,5.6609,5.6609,5.6609,5.6609,5.6609,5.6609,5.6406,5.595,5.6348,5.6406,5.595,5.6348,5.6172,5.5312,5.4883,5.4473,5.4017,5.3998,5.3998,5.4017,5.4473,5.4713,5.4752,5.554,5.5911,5.595,5.6406,5.6609,5.6609,5.6609,5.6609,5.6609,5.6609,5.6609,5.6609,5.6609,5.6628,5.6745,5.7586,5.7898,5.8055,5.8887,5.918,5.9207,5.9207,5.9207,5.9207,5.9207,5.9207,5.9207,5.9207,5.9207,5.9207,5.9207,5.9207,5.9207,5.9207,5.9207,5.9207,5.9207,5.9207,5.9207,5.9207,5.9207,5.9207,5.9207,5.9207,5.9207,5.9207,5.9238,5.9238,5.9238,5.9238,5.9386,5.9776,5.9835,6.0215,6.1064,6.1122,6.1279,6.1689,6.1328,6.1122,6.1094,6.0273,5.9805,5.9805,5.9414,5.9207,5.9207,5.9207,5.9207,3.486,0.0,0.0,0.0,0.0,0.0,4.375,4.6621,4.959,5.1978,5.3756,5.5215,5.6394,5.6609,5.6609,5.6609,5.6609,5.6609,5.6609,5.6609,5.6609,5.6609,5.6609,5.6609,5.6609,5.6609,5.6543,5.6406,5.655,5.6523,5.6406,5.6211,5.5723,5.4883,5.4772,5.4473,5.4017,5.3998,5.3998,5.4017,5.4473,5.4844,5.5156,5.5657,5.6087,5.6406,5.6523,5.6609,5.6609,5.6609,5.6609,5.6609,5.6609,5.6609,5.6609,5.6609,5.6777,5.707,5.7305,5.7793,5.8379,5.8625,5.8917,5.9207,5.9207,5.9207,5.9207,5.9207,5.9207,5.9207,5.9207,5.9207,5.9207,5.9207,5.9207,5.9207,5.9207,5.9207,5.9207,5.9207,5.9207,5.9207,5.9207,5.9207,5.9207,5.9207,5.9453,5.9629,5.9629,5.9893,6.0069,6.0069,6.0069,6.0128,6.0225,6.0566,6.084,6.1074,6.1367,6.1572,6.1719,6.1601,6.1416,6.1122,6.0518,6.0098,5.9805,5.9414,5.9207,5.9207,5.9207,5.9207,0.0,0.0,0.0,0.0,0.0,0.0,4.1426,4.4121,4.707,4.9691,5.1626,5.3242,5.4707,5.4961,5.4961,5.4961,5.5273,5.5762,5.6511,5.6609,5.6609,5.6609,5.6609,5.6609,5.6609,5.6609,5.6504,5.6328,5.6484,5.6504,5.6328,5.5742,5.5195,5.4713,5.4512,5.4277,5.3998,5.3998,5.4095,5.4316,5.4746,5.5156,5.556,5.6015,5.6348,5.6609,5.6609,5.6609,5.6609,5.6609,5.6609,5.6609,5.6609,5.6609,5.6609,5.6609,5.6738,5.6973,5.7148,5.7676,5.8273,5.8449,5.8828,5.9207,5.9207,5.9207,5.9207,5.9207,5.9207,5.9207,5.9207,5.9207,5.9207,5.9207,5.9207,5.9207,5.9207,5.9207,5.9207,5.9207,5.9207,5.9207,5.9207,5.9207,5.9266,5.9442,5.9648,5.9863,6.0039,6.0245,6.0401,6.0401,6.0401,6.0479,6.0683,6.0928,6.1181,6.1357,6.1572,6.1719,6.1719,6.1719,6.1601,6.1338,6.0742,6.0128,5.9559,5.9297,5.9207,5.9207,5.9207,5.9207,3.5449,0.0,0.0,0.0,3.7226,0.0,3.9336,4.1543,4.4082,4.6643,4.8558,5.0297,5.1973,5.2285,5.2285,5.2285,5.3041,5.4271,5.6113,5.6472,5.6523,5.6582,5.6609,5.6609,5.6609,5.6609,5.6426,5.6009,5.6328,5.6328,5.5872,5.5117,5.4694,5.4609,5.4238,5.3998,5.3998,5.4056,5.4297,5.4713,5.5156,5.554,5.593,5.6387,5.6609,5.6609,5.6609,5.6609,5.6609,5.6609,5.6609,5.6609,5.6609,5.6609,5.6609,5.6609,5.6609,5.664,5.7012,5.7422,5.7879,5.8242,5.8711,5.9121,5.9121,5.9149,5.9207,5.9207,5.9207,5.9207,5.9207,5.9207,5.9207,5.9207,5.9207,5.9207,5.9207,5.9207,5.9207,5.9207,5.9207,5.9207,5.9207,5.9207,5.9325,5.9687,5.9805,6.0011,6.0342,6.0479,6.0538,6.0538,6.0538,6.0694,6.1133,6.1181,6.1308,6.1689,6.1719,6.1719,6.1719,6.1719,6.1719,6.1719,6.0841,6.0011,5.9207,5.9207,5.9207,5.9207,5.9207,5.9207,3.5784,3.5881,3.5999,3.656,0.0,0.0,3.7676,3.9531,4.1758,4.4004,4.584,4.7578,4.932,4.9633,4.9633,4.9633,5.0644,5.2285,5.4733,5.5644,5.6191,5.657,5.6609,5.6609,5.6609,5.6609,5.6543,5.6465,5.6211,5.5852,5.5449,5.4961,5.4531,5.4134,5.4056,5.3998,5.3998,5.4375,5.459,5.4713,5.5449,5.5833,5.593,5.6387,5.6609,5.6609,5.6609,5.6609,5.6609,5.6609,5.6609,5.6609,5.6609,5.6609,5.6609,5.6609,5.6609,5.6628,5.668,5.6992,5.7344,5.7441,5.798,5.8625,5.8625,5.8887,5.9207,5.9207,5.9207,5.9207,5.9207,5.9207,5.9207,5.9207,5.9207,5.9207,5.9207,5.9207,5.9207,5.9207,5.9207,5.9207,5.9207,5.9207,5.9227,5.9297,5.9863,6.0303,6.0372,6.1015,6.1455,6.1455,6.1455,6.1484,6.1572,6.1572,6.1601,6.1719,6.1719,6.1719,6.1719,6.1719,6.1719,6.1719,6.0841,6.0011,5.9207,5.9207,5.9207,5.9207,5.9207,5.9207,3.6838,3.6799,3.6701,3.6951,0.0,0.0,0.0,3.8144,3.9766,4.1699,4.3124,4.4512,4.6037,4.6311,4.6389,4.6623,4.7891,4.9629,5.1797,5.3965,5.5547,5.6191,5.625,5.6172,5.5976,5.6133,5.6348,5.6562,5.5996,5.5501,5.5312,5.4707,5.4232,5.4017,5.3998,5.4115,5.4355,5.457,5.4883,5.5312,5.5716,5.6028,5.6269,5.6484,5.6609,5.6609,5.6609,5.6609,5.6609,5.6609,5.6609,5.6609,5.6609,5.6609,5.6609,5.6609,5.6609,5.6609,5.6609,5.6855,5.7207,5.7207,5.7793,5.8507,5.8507,5.8828,5.9207,5.9207,5.9207,5.9207,5.9207,5.9207,5.9207,5.9207,5.9207,5.9207,5.9207,5.9207,5.9207,5.9207,5.9207,5.9207,5.9207,5.9207,5.9266,5.9473,5.9835,6.0186,6.0372,6.0801,6.1045,6.1045,6.1045,6.1045,6.1045,6.1045,6.1162,6.1367,6.1397,6.1484,6.1689,6.1719,6.1514,6.1045,6.0607,6.0011,5.9207,5.9207,5.9207,5.9207,5.9207,5.9207,0.0,0.0,0.0,0.0,0.0,3.6675,0.0,0.0,0.0,3.9571,4.0508,4.1387,4.2519,4.2773,4.2988,4.3457,4.494,4.6677,4.8512,5.1328,5.3711,5.5111,5.5364,5.5286,5.4961,5.539,5.5879,5.6308,5.5547,5.5098,5.5176,5.4427,5.3998,5.3998,5.3998,5.4238,5.4694,5.4791,5.5176,5.5911,5.5989,5.625,5.6609,5.6609,5.6609,5.6609,5.6609,5.6609,5.6609,5.6609,5.6609,5.6609,5.6609,5.6609,5.6609,5.6609,5.6609,5.6609,5.6609,5.6797,5.709,5.709,5.7648,5.8418,5.8566,5.8887,5.9207,5.9207,5.9207,5.9207,5.9207,5.9207,5.9207,5.9207,5.9207,5.9207,5.9207,5.9207,5.9207,5.9207,5.9207,5.9207,5.9207,5.9207,5.9297,5.9648,5.9746,5.9922,6.0245,6.0342,6.0401,6.0401,6.0401,6.0401,6.0401,6.0479,6.0694,6.1074,6.1181,6.1367,6.1689,6.1631,6.1221,6.0421,6.0314,5.9922,5.9207,5.9207,5.9207,5.9207,5.9207,5.9207,0.0,0.0,0.0,0.0,3.7266,0.0,0.0,0.0,3.699,3.7539,0.0,3.8517,3.9081,0.0,0.0,4.0332,4.1816,4.3671,4.5842,4.709,4.9098,5.2631,5.3443,5.3658,5.3619,5.4361,5.5,5.541,5.4622,5.433,5.4752,5.4271,5.3998,5.3998,5.3998,5.4238,5.4694,5.5058,5.5442,5.5911,5.6328,5.6543,5.6609,5.6609,5.6609,5.6609,5.6609,5.6609,5.6609,5.6609,5.6609,5.6609,5.6609,5.6609,5.6609,5.6609,5.6609,5.6609,5.6609,5.6648,5.6687,5.6687,5.7273,5.8113,5.8887,5.9149,5.9207,5.9207,5.9207,5.9207,5.9207,5.9207,5.9207,5.9207,5.9207,5.9207,5.9207,5.9207,5.9207,5.9207,5.9207,5.9207,5.9207,5.9207,5.9207,5.9266,5.957,5.9824,5.9863,6.0186,6.0401,6.0401,6.0401,6.0401,6.0401,6.0801,6.1035,6.1094,6.1426,6.166,6.1719,6.1367,6.0947,6.0401,6.0069,5.9648,5.9207,5.9207,5.9207,5.9207,5.9207,5.9207,0.0,0.0,0.0,0.0,0.0,0.0,3.6619,0.0,3.7107,3.7266,0.0,0.0,0.0,0.0,0.0,0.0,4.0742,4.2305,4.3966,4.4687,4.6406,5.0063,5.0859,5.1523,5.2544,5.3424,5.4127,5.4505,5.3984,5.3828,5.4277,5.4115,5.3998,5.3998,5.3998,5.433,5.5039,5.5215,5.5644,5.6308,5.6504,5.6609,5.6609,5.6609,5.6609,5.6609,5.6609,5.6609,5.6609,5.6609,5.6609,5.6609,5.6609,5.6609,5.6609,5.6609,5.6609,5.6609,5.6609,5.6609,5.6687,5.7195,5.7605,5.8055,5.8934,5.9207,5.9207,5.9207,5.9207,5.9207,5.9207,5.9207,5.9207,5.9207,5.9207,5.9207,5.9207,5.9207,5.9207,5.9207,5.9207,5.9207,5.9207,5.9207,5.9207,5.9207,5.9355,5.9453,5.9453,5.959,5.9707,5.9707,5.9707,5.9805,6.0039,6.0215,6.0566,6.1064,6.1484,6.1601,6.1367,6.1191,6.0752,6.0069,5.9893,5.959,5.9207,5.9207,5.9207,5.9207,5.9207,5.9207,4.3731,0.0,0.0,0.0,0.0,0.0,0.0,0.0,0.0,0.0,3.7619,0.0,0.0,0.0,0.0,0.0,0.0,4.1211,4.2226,4.2422,4.375,4.7249,4.834,4.9469,5.1211,5.2075,5.274,5.3256,5.2793,5.2798,5.3432,5.3588,5.3705,5.3848,5.3939,5.4408,5.5293,5.5312,5.5742,5.6609,5.6609,5.6609,5.6609,5.6609,5.6609,5.6609,5.6609,5.6609,5.6609,5.6609,5.6609,5.6609,5.6609,5.6609,5.6609,5.6609,5.6609,5.6609,5.6609,5.6609,5.6726,5.7468,5.7703,5.7879,5.8758,5.9004,5.9032,5.9149,5.9207,5.9207,5.9207,5.9207,5.9207,5.9207,5.9207,5.9207,5.9207,5.9207,5.9207,5.9207,5.9207,5.9207,5.9207,5.9207,5.9207,5.9207,5.9207,5.9207,5.9207,5.9207,5.9207,5.9207,5.9207,5.9325,5.9601,5.9835,6.0332,6.1211,6.1426,6.1397,6.1122,6.0859,6.0449,5.9805,5.9687,5.9501,5.9207,5.9207,5.9207,5.9207,5.9207,5.9207,4.5607,4.4357,4.2833,4.1973,4.0469,3.8848,3.7578,0.0,3.7305,0.0,0.0,0.0,0.0,0.0,0.0,0.0,0.0,0.0,0.0,3.9864,4.0644,4.4121,4.5974,4.7673,4.941,5.0019,5.0625,5.1421,5.0742,5.0844,5.2095,5.2539,5.2949,5.3384,5.3808,5.4408,5.5293,5.5312,5.5742,5.6609,5.6609,5.6609,5.6609,5.6609,5.6609,5.6609,5.6609,5.6609,5.6609,5.6609,5.6609,5.6609,5.6609,5.6609,5.6609,5.6609,5.6609,5.6609,5.6609,5.6609,5.666,5.709,5.7199,5.7402,5.8273,5.8507,5.8625,5.9062,5.9207,5.9207,5.9207,5.9207,5.9207,5.9207,5.9207,5.9207,5.9207,5.9207,5.9207,5.9207,5.9207,5.9207,5.9207,5.9207,5.9207,5.9207,5.9207,5.9207,5.9207,5.9207,5.9207,5.9207,5.9207,5.9207,5.9207,5.9922,6.0752,6.1631,6.1328,6.1122,6.1094,6.0273,5.9824,5.9805,5.9414,5.9207,5.9207,5.9207,5.9207,5.9207,5.9207,5.9207,4.8675,4.7598,4.6269,4.5389,4.3906,4.2148,4.0312,4.0097,4.0039,0.0,0.0,0.0,0.0,0.0,0.0,0.0,0.0,0.0,0.0,3.9003,3.9434,4.1211,4.3418,4.5371,4.6836,4.7894,4.8691,4.9234,4.9043,4.9453,5.0786,5.1782,5.248,5.291,5.3627,5.4408,5.5293,5.5312,5.5742,5.6609,5.6609,5.6609,5.6609,5.6609,5.6609,5.6609,5.6609,5.6609,5.6609,5.6609,5.6609,5.6609,5.6609,5.6609,5.6609,5.6609,5.6609,5.6609,5.6609,5.6609,5.6687,5.707,5.7207,5.7356,5.8242,5.8507,5.8597,5.9062,5.9207,5.9207,5.9207,5.9207,5.9207,5.9207,5.9207,5.9207,5.9207,5.9207,5.9207,5.9207,5.9207,5.9207,5.9207,5.9207,5.9207,5.9207,5.9207,5.9207,5.9207,5.9207,5.9207,5.9207,5.9207,5.9297,5.957,6.0098,6.0518,6.0811,6.0694,6.0518,6.0245,5.9952,5.9659,5.9414,5.9266,5.9207,5.9207,5.9207,5.9207,5.9207,5.9207,5.9207,5.1113,5.0234,4.9156,4.8454,4.6989,4.5234,4.3243,4.2871,4.2617,4.1484,0.0,0.0,0.0,0.0,0.0,0.0,0.0,0.0,0.0,3.834,3.8631,3.9354,4.1562,4.3476,4.4669,4.5803,4.6621,4.7028,4.6933,4.7558,4.9183,5.0469,5.1582,5.2461,5.3633,5.459,5.5293,5.5423,5.5879,5.6609,5.6609,5.6609,5.6609,5.6609,5.6609,5.6609,5.6609,5.6609,5.6609,5.6609,5.6609,5.6609,5.6609,5.6609,5.6609,5.6609,5.6609,5.6609,5.6609,5.6609,5.6621,5.6894,5.6992,5.7129,5.7824,5.8039,5.8156,5.8769,5.8945,5.9004,5.9149,5.9207,5.9207,5.9207,5.9207,5.9207,5.9207,5.9207,5.9207,5.9207,5.9207,5.9207,5.9207,5.9207,5.9207,5.9207,5.9207,5.9207,5.9207,5.9207,5.9207,5.9207,5.9207,5.9355,5.9765,6.0039,6.0245,6.0372,6.0255,6.0069,5.9805,5.9676,5.9473,5.9207,5.9207,5.9207,5.9207,5.9207,5.9207,5.9207,5.9207,5.9207]},{"header":{"parameterUnit":"m.s-1","parameterCategory":1,"la1":30.6,"la2":29.2853,"lo1":-89.7004,"lo2":-87.6739,"dy":0.0162,"dx":0.0183,"nx":112,"ny":82,"refTime":"2026-04-03T12:00:00:Z","depth":0,"parameterNumber":3,"parameterNumberName":"V-component_of_WINDS"},"data":[0.0,0.0,0.0,0.0,0.0,0.0,0.0,0.0,0.0,0.0,0.0,0.0,0.0,0.0,0.0,0.0,0.0,0.0,0.0,0.0,0.0,0.0,0.0,0.0,0.0,0.0,0.0,0.0,0.0,0.0,0.0,0.0,0.0,0.0,0.0,0.0,0.0,0.0,0.0,0.0,0.0,0.0,0.0,0.0,0.0,0.0,0.0,0.0,0.0,0.0,0.0,0.0,0.0,0.0,0.0,0.0,0.0,0.0,0.0,0.0,0.0,0.0,0.0,0.0,0.0,0.0,0.0,0.0,0.0,0.0,0.0,0.0,0.0,0.0,0.0,0.0,0.0,0.0,0.0,0.0,0.0,0.0,0.0,0.0,0.0,0.0,0.0,0.0,0.0,0.0,0.0,4.9726,5.4533,5.6898,5.5611,5.4354,5.2169,4.8678,0.0,0.0,0.0,0.0,0.0,0.0,0.0,0.0,0.0,0.0,0.0,0.0,0.0,0.0,0.0,0.0,0.0,0.0,0.0,0.0,0.0,0.0,0.0,0.0,0.0,0.0,0.0,0.0,0.0,0.0,0.0,0.0,0.0,0.0,0.0,0.0,0.0,0.0,0.0,0.0,0.0,0.0,0.0,0.0,0.0,0.0,0.0,0.0,0.0,0.0,0.0,0.0,0.0,0.0,0.0,0.0,0.0,0.0,0.0,0.0,0.0,0.0,0.0,0.0,0.0,0.0,0.0,0.0,0.0,0.0,0.0,0.0,0.0,0.0,0.0,0.0,0.0,0.0,0.0,0.0,0.0,0.0,0.0,0.0,0.0,0.0,0.0,0.0,0.0,0.0,0.0,0.0,0.0,0.0,0.0,0.0,0.0,0.0,0.0,0.0,0.0,0.0,0.0,0.0,4.7399,5.3635,5.7004,5.8261,5.6915,5.6162,5.3857,4.9438,0.0,0.0,0.0,0.0,0.0,0.0,0.0,0.0,0.0,0.0,0.0,0.0,0.0,0.0,0.0,0.0,0.0,0.0,0.0,0.0,0.0,0.0,0.0,0.0,0.0,0.0,0.0,0.0,0.0,0.0,0.0,0.0,0.0,0.0,0.0,0.0,0.0,0.0,0.0,0.0,0.0,0.0,0.0,0.0,0.0,0.0,0.0,0.0,0.0,0.0,0.0,0.0,0.0,0.0,0.0,0.0,0.0,0.0,0.0,0.0,0.0,0.0,0.0,0.0,0.0,0.0,0.0,0.0,0.0,0.0,0.0,0.0,0.0,0.0,0.0,0.0,0.0,0.0,0.0,0.0,0.0,0.0,0.0,0.0,0.0,0.0,0.0,0.0,0.0,0.0,0.0,0.0,0.0,0.0,0.0,0.0,0.0,0.0,0.0,0.0,0.0,0.0,0.0,4.7967,5.1959,5.5384,5.7766,5.8411,5.6748,5.5354,5.2737,4.8487,4.4217,0.0,0.0,0.0,0.0,0.0,0.0,0.0,0.0,0.0,0.0,0.0,0.0,0.0,0.0,0.0,0.0,0.0,0.0,0.0,0.0,0.0,0.0,0.0,0.0,0.0,0.0,0.0,0.0,0.0,0.0,0.0,0.0,0.0,0.0,0.0,0.0,0.0,0.0,0.0,0.0,0.0,0.0,0.0,0.0,0.0,0.0,0.0,0.0,0.0,0.0,0.0,0.0,0.0,0.0,0.0,0.0,0.0,0.0,0.0,0.0,0.0,0.0,0.0,0.0,0.0,0.0,0.0,0.0,0.0,0.0,0.0,0.0,0.0,0.0,0.0,0.0,0.0,0.0,0.0,0.0,0.0,0.0,0.0,0.0,0.0,0.0,0.0,0.0,0.0,0.0,0.0,0.0,0.0,0.0,0.0,0.0,0.0,0.0,0.0,0.0,0.0,0.0,5.2486,5.585,5.6372,5.8022,5.8231,5.6132,5.4127,5.1211,4.71,4.3269,0.0,0.0,0.0,0.0,0.0,0.0,0.0,0.0,0.0,0.0,0.0,0.0,0.0,0.0,0.0,0.0,0.0,0.0,0.0,0.0,0.0,0.0,0.0,0.0,0.0,0.0,0.0,0.0,0.0,0.0,0.0,0.0,0.0,0.0,0.0,0.0,0.0,0.0,0.0,0.0,0.0,0.0,0.0,0.0,0.0,0.0,0.0,0.0,0.0,0.0,0.0,0.0,0.0,0.0,0.0,0.0,0.0,0.0,0.0,0.0,0.0,0.0,0.0,0.0,0.0,0.0,0.0,0.0,0.0,0.0,0.0,0.0,0.0,0.0,0.0,0.0,0.0,0.0,0.0,0.0,0.0,0.0,0.0,0.0,0.0,0.0,0.0,0.0,0.0,0.0,0.0,0.0,0.0,0.0,0.0,0.0,0.0,0.0,0.0,0.0,0.0,0.0,5.4089,5.6974,5.7047,5.8261,5.8052,5.5491,5.3426,5.0313,4.5734,4.2312,0.0,0.0,0.0,0.0,0.0,0.0,0.0,0.0,0.0,0.0,0.0,0.0,0.0,0.0,0.0,0.0,0.0,0.0,0.0,0.0,0.0,0.0,0.0,0.0,0.0,0.0,0.0,0.0,0.0,0.0,0.0,0.0,0.0,0.0,0.0,0.0,0.0,0.0,0.0,0.0,0.0,0.0,0.0,0.0,0.0,0.0,0.0,0.0,0.0,0.0,0.0,0.0,0.0,0.0,0.0,0.0,0.0,0.0,0.0,0.0,0.0,0.0,0.0,0.0,0.0,0.0,0.0,0.0,0.0,0.0,0.0,0.0,0.0,0.0,0.0,0.0,0.0,0.0,0.0,0.0,0.0,0.0,0.0,0.0,0.0,0.0,0.0,0.0,0.0,0.0,0.0,0.0,0.0,0.0,0.0,0.0,0.0,0.0,0.0,0.0,0.0,0.0,5.4491,5.7244,0.0,5.856,5.8052,5.5431,5.3366,5.0212,4.5574,0.0,0.0,0.0,0.0,0.0,0.0,0.0,0.0,0.0,0.0,0.0,0.0,0.0,0.0,0.0,0.0,0.0,0.0,0.0,0.0,0.0,0.0,0.0,0.0,0.0,0.0,0.0,0.0,0.0,0.0,0.0,0.0,0.0,0.0,0.0,0.0,0.0,0.0,0.0,0.0,0.0,0.0,0.0,0.0,0.0,0.0,0.0,0.0,0.0,0.0,0.0,0.0,0.0,0.0,0.0,0.0,0.0,0.0,0.0,0.0,0.0,0.0,0.0,0.0,0.0,0.0,0.0,0.0,0.0,0.0,0.0,0.0,0.0,0.0,0.0,0.0,0.0,0.0,0.0,0.0,0.0,0.0,0.0,0.0,0.0,0.0,0.0,0.0,0.0,0.0,0.0,0.0,0.0,0.0,0.0,0.0,0.0,0.0,0.0,0.0,0.0,0.0,5.1008,5.4957,5.759,0.0,5.8697,5.8141,5.573,5.3486,5.0331,4.5903,0.0,0.0,0.0,0.0,0.0,0.0,0.0,0.0,0.0,0.0,0.0,0.0,0.0,0.0,0.0,0.0,0.0,0.0,0.0,0.0,0.0,0.0,0.0,0.0,0.0,0.0,0.0,0.0,0.0,0.0,0.0,0.0,0.0,0.0,0.0,0.0,0.0,0.0,0.0,0.0,0.0,0.0,0.0,0.0,0.0,0.0,0.0,0.0,0.0,0.0,0.0,0.0,0.0,0.0,0.0,0.0,0.0,0.0,0.0,0.0,0.0,0.0,0.0,0.0,0.0,0.0,0.0,0.0,0.0,0.0,0.0,0.0,0.0,0.0,0.0,0.0,0.0,0.0,0.0,0.0,0.0,0.0,0.0,0.0,0.0,0.0,0.0,0.0,0.0,0.0,0.0,0.0,0.0,0.0,0.0,0.0,0.0,0.0,0.0,0.0,0.0,0.0,5.1708,5.5675,5.8115,5.8115,5.8726,5.8334,5.6402,5.3785,5.0559,0.0,0.0,0.0,0.0,0.0,0.0,0.0,0.0,0.0,0.0,0.0,0.0,0.0,0.0,0.0,0.0,0.0,0.0,0.0,0.0,0.0,0.0,0.0,0.0,0.0,0.0,0.0,0.0,0.0,0.0,0.0,0.0,0.0,0.0,0.0,0.0,0.0,0.0,0.0,0.0,0.0,0.0,0.0,0.0,0.0,0.0,0.0,0.0,0.0,0.0,0.0,0.0,0.0,0.0,0.0,0.0,0.0,0.0,0.0,0.0,0.0,0.0,0.0,0.0,0.0,0.0,0.0,0.0,0.0,0.0,0.0,0.0,0.0,0.0,0.0,0.0,0.0,0.0,0.0,0.0,0.0,0.0,0.0,0.0,0.0,0.0,0.0,0.0,0.0,0.0,0.0,0.0,0.0,0.0,0.0,0.0,0.0,0.0,0.0,0.0,0.0,0.0,0.0,5.2348,5.6346,5.9009,5.9458,5.9681,5.9189,5.7679,5.5568,5.2618,4.8678,0.0,0.0,0.0,0.0,0.0,0.0,0.0,0.0,0.0,0.0,0.0,0.0,0.0,0.0,0.0,0.0,0.0,0.0,0.0,0.0,0.0,0.0,0.0,0.0,0.0,0.0,0.0,0.0,0.0,0.0,0.0,0.0,0.0,0.0,0.0,0.0,0.0,0.0,0.0,0.0,0.0,0.0,0.0,0.0,0.0,0.0,0.0,0.0,0.0,0.0,0.0,0.0,0.0,0.0,0.0,0.0,0.0,0.0,0.0,0.0,0.0,0.0,0.0,0.0,0.0,0.0,0.0,0.0,0.0,0.0,0.0,0.0,0.0,0.0,0.0,0.0,0.0,0.0,0.0,0.0,0.0,0.0,0.0,0.0,0.0,0.0,0.0,0.0,0.0,0.0,0.0,0.0,0.0,0.0,0.0,0.0,0.0,0.0,0.0,0.0,0.0,0.0,5.2995,5.7034,5.9771,6.0416,6.025,5.9757,5.8979,5.7334,5.467,5.0714,0.0,0.0,0.0,0.0,0.0,0.0,0.0,0.0,0.0,0.0,0.0,0.0,0.0,0.0,0.0,0.0,0.0,0.0,0.0,0.0,0.0,0.0,0.0,0.0,0.0,0.0,0.0,0.0,0.0,0.0,0.0,0.0,0.0,0.0,0.0,0.0,0.0,0.0,0.0,0.0,0.0,0.0,0.0,0.0,0.0,0.0,0.0,0.0,0.0,0.0,0.0,0.0,0.0,0.0,0.0,0.0,0.0,0.0,0.0,0.0,0.0,0.0,0.0,0.0,0.0,0.0,0.0,0.0,0.0,0.0,0.0,0.0,0.0,0.0,0.0,0.0,0.0,0.0,0.0,0.0,0.0,0.0,0.0,0.0,0.0,0.0,0.0,0.0,0.0,0.0,0.0,0.0,0.0,0.0,0.0,0.0,0.0,0.0,0.0,0.0,0.0,0.0,5.3611,5.7752,6.0505,6.112,6.0655,6.025,6.019,5.8966,5.6543,5.2636,0.0,0.0,0.0,0.0,0.0,0.0,0.0,0.0,0.0,0.0,0.0,0.0,0.0,0.0,0.0,0.0,0.0,0.0,0.0,0.0,0.0,0.0,0.0,0.0,0.0,0.0,0.0,0.0,0.0,0.0,0.0,0.0,0.0,0.0,0.0,0.0,0.0,0.0,0.0,0.0,0.0,0.0,0.0,0.0,0.0,0.0,0.0,0.0,0.0,0.0,0.0,0.0,0.0,0.0,0.0,0.0,0.0,0.0,0.0,0.0,4.682,4.5324,0.0,0.0,0.0,0.0,0.0,0.0,0.0,0.0,0.0,0.0,0.0,0.0,0.0,0.0,0.0,0.0,0.0,0.0,0.0,0.0,0.0,0.0,0.0,0.0,0.0,0.0,0.0,0.0,0.0,0.0,0.0,0.0,0.0,0.0,0.0,0.0,0.0,0.0,0.0,0.0,5.3671,5.856,6.1732,6.1882,6.1762,6.1463,6.0924,5.9654,5.741,5.4,5.0062,0.0,0.0,0.0,0.0,0.0,0.0,0.0,0.0,0.0,0.0,0.0,0.0,0.0,0.0,0.0,0.0,0.0,0.0,0.0,0.0,0.0,0.0,0.0,0.0,0.0,0.0,0.0,0.0,0.0,0.0,0.0,0.0,0.0,0.0,0.0,0.0,0.0,0.0,0.0,0.0,0.0,0.0,0.0,0.0,0.0,0.0,0.0,0.0,0.0,0.0,0.0,0.0,0.0,0.0,0.0,0.0,0.0,0.0,0.0,5.1349,4.9404,0.0,0.0,0.0,0.0,0.0,0.0,0.0,0.0,0.0,0.0,0.0,0.0,0.0,0.0,0.0,0.0,0.0,0.0,0.0,0.0,0.0,0.0,0.0,0.0,0.0,0.0,0.0,0.0,0.0,0.0,0.0,0.0,0.0,0.0,0.0,0.0,0.0,0.0,0.0,0.0,5.4623,5.9219,6.2211,6.2555,6.2285,6.1972,6.1613,6.0356,5.8334,5.5341,5.1708,0.0,0.0,0.0,0.0,0.0,0.0,0.0,0.0,0.0,0.0,0.0,0.0,0.0,0.0,0.0,0.0,0.0,0.0,0.0,0.0,0.0,0.0,0.0,0.0,0.0,0.0,0.0,0.0,0.0,0.0,0.0,0.0,0.0,0.0,0.0,0.0,0.0,0.0,0.0,0.0,0.0,0.0,0.0,0.0,0.0,0.0,0.0,0.0,0.0,0.0,0.0,0.0,0.0,5.9311,5.9714,6.0475,6.0475,6.0475,6.0296,5.7137,5.5132,5.4024,5.3593,0.0,0.0,0.0,0.0,0.0,0.0,0.0,0.0,0.0,0.0,0.0,0.0,0.0,0.0,0.0,0.0,0.0,0.0,0.0,0.0,0.0,0.0,5.5688,5.6107,5.6419,5.5341,5.084,0.0,0.0,0.0,0.0,0.0,0.0,0.0,0.0,0.0,0.0,0.0,5.594,6.01,6.281,6.3363,6.2929,6.251,6.2301,6.1268,5.9442,5.6688,5.3713,5.0589,0.0,0.0,0.0,0.0,0.0,0.0,0.0,0.0,0.0,0.0,0.0,0.0,0.0,0.0,0.0,0.0,0.0,0.0,0.0,0.0,0.0,0.0,0.0,0.0,0.0,0.0,0.0,0.0,0.0,0.0,0.0,0.0,4.9127,5.041,0.0,0.0,0.0,0.0,0.0,0.0,0.0,0.0,0.0,0.0,0.0,0.0,0.0,5.7377,5.9292,6.0655,6.2257,6.4097,6.4097,6.474,6.5967,6.5967,6.5967,6.5967,6.6026,0.0,5.7487,5.7992,0.0,0.0,0.0,0.0,0.0,0.0,0.0,0.0,0.0,0.0,0.0,0.0,0.0,0.0,0.0,0.0,0.0,0.0,0.0,0.0,0.0,0.0,6.0924,6.0432,6.1194,6.1716,6.0429,5.6915,5.3473,5.1648,4.9726,4.76,0.0,0.0,0.0,0.0,0.0,0.0,5.732,6.1794,6.4635,6.4725,6.4665,6.4171,6.3063,6.2808,6.1327,5.8068,5.6419,5.4054,5.0697,4.8416,0.0,0.0,0.0,0.0,0.0,0.0,0.0,0.0,0.0,0.0,0.0,0.0,0.0,0.0,0.0,0.0,0.0,0.0,0.0,0.0,0.0,0.0,0.0,0.0,0.0,0.0,0.0,0.0,0.0,4.9954,5.2139,5.2306,5.2384,5.2133,0.0,0.0,0.0,0.0,0.0,0.0,0.0,0.0,0.0,5.7915,6.0296,6.2316,6.3961,6.6011,6.7851,6.9437,6.9826,7.05,7.1444,7.1444,7.1444,7.1474,7.2162,7.0141,6.6206,6.3513,6.1104,5.883,0.0,0.0,0.0,0.0,5.6944,5.8218,5.9292,5.9202,5.853,5.7872,0.0,0.0,0.0,0.0,0.0,0.0,0.0,5.6436,5.8441,6.1343,6.3752,6.3842,6.4306,6.4635,6.4366,6.2406,5.9893,5.7154,5.4473,5.1869,4.9595,4.6691,0.0,0.0,0.0,5.5179,5.877,6.2616,6.4994,6.4994,6.4994,6.4755,6.4216,6.3512,6.2315,6.0462,5.877,5.6825,5.461,5.2288,4.9972,0.0,0.0,0.0,0.0,0.0,0.0,0.0,0.0,0.0,0.0,0.0,0.0,0.0,0.0,0.0,0.0,0.0,0.0,0.0,0.0,0.0,0.0,0.0,0.0,0.0,0.0,0.0,0.0,5.3384,5.5329,5.5012,5.5568,5.5436,0.0,0.0,0.0,0.0,0.0,0.0,5.8394,5.9817,6.1074,6.2076,6.4665,6.6654,6.7986,7.026,7.2069,7.3432,7.4091,7.4749,7.5395,7.5395,7.5395,7.5407,7.5916,7.5108,7.3073,6.8778,6.5757,6.3617,6.109,6.0521,6.1104,6.0924,6.1808,6.3304,6.465,6.468,6.4066,6.3737,6.1778,5.9235,5.7304,0.0,0.0,0.0,0.0,6.0043,6.1868,6.4171,6.6146,6.667,6.6909,6.6969,6.6804,6.6236,6.48,6.1507,5.8634,5.6017,5.3832,5.102,0.0,0.0,0.0,5.7347,6.0459,6.3588,6.5518,6.5518,6.5518,6.5458,6.5263,6.4395,6.3422,6.2435,6.0954,5.9442,5.7945,5.582,5.3683,5.1535,0.0,0.0,0.0,0.0,0.0,0.0,0.0,0.0,0.0,0.0,0.0,0.0,0.0,0.0,0.0,0.0,0.0,0.0,0.0,0.0,0.0,0.0,0.0,0.0,0.0,0.0,0.0,0.0,0.0,5.9681,6.0356,0.0,0.0,0.0,0.0,5.9591,6.0416,6.1898,6.4426,6.4635,6.5577,6.7538,6.8391,6.9423,7.0679,7.2099,7.3462,7.4796,7.5467,7.6108,7.6706,7.6706,7.6706,7.6706,7.6719,7.5988,7.4676,7.3133,7.0962,6.8465,6.64,6.6011,6.652,6.5892,6.6909,6.8794,7.0081,7.0111,6.9678,7.0231,6.7358,6.3348,6.1389,6.0296,0.0,0.0,6.2167,6.4006,6.5413,6.7268,6.8824,6.8854,6.9349,6.9618,6.8974,6.8331,6.688,6.3587,6.1792,5.9953,5.7304,0.0,5.4341,5.5743,5.7646,5.9877,6.2584,6.5248,6.6894,6.6894,6.6894,6.664,6.5996,6.5877,6.5054,6.3168,6.2944,6.2016,6.004,5.9219,5.7603,5.4999,5.2294,0.0,0.0,0.0,0.0,0.0,0.0,0.0,0.0,0.0,0.0,0.0,0.0,0.0,0.0,0.0,0.0,0.0,0.0,0.0,0.0,0.0,0.0,0.0,0.0,0.0,0.0,0.0,0.0,6.3154,6.4605,0.0,6.3677,6.2735,6.2855,6.4425,6.5967,6.7388,6.8719,7.0005,7.1068,7.1773,7.2864,7.3672,7.4121,7.539,7.6305,7.6784,7.7442,7.7861,7.81,7.81,7.81,7.81,7.81,7.7592,7.6724,7.6228,7.4001,7.0709,6.9153,6.8944,6.9482,6.9243,6.9871,7.1055,7.2355,7.2415,7.1757,7.1128,6.896,6.6356,6.5233,6.4126,6.3393,6.4052,6.5054,6.6146,6.7044,6.8451,6.9648,6.9648,6.9828,6.9917,6.9708,6.878,6.7658,6.6491,6.4814,6.3034,6.1268,5.9668,5.8936,5.9861,6.0938,6.2315,6.4082,6.5892,6.7014,6.7014,6.7014,6.6894,6.667,6.6251,6.5697,6.5024,6.4171,6.3363,6.263,6.1583,5.9967,5.7752,5.5119,5.1947,0.0,0.0,0.0,0.0,0.0,0.0,0.0,0.0,0.0,0.0,0.0,0.0,0.0,0.0,0.0,0.0,0.0,0.0,0.0,0.0,0.0,0.0,0.0,0.0,0.0,6.2774,6.5937,6.6747,6.8513,6.9139,6.7761,6.7253,6.7432,6.8571,7.0097,7.1338,7.2206,7.3492,7.4257,7.4257,7.5318,7.5916,7.5916,7.7173,7.7801,7.7813,7.846,7.8807,7.8807,7.8807,7.8807,7.8807,7.8807,7.843,7.7801,7.7801,7.6125,7.3462,7.2385,7.2102,7.2265,7.2505,7.2864,7.3373,7.427,7.442,7.3954,7.2415,7.1055,6.9858,6.9183,6.836,6.7761,6.821,6.8645,6.9093,6.9528,7.0306,7.0995,7.0995,7.0995,7.0935,7.0696,6.9604,6.8616,6.8391,6.6729,6.5009,6.3917,6.281,6.2241,6.266,6.3318,6.4126,6.5218,6.6311,6.7014,6.7014,6.7014,6.7014,6.7014,6.64,6.5906,6.5667,6.4635,6.3917,6.3707,6.2884,6.1507,5.9488,5.5987,5.2348,4.8618,0.0,0.0,0.0,0.0,0.0,0.0,0.0,0.0,0.0,0.0,0.0,0.0,0.0,0.0,0.0,0.0,0.0,0.0,0.0,0.0,0.0,0.0,0.0,6.257,6.6335,6.9471,7.052,7.206,7.2518,7.1218,7.1098,7.1368,7.2013,7.2684,7.3612,7.4886,7.4946,7.4946,7.4946,7.5587,7.5946,7.5976,7.7185,7.7831,7.7861,7.8489,7.8807,7.8807,7.8807,7.8807,7.8807,7.8807,7.843,7.7831,7.7831,7.7424,7.6766,7.6168,7.5527,7.5035,7.5677,7.5929,7.5976,7.5946,7.6317,7.6497,7.4599,7.3941,7.3762,7.3086,7.2877,7.2847,7.2847,7.2847,7.2847,7.2847,7.2847,7.2877,7.2877,7.2877,7.2714,7.2042,7.0905,6.9798,6.9153,6.7402,6.5847,6.5218,6.456,6.4156,6.4156,6.471,0.0,6.5996,6.667,6.7074,6.7074,6.7074,6.7059,6.7029,6.643,6.5757,6.5084,6.4351,6.3722,6.3123,6.3078,6.2106,6.01,5.494,5.069,4.7429,0.0,0.0,0.0,0.0,0.0,0.0,0.0,0.0,0.0,0.0,0.0,0.0,0.0,0.0,0.0,0.0,0.0,0.0,0.0,0.0,0.0,6.5189,6.7177,6.6941,7.0354,7.3198,7.3955,7.5488,7.6108,7.527,7.5629,7.5779,7.548,7.6078,7.6407,7.6288,7.6288,7.6288,7.6288,7.6467,7.6796,7.7275,7.81,7.8519,7.8519,7.8699,7.8807,7.8807,7.8807,7.8807,7.8807,7.8807,7.8699,7.8519,7.8519,7.813,7.7454,7.6826,7.6437,7.6288,7.6497,7.6856,7.7203,7.6706,7.6659,7.6647,7.5677,7.4689,7.3762,7.3086,7.2565,7.2056,7.1607,7.1457,7.1457,7.1457,7.1816,7.2176,7.2176,7.2565,7.2714,7.2042,7.0859,6.9901,6.9768,6.8481,6.7373,6.7224,6.7418,6.7627,6.7627,6.7761,6.7971,6.8166,6.8345,6.8435,6.8435,6.8435,6.8256,6.7762,6.7104,6.643,6.5757,6.4231,6.3273,6.3108,6.2644,6.1447,5.9398,5.6077,5.2965,0.0,0.0,0.0,0.0,0.0,0.0,0.0,0.0,0.0,0.0,0.0,0.0,0.0,0.0,0.0,0.0,0.0,0.0,0.0,0.0,0.0,0.0,7.0405,7.3165,7.3909,7.5188,7.6385,7.723,7.8121,7.836,7.754,7.792,7.7951,7.7275,7.7574,7.7634,7.7245,7.6946,7.6779,7.6779,7.6779,7.7125,7.7801,7.846,7.8807,7.8807,7.8807,7.8807,7.8807,7.8807,7.8807,7.8807,7.8807,7.8807,7.8807,7.8807,7.8579,7.816,0.0,0.0,0.0,0.0,7.7634,7.813,7.7454,7.7035,7.6706,7.6096,7.5168,7.418,7.3522,7.2864,7.2176,7.1517,7.1128,7.0949,7.1248,7.1816,7.2385,7.2671,7.3253,7.3552,7.2864,7.1457,7.0334,7.038,6.9319,0.0,6.8796,6.893,6.9051,6.9179,6.932,6.9461,6.9601,6.9756,6.985,6.985,6.985,6.9577,6.8865,6.8168,0.0,0.0,0.0,6.3666,6.3108,6.2465,0.0,0.0,0.0,0.0,0.0,0.0,0.0,0.0,5.1031,5.2516,0.0,0.0,0.0,0.0,0.0,0.0,0.0,0.0,0.0,0.0,0.0,0.0,0.0,0.0,0.0,0.0,7.5506,7.9187,8.1483,8.0435,7.9709,8.0414,8.0405,7.9923,7.8864,7.8836,7.8639,7.7981,7.7921,7.7891,7.7801,7.7155,0.0,0.0,0.0,7.7125,7.7801,7.846,7.8807,7.8807,7.8807,7.8807,7.8807,7.8807,7.8807,7.8807,7.8807,7.8807,7.8807,7.8807,7.8807,7.8747,7.816,7.7544,7.7095,7.7694,7.828,7.8699,7.813,0.0,0.0,7.6288,7.5647,7.4976,7.4257,7.3612,7.2984,7.2272,7.1675,7.1394,7.2027,7.272,7.3397,7.4014,7.4645,7.4962,7.4284,7.2693,7.1372,7.1372,7.0321,6.966,7.0337,6.9773,6.934,6.9719,7.0109,7.0495,7.0863,7.1288,7.1513,7.1513,7.1575,0.0,7.0494,6.9888,6.9076,6.7974,6.6176,6.4596,6.3362,6.2614,6.2002,6.1539,6.0296,5.9099,5.7992,5.8667,5.9012,5.9056,5.6944,5.7616,0.0,0.0,0.0,0.0,0.0,0.0,0.0,0.0,0.0,0.0,0.0,0.0,0.0,0.0,0.0,7.4322,7.8124,8.1358,8.3396,8.4907,8.5318,8.3866,8.3171,8.2283,8.1016,8.0122,7.9327,7.8639,7.8609,7.837,7.7831,7.7155,7.6779,7.6779,7.6779,7.7125,7.7801,7.846,7.8807,7.8807,7.8807,0.0,7.8807,7.8807,7.8807,7.8807,7.8807,7.8807,7.8807,7.8807,7.8807,7.8807,7.8639,7.8519,7.843,7.8549,7.8687,7.8759,7.8639,7.816,7.7574,7.7472,7.6976,7.6228,7.5065,7.4616,0.0,7.3363,7.3255,7.3505,7.3886,7.468,7.5411,7.5565,7.6116,7.6422,7.5748,7.4876,7.4202,7.4202,7.313,7.2441,7.3115,7.1722,7.0739,7.1347,7.2134,7.2843,7.3388,7.4208,7.4704,7.4704,7.5227,7.5083,7.3796,7.3614,7.2824,7.1039,6.7957,6.5735,6.4694,6.3528,6.3318,6.4216,6.3453,6.3184,6.3469,6.4141,6.474,6.5203,6.2195,6.1642,0.0,0.0,0.0,0.0,0.0,0.0,0.0,0.0,0.0,0.0,0.0,6.6654,6.962,0.0,7.5067,7.8022,8.1033,8.3721,8.5803,8.8053,8.8443,8.5703,8.4914,8.3915,8.2227,8.1345,8.078,8.0464,8.0434,8.0452,8.0469,7.9832,7.9513,7.9635,7.9138,7.9141,7.9587,7.9718,7.9806,7.9806,7.9806,7.9806,7.9806,7.9806,7.9806,7.9806,7.9806,7.9806,7.9806,7.9806,7.9806,7.9806,7.9806,7.9387,7.8807,7.8807,7.8807,7.8807,7.8807,7.837,7.7801,7.7801,7.7365,7.6617,7.5677,7.5155,7.4796,7.4328,7.4459,7.4953,7.5818,7.676,7.7527,7.7873,7.8172,7.8297,7.7983,7.7355,7.6915,7.6915,7.5768,7.4951,7.5296,7.4186,7.3215,7.3139,7.3781,7.4546,7.5356,7.6135,7.6603,7.6603,7.6927,7.6714,7.564,7.4984,7.388,7.2115,7.0073,6.8386,6.7057,6.6373,6.6343,6.6997,6.6677,6.6677,6.6982,6.7501,6.7835,6.7954,6.6839,6.6537,0.0,0.0,0.0,0.0,0.0,0.0,0.0,0.0,6.3419,6.5662,6.8842,7.1898,7.3996,7.6229,7.8631,8.1304,8.3625,8.579,8.7719,8.9884,9.0167,8.7056,8.6319,8.5351,8.3563,8.2778,8.2458,8.2679,8.2679,8.2976,8.3676,8.3196,8.2957,8.3005,8.2018,8.1549,8.1619,8.107,8.0794,8.0794,8.0794,8.0794,8.0794,8.0794,8.0794,8.0794,8.0794,8.0794,8.0794,8.0794,8.0794,8.0794,8.0794,8.0135,7.9178,7.9178,7.9178,7.9166,7.9118,7.8801,7.8392,7.8343,7.7993,7.7505,7.689,7.6336,7.5921,7.6047,7.6399,7.6995,7.8326,7.9296,8.0056,8.0608,8.0661,8.0648,8.0648,8.021,7.979,7.9661,7.8584,7.7669,7.7508,7.6914,7.605,7.4921,7.5298,7.6049,7.699,7.77,7.8114,7.8114,7.8227,7.8141,7.766,7.6588,7.5254,7.3609,7.291,7.1789,7.0179,6.9948,6.9948,7.0104,7.0104,7.0166,7.0276,7.045,7.0279,6.987,7.0683,7.0725,5.4059,5.6765,6.0994,6.3294,6.5392,6.6914,0.0,0.0,6.8876,7.1075,7.3409,7.5586,7.721,7.9308,8.1338,8.2983,8.5182,8.6961,8.7854,8.9884,9.0558,8.8554,8.7786,8.7067,8.6218,8.47,8.4055,8.471,8.4742,8.5077,8.5796,8.578,8.548,8.4919,8.3798,8.2939,8.2377,8.1334,8.0794,8.0794,8.0794,8.0794,8.0794,8.0794,8.0794,8.0794,8.0794,8.0794,8.0794,8.0794,8.0794,8.0794,8.0794,8.0704,8.0584,8.0584,8.0584,8.055,8.0309,8.0369,8.0497,8.0273,8.0361,8.0407,7.9731,7.9486,7.9509,7.9863,8.0409,8.1172,8.2216,8.2993,8.3549,8.3599,8.3617,8.3617,8.3617,8.3552,8.3323,8.2672,8.1869,8.1116,8.0466,7.978,7.8652,7.6656,7.706,7.7861,7.8578,7.9386,7.9908,7.9908,8.0482,8.1135,8.1695,8.1162,8.0093,7.8344,7.7189,7.5783,7.4051,7.3398,7.3366,7.3944,7.3976,7.4281,7.4858,7.4372,7.3678,7.2829,7.3008,7.226,5.7814,6.0216,6.3869,6.6542,6.9214,7.1289,7.1706,7.2766,7.4153,7.5934,7.8416,8.0445,8.1088,8.2306,8.3592,8.4654,8.5993,8.7313,8.8477,8.9816,9.0213,8.9038,8.7882,8.7129,8.6962,8.5923,8.5764,8.6883,8.737,8.7922,8.8668,8.8701,8.8376,8.7668,8.6561,8.5648,8.494,8.384,8.3289,8.3289,8.3289,8.3289,8.3289,8.3289,8.3289,8.3289,8.3289,8.3289,8.3289,8.3289,8.3289,8.3289,8.3289,8.3289,8.3088,8.1414,8.0794,8.0796,8.0725,8.1157,8.1765,8.169,8.2153,8.2692,8.2408,8.2314,8.2431,8.3052,8.381,8.4661,8.5481,8.6029,8.6369,8.6369,8.6035,8.572,8.572,8.572,8.5653,8.5338,8.4303,8.3368,8.3053,8.2065,8.1016,8.0121,7.9859,7.9981,8.0607,8.1151,8.1481,8.1481,8.1765,8.2069,8.2361,8.2042,8.1371,8.0297,7.9603,7.8755,7.7654,7.7347,7.7347,7.7625,7.7625,7.7741,7.8052,7.726,7.6225,7.5027,7.4559,7.3931,6.1231,6.3531,6.6576,6.9553,7.2541,7.4943,7.5664,7.6847,7.8179,7.9418,8.1562,8.3253,8.3456,8.4086,8.4931,8.5926,8.7076,8.8178,8.9255,9.0222,9.0459,8.9526,8.8091,8.727,8.7427,8.698,8.7375,8.8995,8.9803,9.0564,9.1324,9.1357,9.1043,9.0307,8.9232,8.8315,8.7583,8.6504,8.597,8.597,8.597,8.597,8.597,8.597,8.597,8.597,8.597,8.597,8.597,8.597,8.597,8.597,8.597,8.597,8.569,8.3611,8.2474,8.2006,8.2163,8.2686,8.331,8.3475,8.4042,8.4633,8.4842,8.4906,8.5113,8.6048,8.6837,8.7609,8.8331,8.8722,8.8869,8.8666,8.8178,8.7739,8.755,8.7516,8.7448,8.7231,8.6318,8.5473,8.5256,8.4356,8.3646,8.3646,8.3087,8.2543,8.2156,8.2277,8.2395,8.2395,8.2564,8.2699,8.2699,8.2718,8.2441,8.1786,8.157,8.1205,8.0534,8.0521,8.0521,8.0521,8.0521,8.0521,8.0507,7.9508,7.823,7.667,7.6072,7.5477,6.3497,6.6677,6.9654,7.2642,7.562,7.8056,7.8809,7.9566,8.031,8.1067,8.1866,8.2631,8.3355,8.4086,8.5087,8.6623,8.8686,9.0106,9.014,9.1425,9.1798,9.0343,8.8869,8.7975,8.7982,8.7954,8.8852,9.1049,9.188,9.2657,9.3464,9.3497,9.3216,9.2535,9.1401,9.0482,8.9822,8.8671,8.8119,8.8119,8.8119,8.8119,8.8119,8.8119,8.8119,8.8119,8.8119,8.8119,8.8119,8.8119,8.8119,8.8119,8.8119,8.8119,8.8102,8.8005,8.6711,8.5017,8.541,8.5535,8.558,8.605,8.6161,8.6263,8.6981,8.7193,8.7496,8.8865,8.9537,8.9943,9.0632,9.1006,9.1,9.029,9.0106,8.9918,8.9187,8.9018,8.8815,8.8091,8.7922,8.7685,8.6961,8.6792,8.6758,8.6758,8.673,8.5682,8.2754,8.2395,8.2395,8.2395,8.305,8.3456,8.3456,8.4106,8.4194,8.3451,8.3417,8.3099,8.235,8.233,8.233,8.233,8.233,8.233,8.2317,8.1168,7.9603,7.7649,7.7764,7.6775,6.5178,6.8977,7.2609,7.5146,7.7988,8.0255,8.0492,8.19,8.2902,8.2171,8.2611,8.3219,8.3456,8.4086,8.5087,8.6656,8.8753,9.0208,9.0208,9.1068,9.1135,8.9661,8.8158,8.7279,8.7279,8.7719,8.8497,8.9763,9.1425,9.2508,9.2778,9.3315,9.3394,9.2961,9.2102,9.1401,9.0961,9.013,8.9724,8.9724,8.9724,8.9724,8.9724,8.9724,8.9724,8.9724,8.9724,8.9724,8.9724,8.9724,8.9724,8.9724,8.9724,8.9724,8.9724,8.9724,8.9265,8.857,8.7699,8.7809,8.837,8.8626,8.9099,8.9634,8.9883,8.995,9.0061,9.0535,9.0734,9.0866,9.1103,9.1233,9.1237,9.1,9.0932,9.0729,8.9985,8.9816,8.9613,8.8883,8.8342,8.7922,8.7685,8.7231,8.6893,8.6893,8.6893,8.6521,8.5506,8.5405,8.5405,8.5405,8.5608,8.5743,8.5743,8.598,8.6014,8.5777,8.5743,8.5642,8.5405,8.5405,8.5405,8.5405,8.5405,8.5405,8.5371,8.4367,8.2963,8.1195,8.0616,7.96,6.7614,7.1684,7.5518,7.7266,7.9701,8.1765,8.2014,8.3186,8.3849,8.2665,8.2171,8.2002,8.2272,8.2699,8.3714,8.5743,8.8415,9.0275,9.056,9.1474,9.1556,9.0067,8.8835,8.7874,8.7347,8.7482,8.7922,8.8646,9.0527,9.173,9.2,9.303,9.3497,9.329,9.2804,9.2486,9.224,9.1809,9.1607,9.1607,9.1607,9.1607,9.1607,9.1607,9.1607,9.1607,9.1607,9.1607,9.1607,9.1607,9.1773,9.2005,9.2005,9.2171,9.2403,9.2403,9.2403,9.2112,9.0139,8.9723,9.0191,9.0544,9.094,9.1338,9.1609,9.1711,9.1744,9.2029,9.2131,9.2131,9.2131,9.2131,9.2049,9.1744,9.1711,9.1508,9.0763,9.0391,9.0053,8.9579,8.8917,8.8409,8.8409,8.7989,8.7786,8.8043,8.784,8.7516,8.6961,8.6893,8.6893,8.6893,8.6893,8.6893,8.6893,8.6893,8.6893,8.6893,8.6893,8.6893,8.6893,8.6893,8.6893,8.6893,8.6893,8.6893,8.6893,8.6083,8.4941,8.3496,8.2905,8.2079,7.0725,7.4796,7.8394,7.9147,8.0974,8.2746,8.3422,8.3592,8.3355,8.2462,8.05,7.9147,0.0,8.0006,8.1021,8.4005,8.7705,9.0459,9.1203,9.2605,9.3011,0.0,0.0,0.0,0.0,0.0,8.7198,8.7955,8.9376,9.0512,9.1271,9.2774,9.3586,9.3586,9.3586,9.3586,9.3586,9.3586,9.3586,9.3586,9.3586,9.3586,9.3586,9.3586,9.3586,9.3586,9.3586,9.3586,9.3586,9.3586,9.4011,9.4706,9.4706,9.5161,9.5804,9.5804,9.5804,9.5401,9.2671,9.1474,9.1275,9.1976,9.1869,9.1643,9.2339,9.2527,9.2677,9.3417,9.3586,9.3586,9.3586,9.3586,9.3417,9.2643,9.2474,9.2271,9.1508,9.0831,9.0309,9.0242,8.9681,8.9221,8.9221,8.9221,8.9458,9.0154,8.9627,8.8646,8.7231,8.7028,8.6995,8.6995,8.6995,8.6995,8.6995,8.6995,8.7028,8.7062,8.7062,8.7096,8.713,8.713,8.713,8.713,8.713,8.713,8.713,8.6542,8.5687,8.4672,8.4742,8.4211,7.3781,7.7874,8.146,8.2205,8.3672,8.4823,8.4424,8.4776,8.4383,8.1393,7.8517,7.6623,7.6792,7.7333,7.8889,8.2395,8.7028,9.0459,9.1203,9.2116,0.0,9.217,0.0,8.985,8.8917,8.7651,8.7198,8.7955,8.9376,9.0512,9.1271,9.2774,9.3586,9.3586,9.3586,9.3586,9.3586,9.3586,9.3586,9.3586,9.3586,9.3586,9.3586,9.3586,9.3586,9.3586,9.3586,9.3586,9.3586,9.3586,9.4011,9.4706,9.4706,9.5161,9.5804,9.5804,9.5804,9.5691,9.4968,9.4638,9.4594,9.4759,9.4763,9.4586,9.4199,9.4098,9.403,9.3687,9.3586,9.3586,9.3586,9.3586,9.3552,9.3349,9.33,9.3064,9.2271,9.1967,9.1696,9.1135,9.0865,9.0744,9.0744,9.0744,9.0797,9.1,9.0391,8.9782,8.9396,8.8869,8.8545,8.8545,8.8545,8.8545,8.8545,8.8545,8.8767,8.9328,8.9362,8.9613,9.0154,9.0188,9.0188,9.0188,9.0188,9.0188,9.0188,8.9817,8.9247,8.8501,8.828,8.7748,7.6589,7.9972,8.2983,8.3389,8.4403,8.4979,8.3883,8.3727,8.2759,7.8991,7.5845,7.3883,7.4187,7.4897,7.6724,8.0784,8.5824,8.9478,9.0236,9.1237,9.1798,0.0,9.0715,0.0,8.9613,8.8835,8.8652,8.9376,8.9613,9.0188,9.1237,9.3064,9.4079,9.4079,9.4398,9.4567,9.4567,9.4567,9.4567,9.4567,9.4567,9.4567,9.4567,9.4567,9.4567,9.4567,9.4567,9.4567,9.4567,9.4567,9.5007,9.5669,9.5669,9.6108,9.6785,9.6785,9.6785,9.6785,9.6785,9.6785,9.665,9.6007,9.5804,9.5702,9.5296,9.4958,9.4605,9.4214,9.3857,9.3586,9.3586,9.3586,9.3586,9.3586,9.3586,9.3484,9.303,9.2643,9.217,9.144,9.1305,9.1305,9.1305,9.1305,9.1406,9.173,9.1169,9.0696,9.0696,9.0053,8.9579,8.9579,8.9864,8.9932,8.9627,8.9898,9.0087,9.0174,9.0478,9.0865,9.1271,9.1305,9.1305,9.1305,9.1305,9.1305,9.1305,9.1146,9.0885,9.05,9.0322,9.0021,7.9317,8.1765,8.393,8.3828,8.4356,8.4444,8.2665,8.1528,7.9781,7.6048,7.2755,7.0827,7.1785,7.271,7.4808,7.9329,8.4437,8.8158,8.8984,9.0202,9.0831,9.0377,9.0242,9.0242,9.0357,9.0527,9.0932,9.1541,9.0507,9.0372,9.1541,9.3571,9.474,9.4842,9.5466,9.5804,9.5804,9.5804,9.5804,9.5804,9.5804,9.5804,9.5804,9.5804,9.5804,9.5804,9.5804,9.5804,9.5804,9.5804,9.6225,9.6902,9.6902,9.736,9.7987,9.7987,9.7987,9.7987,9.7987,9.7987,9.7784,9.6514,9.6074,9.6074,9.5973,9.5499,9.4977,9.489,9.4383,9.389,9.389,9.389,9.389,9.389,9.389,9.389,9.389,9.3334,9.2643,9.2015,9.1812,9.1744,9.1744,9.1677,9.1812,9.2474,9.1899,9.144,9.144,9.0797,9.0309,9.0208,9.0865,9.1034,9.0377,9.0932,9.1068,9.0512,9.1102,9.1474,9.1609,9.1623,9.1623,9.1623,9.1623,9.1623,9.1623,9.1623,9.1623,9.1623,9.1623,9.1623,8.2509,8.4505,8.6163,8.5567,8.596,8.5608,8.2251,7.9984,0.0,7.3747,6.962,6.7297,6.9316,7.1278,7.4052,7.8572,8.368,8.755,8.8917,8.9323,8.9898,0.0,9.056,9.0459,9.1034,9.2252,9.3078,9.318,9.3537,9.3571,9.3214,9.4146,9.4992,9.5601,9.5736,9.5804,9.5804,9.5804,9.5804,9.5804,9.5804,9.5804,9.5804,9.5804,9.5804,9.5804,9.5804,9.5804,9.5804,9.5804,9.6225,9.6902,9.6902,9.736,9.7987,9.7987,9.7987,9.7987,9.7987,9.7987,9.7953,9.7698,9.7631,9.7495,9.6902,9.6631,9.6394,9.577,9.5499,9.5413,9.5413,9.5413,9.5413,9.5413,9.5413,9.5413,9.5413,9.5296,9.5161,9.5026,9.4518,9.4112,9.4112,9.3605,9.3248,9.3383,9.2725,9.2203,9.2203,9.1575,9.0865,9.0275,9.0865,9.1237,9.1102,9.1237,9.1508,9.2,9.2136,9.2508,9.318,9.3214,9.3214,9.3214,9.3214,9.3214,9.3214,9.3214,9.3214,9.3214,9.3214,9.3214,8.4471,8.579,8.6724,8.5973,8.5452,8.4167,8.0424,0.0,0.0,7.0838,6.7421,6.5696,6.7546,6.9417,7.2157,7.6623,8.1414,8.5067,8.6569,8.7448,8.8361,8.9444,8.9613,9.0222,9.173,9.3267,9.4315,9.4736,9.506,9.5127,9.477,9.5432,9.6176,9.692,9.6954,9.6954,9.6954,9.6954,9.6954,9.6954,9.6954,9.6954,9.6954,9.6954,9.6954,9.6954,9.6954,9.6954,9.6954,9.6954,9.7157,9.7461,9.7461,9.7698,9.7987,9.7987,9.7987,9.7987,9.7987,9.7987,9.7987,9.7987,9.7987,9.792,9.7563,9.7206,9.6834,9.6462,9.609,9.5804,9.5804,9.5804,9.5804,9.5804,9.5804,9.5804,9.5804,9.5804,9.5804,9.5804,9.5195,9.4706,9.4706,9.4079,9.3586,9.3586,9.3267,9.288,9.2459,9.2455,9.2184,9.1425,9.2049,9.2319,9.1913,9.2252,9.2455,9.2392,9.2778,9.3368,9.4146,9.418,9.4349,9.4736,9.4736,9.4736,9.4736,9.4736,9.4736,9.4736,9.4736,9.4736,8.6311,8.7144,8.755,8.6345,8.489,8.2644,7.8462,7.4943,7.1594,6.8132,6.5527,6.44,6.6024,6.758,7.0026,7.4289,7.8619,8.209,8.3883,8.5439,8.6859,8.8091,8.8883,9.0188,9.244,9.418,9.5398,9.5988,9.6176,9.621,9.6056,9.6732,9.7394,9.7987,9.7987,9.7987,9.7987,9.7987,9.7987,9.7987,9.7987,9.7987,9.7987,9.7987,9.7987,9.7987,9.7987,9.7987,9.7987,9.7987,9.7987,9.7987,9.7987,9.7987,9.7987,9.7987,9.7987,9.7987,9.7987,9.7987,9.7987,9.7987,9.7987,9.7987,9.7987,9.7597,9.7138,9.7138,9.6732,9.6277,9.6277,9.6277,9.6277,9.6277,9.6277,9.6277,9.6277,9.6277,9.6277,9.6277,9.5669,9.5161,9.5161,9.4552,9.406,9.406,9.406,9.3857,9.3218,9.3673,9.3808,9.3184,9.3402,9.3349,9.2711,9.3233,9.3334,9.2711,9.3402,9.4112,9.4687,9.4842,9.5229,9.577,9.5804,9.5804,9.5804,9.5804,9.5804,9.5804,9.5804,9.5804,8.8578,8.983,9.0222,8.7468,8.5642,8.3003,7.7232,7.2597,6.8808,6.6383,6.3599,6.2245,6.441,6.6024,6.8256,7.209,7.5924,7.9409,8.2192,8.3883,8.5845,8.868,8.9647,9.1,9.3281,9.5447,9.6732,9.68,9.7428,9.7495,9.6834,9.7495,9.792,9.7987,9.7987,9.7987,9.7987,9.7987,9.7987,9.7987,9.7987,9.7987,9.7987,9.7987,9.7987,9.7987,9.7987,9.7987,9.7987,9.7987,9.7987,9.7987,9.7987,9.7987,9.7987,9.7987,9.7987,9.7987,9.7987,9.7987,9.7987,9.7987,9.7987,9.7987,9.7987,9.7953,9.7901,9.7901,9.7867,9.78,9.78,9.78,9.78,9.78,9.78,9.78,9.78,9.78,9.78,9.78,9.7191,9.6699,9.6699,9.609,9.5601,9.5601,9.5601,9.5567,9.5499,9.5533,9.5567,9.5499,9.4364,9.3586,9.3484,9.3552,9.3552,9.3484,9.418,9.4639,9.4706,9.533,9.5736,9.5804,9.5804,9.5804,9.5804,9.5804,9.5804,9.5804,9.5804,9.5804,8.8646,9.0169,9.0594,8.7637,8.5067,8.182,7.6306,7.1571,6.7726,6.5493,6.3406,6.2381,6.369,6.4772,6.6711,7.0477,7.3454,7.6499,7.9925,8.1697,8.3558,8.6081,8.7076,8.8598,9.1305,9.3586,9.565,9.7428,9.7834,9.7867,9.7563,9.7834,9.7987,9.7987,9.7987,9.7987,9.7987,9.7987,9.7987,9.7987,9.7987,9.7987,9.7987,9.7987,9.7987,9.7987,9.7987,9.7987,9.7987,9.7987,9.7987,9.7987,9.7987,9.7987,9.7987,9.7987,9.7987,9.7987,9.7987,9.7987,9.7987,9.7987,9.7987,9.7987,9.7987,9.7987,9.7987,9.7987,9.7987,9.7987,9.7987,9.7987,9.7987,9.7987,9.7987,9.7987,9.7987,9.7987,9.7987,9.7987,9.7394,9.6902,9.6902,9.6293,9.5804,9.5804,9.5804,9.5804,9.5804,9.5804,9.5804,9.5804,9.5263,9.4939,9.4939,9.4939,9.4939,9.4939,9.5195,9.5567,9.6022,9.6326,9.6665,9.7123,9.7123,9.7326,9.7781,9.7781,9.8003,9.8427,9.8427,9.8206,8.8105,9.0338,9.1169,8.7739,8.4627,8.0974,7.554,7.0793,6.7015,6.5019,6.3429,6.256,6.3091,6.3792,6.529,6.8379,7.0917,7.3759,7.7253,7.9228,8.1236,8.368,8.4471,8.6061,8.9241,9.2184,9.506,9.7784,9.7987,9.7987,9.7987,9.7987,9.7987,9.7987,9.7987,9.7987,9.7987,9.7987,9.7987,9.7987,9.7987,9.7987,9.7987,9.7987,9.7987,9.7987,9.7987,9.7987,9.7987,9.7987,9.7987,9.7987,9.7987,9.7987,9.7987,9.7987,9.7987,9.7987,9.7987,9.7987,9.7987,9.7987,9.7987,9.7987,9.7987,9.7987,9.7987,9.7987,9.7987,9.7987,9.7987,9.7987,9.7987,9.7987,9.7987,9.7987,9.7987,9.8172,9.8341,9.8341,9.807,9.7815,9.7578,9.7138,9.6683,9.648,9.6447,9.6447,9.6447,9.6447,9.6447,9.6447,9.6447,9.6277,9.5838,9.5804,9.5804,9.5804,9.6007,9.636,9.6868,9.7105,9.7461,9.8003,9.7987,9.8375,9.9085,9.9085,9.9491,10.022,9.9983,9.9491,8.7177,9.0744,9.2503,8.8023,8.4627,8.0839,7.4875,7.0026,6.6396,6.4918,6.3429,6.2391,6.2424,6.3024,6.3994,6.5503,6.8278,7.1289,7.4243,7.6589,7.9139,8.2056,8.2428,8.393,8.7651,9.2083,9.562,9.7818,9.7987,9.7987,9.7987,9.7987,9.7987,9.7987,9.7987,9.7987,9.7987,9.7987,9.7987,9.7987,9.7987,9.7987,9.7987,9.7987,9.7987,9.7987,9.7987,9.7987,9.7987,9.7987,9.7987,9.7987,9.7987,9.7987,9.7987,9.7987,9.7987,9.7987,9.7987,9.7987,9.7987,9.7987,9.7987,9.7987,9.7987,9.7987,9.7987,9.7987,9.7987,9.7987,9.7987,9.7987,9.7987,9.7987,9.7987,9.7987,9.7987,9.8578,9.9101,9.9101,9.966,9.9915,9.9187,9.9067,9.8815,9.8104,9.7987,9.7987,9.7987,9.7987,9.7987,9.7987,9.7987,9.7394,9.5905,9.5804,9.5804,9.5804,9.6496,9.6902,9.6902,9.7597,9.7987,9.7987,9.7987,9.8375,9.9085,9.9085,9.9491,10.0186,9.9457,9.8713,8.3389,8.6569,8.8192,8.4695,8.1596,7.8225,7.3747,6.9259,6.5764,6.4783,6.3429,6.2391,6.2391,6.2594,6.3406,6.5368,6.6914,6.9282,7.3274,7.5811,7.8348,8.1304,8.393,8.6724,8.9951,9.2489,9.506,9.78,9.7987,9.7987,9.7987,9.7987,9.7987,9.7987,9.7987,9.7987,9.7987,9.7987,9.7987,9.7987,9.7987,9.7987,9.7987,9.7987,9.7987,9.7987,9.7987,9.7987,9.7987,9.7987,9.7987,9.7987,9.7987,9.7987,9.7987,9.7987,9.7987,9.7987,9.7987,9.7987,9.7987,9.7987,9.7987,9.7987,9.7987,9.7987,9.7987,9.7987,9.7987,9.7987,9.7987,9.7987,9.7987,9.7987,9.7987,9.8123,9.8645,9.895,9.9254,9.9746,9.9611,9.9356,9.9153,9.8679,9.8273,9.8037,9.7987,9.7987,9.7987,9.7987,9.7987,9.7987,9.7987,9.7818,9.736,9.7766,9.8037,9.8037,9.8747,9.9137,9.9137,9.9374,9.9509,9.9509,9.9509,9.9881,10.0691,10.0691,10.0793,10.0996,9.9694,9.895,7.8403,8.2056,8.4065,8.1088,7.872,7.6093,7.2056,6.8345,6.5402,6.44,6.3226,6.2391,6.2391,6.2627,6.326,6.4647,6.5956,6.8155,7.2124,7.51,7.8314,8.2103,8.5384,8.8361,9.1034,9.2928,9.5127,9.78,9.7987,9.7987,9.7987,9.7987,9.7987,9.7987,9.7987,9.7987,9.7987,9.7987,9.7987,9.7987,9.7987,9.7987,9.7987,9.7987,9.7987,9.7987,9.7987,9.7987,0.0,9.7987,9.7987,9.7987,9.7987,9.7987,9.7987,9.7987,9.7987,9.7987,9.7987,9.7987,9.7987,9.7987,9.7987,9.7987,9.7987,9.7987,9.7987,9.7987,9.7987,9.7987,9.7987,9.7987,9.7987,9.7987,9.819,9.8544,9.8984,9.9575,9.9999,10.0186,10.01,9.9762,9.9187,9.8713,9.8307,9.8037,9.7987,9.7987,9.7987,9.7987,9.7987,9.7987,9.824,9.8409,9.8409,9.8848,9.9221,9.9491,9.9949,10.022,10.022,10.022,10.022,10.022,10.022,10.0592,10.1402,10.1402,10.1183,10.0912,9.966,9.895,0.0,7.7164,8.0018,7.7266,7.5912,7.4153,6.9958,6.7229,0.0,6.3792,6.2922,6.2391,6.2391,6.2956,6.3453,6.3555,6.5347,6.7817,7.0928,7.483,7.9261,8.4377,8.6893,8.9106,9.1338,9.3503,9.5653,9.7818,9.7987,9.7987,9.7987,9.7987,9.7987,9.7987,9.7987,9.7987,9.7987,9.7987,9.7987,9.7987,9.7987,9.7987,9.7987,9.7987,9.7987,9.7987,9.7987,9.7987,9.7987,9.7987,9.7987,9.7987,9.7987,9.7987,9.7987,9.7987,9.7987,9.7987,9.7987,9.7987,9.7987,9.7987,9.7987,9.7987,9.7987,9.7987,9.7987,9.7987,9.8037,9.807,9.807,9.8123,9.8123,9.8104,9.8645,9.9187,9.9187,10.0303,10.1199,10.049,10.0912,10.0894,9.9424,9.9119,9.8848,9.8104,9.8037,9.807,9.807,9.8123,9.8123,9.8089,9.8679,9.9119,9.9153,9.9221,9.9559,10.0204,10.0305,10.0389,10.0389,10.0389,10.0389,10.0389,10.0389,10.0693,10.1503,10.1402,10.0912,10.0186,9.939,9.8645,6.5618,0.0,7.4334,7.3646,7.2056,7.0229,0.0,6.6024,6.3927,6.3579,6.2922,6.2391,6.2391,6.2526,6.3024,6.4174,6.5256,6.7421,7.1548,7.7807,8.3659,8.8314,8.985,9.1406,9.3673,9.489,9.6244,9.7886,9.7987,9.7987,9.7987,9.7987,9.7987,9.7987,9.7987,9.7987,9.7987,9.7987,9.7987,9.7987,9.7987,9.7987,9.7987,9.7987,9.7987,9.7987,9.7987,9.7987,9.7987,9.7987,9.7987,9.7987,9.7987,9.7987,9.7987,9.7987,9.7987,9.7987,9.7987,9.7987,9.7987,9.7987,9.7987,9.7987,9.7987,9.7987,9.7987,9.7987,9.8409,9.8848,9.8848,9.9239,9.9543,9.8984,9.9408,9.9949,9.9949,10.0709,10.1503,10.1893,10.1706,10.1097,10.0084,9.9491,9.8848,9.8104,9.8476,9.8848,9.8848,9.934,9.9476,9.8916,9.8984,9.9322,9.9881,10.0506,10.0878,10.1097,10.1606,10.1995,10.1995,10.1995,10.1995,10.1995,10.1995,10.2096,10.2181,10.1115,10.0389,10.0186,9.8867,9.8172,6.3724,6.6869,6.9677,6.8977,6.8436,6.7647,6.6193,6.4637,6.3409,6.3057,6.2685,6.2391,6.2391,6.2685,6.3294,6.441,6.5808,6.9124,7.6014,8.1934,8.7347,9.2218,9.3131,9.4112,9.6041,9.6582,9.7157,9.7935,9.7987,9.7987,9.7987,9.7987,9.7987,9.7987,9.7987,9.7987,9.7987,9.7987,9.7987,9.7987,9.7987,9.7987,9.7987,9.7987,9.7987,9.7987,9.7987,9.7987,9.7987,9.7987,9.8206,9.8476,9.8138,9.8206,9.8476,9.8123,9.7987,9.7987,9.7987,9.7987,9.7987,9.7987,9.7987,9.7987,9.7987,9.824,9.8442,9.8104,9.8544,9.9085,9.9085,9.966,10.0017,9.9288,9.9931,10.0592,10.0287,10.1099,10.1893,10.2011,10.1706,10.098,9.9881,9.9356,9.8848,9.8104,9.8612,9.9085,9.9085,9.9746,9.9915,9.9187,9.939,9.9611,9.9678,10.0709,10.1487,10.1909,10.2299,10.2486,10.2486,10.2486,10.2486,10.2486,10.2486,10.2486,10.2486,10.1302,10.0777,10.0693,9.9543,9.9002,6.4038,6.5517,6.6396,6.5358,6.6024,6.6464,6.4468,6.3927,6.3622,6.2898,6.2661,6.2627,6.2864,6.3429,6.4197,6.529,6.7793,7.2732,8.1663,8.596,9.0053,9.5195,9.5804,9.6379,9.7852,9.7987,9.7987,9.7987,9.7987,9.7987,9.7987,9.7987,9.7987,9.7987,9.7987,9.7987,9.7987,9.7987,9.7987,9.7987,9.7987,9.7987,9.7987,9.7987,9.7987,9.7987,9.7987,9.7987,9.8003,9.8123,9.8544,9.9051,9.8544,9.8645,9.9018,9.8409,9.8104,9.7987,9.7987,9.7987,9.7987,9.7987,9.7987,9.7987,9.7987,9.851,9.895,9.8341,9.8781,9.9457,9.9457,9.9999,10.0405,9.9627,10.0506,10.1402,10.0608,10.1505,10.2299,10.1706,10.1605,10.1097,9.971,9.9457,9.9187,9.8427,9.8984,9.9457,9.9457,10.01,10.0303,9.9525,9.9999,10.0084,9.9491,10.0608,10.169,10.2502,10.2486,10.2486,10.2486,10.2486,10.2486,10.2486,10.2486,10.2486,10.2486,10.1808,10.1402,10.1402,10.0608,10.022,6.3284,6.4749,6.6112,6.7151,6.7557,6.7489,6.6497,6.5797,6.5165,6.441,6.3758,6.3724,6.4962,6.53,6.6248,6.8921,7.3849,7.9215,8.4518,8.7394,9.0642,9.5229,9.5804,9.6379,9.7852,9.7987,9.7987,9.7987,9.7987,9.7987,9.7987,9.7987,9.7987,9.7987,9.7987,9.7987,9.7987,9.7987,9.7987,9.7987,9.7987,9.7987,9.7987,9.7987,9.7987,9.7987,9.7987,9.7987,9.8055,9.8679,9.8984,9.9153,9.9645,9.9543,9.9101,9.895,9.8544,9.7987,9.7987,9.7987,9.7987,9.7987,9.7987,9.7987,9.7987,9.851,9.9085,9.895,9.9947,10.098,10.098,10.1589,10.1995,10.1183,10.169,10.208,10.1402,10.1893,10.2502,10.2401,10.2283,10.2112,10.1199,10.098,10.0793,9.9983,10.0506,10.098,10.098,10.169,10.1893,10.1097,10.1081,10.1199,10.1113,10.1316,10.169,10.2502,10.2486,10.2486,10.2486,10.2486,10.2486,10.2486,10.2486,10.2486,10.2486,10.1808,10.1402,10.1402,10.0608,10.022,6.3217,6.458,6.6045,6.7523,6.8233,6.847,6.8132,6.7793,6.732,6.6542,6.5787,6.5618,6.6688,6.7567,6.9631,7.4255,7.8978,8.3206,8.6548,8.8883,9.1657,9.5364,9.5804,9.6379,9.7852,9.7987,9.7987,9.7987,9.7987,9.7987,9.7987,9.7987,9.7987,9.7987,9.7987,9.7987,9.7987,9.7987,9.7987,9.7987,9.7987,9.7987,9.7987,9.7987,9.7987,9.7987,9.7987,9.7987,9.8037,9.8375,9.8984,9.966,9.9205,9.9273,9.9593,9.8815,9.8307,9.7987,9.7987,9.7987,9.7987,9.7987,9.8273,9.8578,9.8578,9.939,10.0303,10.0303,10.091,10.1402,10.1402,10.1893,10.2299,10.1605,10.2011,10.2299,10.1621,10.2011,10.2486,10.2486,10.2486,10.2299,10.1503,10.1402,10.1081,10.0321,10.0878,10.1402,10.1402,10.1978,10.2198,10.1503,10.1402,10.1183,10.0811,10.1199,10.169,10.2502,10.2486,10.2486,10.2486,10.2486,10.2486,10.2486,10.2486,10.2486,10.2486,10.2214,10.1995,10.2011,10.1606,10.1388,6.325,6.4333,6.5639,6.7455,6.8639,6.9417,6.9586,6.9755,6.9688,6.9079,6.8358,6.8121,6.9045,7.0748,7.3827,7.9249,8.297,8.598,8.8429,9.0391,9.2624,9.5466,9.5804,9.6379,9.7852,9.7987,9.7987,9.7987,9.7987,9.7987,9.7987,9.7987,9.7987,9.7987,9.7987,9.7987,9.7987,9.7987,9.7987,9.7987,9.7987,9.7987,9.7987,9.7987,9.7987,9.7987,9.7987,9.7987,9.8021,9.8206,9.8901,9.9848,9.8901,9.9103,9.978,9.8461,9.7987,9.7987,9.7987,9.7987,9.7987,9.7987,9.851,9.9085,9.9085,10.0184,10.1402,10.1402,10.1503,10.1722,10.1722,10.2096,10.2401,10.1808,10.2096,10.2283,10.1808,10.2096,10.2486,10.2486,10.2486,10.2283,10.1808,10.1722,10.1419,10.0795,10.1284,10.1722,10.1722,10.2214,10.2299,10.169,10.1722,10.1386,10.0795,10.1318,10.1893,10.2502,10.2486,10.2486,10.2486,10.2486,10.2486,10.2486,10.2486,10.2486,10.2486,10.2486,10.2486,10.2486,10.2486,10.2486,6.3115,6.3589,6.4333,6.7184,6.9022,7.0308,7.0996,7.1672,7.2157,7.209,7.147,7.1402,7.2845,7.5484,7.8699,8.2543,8.5182,8.7739,9.0662,9.1798,9.3184,9.5499,9.5804,9.6379,9.7852,9.7987,9.7987,9.7987,9.7987,9.7987,9.7987,9.7987,9.7987,9.7987,9.7987,9.7987,9.7987,9.7987,9.7987,9.7987,9.7987,9.7987,9.7987,9.7987,9.7987,9.7987,9.7987,9.7987,9.8055,9.8747,9.9085,9.9221,9.9814,9.9678,9.9085,9.8307,9.7987,9.7987,9.7987,9.7987,9.7987,9.7987,9.851,9.9085,9.9085,10.0184,10.1402,10.1402,10.1909,10.2384,10.2384,10.2502,10.2502,10.2384,10.2502,10.2502,10.2384,10.2502,10.2486,10.2486,10.2486,10.2502,10.2384,10.2384,10.2384,10.2317,10.2401,10.2384,10.2384,10.2502,10.2502,10.2384,10.2384,10.2384,10.2317,10.2401,10.2384,10.2486,10.2486,10.2486,10.2486,10.2486,10.2486,10.2486,10.2486,10.2486,10.2486,10.2486,10.2486,10.2486,10.2486,10.2486,6.2787,6.3149,6.4096,6.6599,6.8368,7.0195,7.2755,7.4661,7.6026,7.6475,7.634,7.6036,7.5676,7.8416,8.1494,8.3815,8.6859,8.9667,9.1696,9.2658,9.3808,9.5601,9.5804,9.6379,9.7852,9.7987,9.7987,9.7987,9.7987,9.7987,9.7987,9.7987,9.7987,9.7987,9.7987,9.7987,9.7987,9.7987,9.7987,9.7987,9.7987,9.7987,9.7987,9.7987,9.7987,9.7987,9.7987,9.7987,9.8021,9.8307,9.8679,9.9119,9.9424,9.9085,9.8375,9.8089,9.7987,9.7987,9.7987,9.7987,9.7987,9.7987,9.8799,9.978,9.978,10.0878,10.2096,10.2096,10.2299,10.2486,10.2486,10.2486,10.2486,10.2486,10.2486,10.2486,10.2486,10.2486,10.2486,10.2486,10.2486,10.2486,10.2486,10.2486,10.2486,10.2486,10.2486,10.2486,10.2486,10.2486,10.2486,10.2486,10.2486,10.2486,10.2486,10.2486,10.2486,10.2486,10.2486,10.2486,10.2486,10.2486,10.2486,10.2486,10.2486,10.2486,10.2486,10.2486,10.2486,10.2486,10.2486,10.2486,6.2594,6.2584,6.3386,6.5821,6.7963,7.0466,7.4412,7.6893,7.8686,7.9892,8.0128,7.9756,7.8517,8.0716,8.3308,8.5067,8.8077,9.0783,9.2542,9.3436,9.4432,9.5635,9.6022,9.665,9.7886,9.7987,9.7987,9.7987,9.7987,9.7987,9.7987,9.7987,9.7987,9.7987,9.7987,9.7987,9.7987,9.7987,9.7987,9.7987,9.7987,9.7987,9.7987,9.7987,9.7987,9.7987,9.7987,9.7987,9.7987,9.7987,9.8307,9.8747,9.8747,9.8442,9.7987,9.7987,9.7987,9.7987,9.7987,9.7987,9.7987,9.7987,9.9002,10.022,10.022,10.1302,10.2486,10.2486,10.2486,10.2486,10.2486,10.2486,10.2486,10.2486,10.2486,10.2486,10.2486,10.2486,10.2486,10.2486,10.2486,10.2486,10.2486,10.2486,10.2486,10.2486,10.2486,10.2486,10.2486,10.2486,10.2486,10.2486,10.2486,10.2486,10.2486,10.2486,10.2486,10.2486,10.2486,10.2486,10.2486,10.2486,10.2486,10.2486,10.2486,10.2486,10.2486,10.2486,10.2486,10.2486,10.2486,10.2486,6.2627,6.1873,6.2042,6.4996,6.8007,7.1424,7.5912,7.8065,7.9756,8.1989,8.2462,8.2238,8.1473,8.2556,8.4268,8.6521,8.8753,9.1,9.3281,9.4248,9.4992,9.5702,9.6462,9.7206,9.7935,9.7987,9.7987,9.7987,9.7987,9.7987,9.7987,9.7987,9.7987,9.7987,9.7987,9.7987,9.7987,9.7987,9.7987,9.7987,9.7987,9.7987,9.7987,9.7987,9.7987,9.7987,9.7987,9.7987,9.7987,9.7987,9.7987,9.7987,9.7987,9.7987,9.7987,9.7987,9.7987,9.7987,9.7987,9.7987,9.7987,9.7987,9.9002,10.022,10.022,10.1302,10.2486,10.2486,10.2486,10.2486,10.2486,10.2486,10.2486,10.2486,10.2486,10.2486,10.2486,10.2486,10.2486,10.2486,10.2486,10.2486,10.2486,10.2486,10.2486,10.2486,10.2486,10.2486,10.2486,10.2486,10.2486,10.2486,10.2486,10.2486,10.2486,10.2486,10.2486,10.2486,10.2486,10.2486,10.2486,10.2486,10.2486,10.2486,10.2486,10.2486,10.2486,10.2486,10.2486,10.2486,10.2486,10.2486,6.3217,6.3386,6.4478,6.7973,7.1109,7.4458,7.8969,8.1135,8.3118,8.6447,8.7123,8.6399,8.4052,8.5283,8.6738,8.6859,8.9633,9.2373,9.4146,9.5026,9.5736,9.6496,9.6766,9.7206,9.7935,9.7987,9.7987,9.7987,9.7987,9.7987,9.7987,9.7987,9.7987,9.7987,9.7987,9.7987,9.7987,9.7987,9.7987,9.7987,9.7987,9.7987,9.7987,9.7987,9.7987,9.7987,9.7987,9.7987,9.7987,9.7987,9.7987,9.7987,9.7987,9.7987,9.7987,9.7987,9.7987,9.7987,9.7987,9.7987,9.7987,9.7987,9.9002,10.022,10.022,10.1302,10.2486,10.2486,10.2486,10.2486,10.2486,10.2486,10.2486,10.2486,10.2486,10.2486,10.2486,10.2486,10.2486,10.2486,10.2486,10.2486,10.2486,10.2486,10.2486,10.2486,10.2486,10.2486,10.2486,10.2486,10.2486,10.2486,10.2486,10.2486,10.2486,10.2486,10.2486,10.2486,10.2486,10.2486,10.2486,10.2486,10.2486,10.2486,10.2486,10.2486,10.2486,10.2486,10.2486,10.2486,10.2486,10.2486,6.3792,6.4705,6.6373,7.0139,7.3984,7.8247,8.3592,8.5296,8.6548,8.939,8.9729,8.8869,8.6771,8.7753,8.8734,8.828,9.0831,9.3286,9.4537,9.5601,9.6394,9.6834,9.7172,9.7495,9.7969,9.7987,9.7987,9.7987,9.7987,9.7987,9.7987,9.7987,9.7987,9.7987,9.7987,9.7987,9.7987,9.7987,9.7987,9.7987,9.7987,9.7987,9.7987,9.7987,9.7987,9.7987,9.7987,9.7987,9.7987,9.7987,9.7987,9.7987,9.7987,9.7987,9.7987,9.7987,9.7987,9.7987,9.7987,9.7987,9.7987,9.7987,9.8815,9.9746,9.9746,10.0795,10.2112,10.2112,10.2299,10.2486,10.2486,10.2486,10.2486,10.2486,10.2486,10.2486,10.2486,10.2486,10.2486,10.2486,10.2486,10.2486,10.2486,10.2486,10.2486,10.2486,10.2486,10.2486,10.2486,10.2486,10.2486,10.2486,10.2486,10.2486,10.2486,10.2486,10.2486,10.2486,10.2486,10.2486,10.2486,10.2486,10.2486,10.2486,10.2486,10.2486,10.2486,10.2486,10.2486,10.2486,10.2486,10.2705,6.4343,6.5922,6.8053,7.1954,7.6927,8.2577,8.8956,8.9884,8.9796,9.1102,9.0932,9.029,8.956,9.0019,9.0493,9.0411,9.2319,9.4026,9.4721,9.6074,9.7003,9.7003,9.7597,9.7987,9.7987,9.7987,9.7987,9.7987,9.7987,9.7987,9.7987,9.7987,9.7987,9.7987,9.7987,9.7987,9.7987,9.7987,9.7987,9.7987,9.7987,9.7987,9.7987,9.7987,9.7987,9.7987,9.7987,9.7987,9.7987,9.7987,9.7987,9.7987,9.7987,9.7987,9.7987,9.7987,9.7987,9.7987,9.7987,9.7987,9.7987,9.7987,9.851,9.9085,9.9085,10.0184,10.1402,10.1402,10.1893,10.2486,10.2486,10.2486,10.2486,10.2486,10.2486,10.2486,10.2486,10.2486,10.2486,10.2486,10.2486,10.2486,10.2486,10.2486,10.2486,10.2486,10.2486,10.2486,10.2486,10.2486,10.2486,10.2486,10.2486,10.2486,10.2486,10.2486,10.2486,10.2486,10.2486,10.2486,10.2486,10.2486,10.2486,10.2486,10.2486,10.2486,10.2486,10.2486,10.2486,10.2486,10.2486,10.2908,6.5449,6.7861,7.0646,7.5552,8.1608,8.7313,9.1087,9.1798,9.1764,9.2102,9.2556,9.2638,9.1831,9.2353,9.2658,9.2034,9.3842,9.5364,9.5533,9.6819,9.7766,9.7766,9.7901,9.7987,9.7987,9.7987,9.7987,9.7987,9.7987,9.7987,9.7987,9.7987,9.7987,9.7987,9.7987,9.7987,9.7987,9.7987,9.7987,9.7987,9.7987,9.7987,9.7987,9.7987,9.7987,9.7987,9.7987,9.7987,9.7987,9.7987,9.7987,9.7987,9.7987,9.7987,9.7987,9.7987,9.7987,9.7987,9.7987,9.7987,9.7987,9.7987,9.851,9.9085,9.9085,10.0184,10.1402,10.1402,10.1893,10.2486,10.2486,10.2486,10.2486,10.2486,10.2486,10.2486,10.2486,10.2486,10.2486,10.2486,10.2486,10.2486,10.2486,10.2486,10.2486,10.2486,10.2486,10.2486,10.2486,10.2486,10.2486,10.2486,10.2486,10.2486,10.2486,10.2486,10.2486,10.2486,10.2486,10.2486,10.2486,10.2486,10.2486,10.2486,10.2486,10.2486,10.2486,10.2486,10.2486,10.2486,10.2486,10.2908,6.67,7.0331,7.4706,8.2454,8.6974,9.0256,9.2914,9.3218,9.2962,9.2962,9.3315,9.3484,9.3064,9.3315,9.3451,9.303,9.4552,9.5804,9.5804,9.7089,9.7987,9.7987,9.7987,9.7987,9.7987,9.7987,9.7987,9.7987,9.7987,9.7987,9.7987,9.7987,9.7987,9.7987,9.7987,9.7834,9.7461,9.7461,9.7292,9.6954,9.7292,9.7664,9.7987,9.7987,9.7987,9.7987,9.7987,9.7987,9.7987,9.7987,9.7987,9.7987,9.7987,9.7987,9.7987,9.7987,9.7987,9.7987,9.7987,9.7987,9.7987,9.7987,9.8273,9.8578,9.8578,9.9627,10.0811,10.0811,10.1606,10.2486,10.2486,10.2486,10.2486,10.2486,10.2486,10.2486,10.2486,10.2486,10.2486,10.2486,10.2486,10.2486,10.2486,10.2486,10.2486,10.2486,10.2486,10.2486,10.2486,10.2486,10.2486,10.2486,10.2486,10.2486,10.2486,10.2486,10.2486,10.2486,10.2486,10.2486,10.2486,10.2486,10.2486,10.2486,10.2486,10.2486,10.2486,10.2486,10.2486,10.2486,10.2486,10.3111,6.7658,7.3003,7.9363,8.9072,9.1575,9.2218,9.4233,9.4315,9.3924,9.3823,9.3687,9.3586,9.3586,9.3586,9.3586,9.3586,9.4838,9.5804,9.5804,9.7089,9.7987,9.7987,9.7987,9.7987,9.7987,9.7987,9.7987,9.7987,9.7987,9.7987,9.7987,9.7987,9.7987,9.7987,9.7867,9.7529,9.6902,9.6766,9.6394,9.5804,9.6563,9.7206,9.78,9.7935,9.7987,9.7987,9.7987,9.7987,9.7987,9.7987,9.7987,9.7987,9.7987,9.7987,9.7987,9.7987,9.7987,9.7987,9.7987,9.7987,9.7987,9.7987,9.8104,9.8206,9.8206,9.9239,10.0389,10.0389,10.1403,10.2486,10.2486,10.2486,10.2486,10.2486,10.2486,10.2486,10.2486,10.2486,10.2486,10.2486,10.2486,10.2486,10.2486,10.2486,10.2486,10.2486,10.2486,10.2486,10.2486,10.2486,10.2486,10.2486,10.2486,10.2486,10.2486,10.2486,10.2486,10.2486,10.2486,10.2486,10.2486,10.2486,10.2486,10.2486,10.2486,10.2486,10.2486,10.2486,10.2486,10.2486,10.2486,10.3212,6.7489,7.5642,8.4031,9.0614,9.2793,9.3552,9.447,9.5127,9.533,9.4687,9.4045,9.3586,9.3586,9.3586,9.3586,9.3586,9.4838,9.5804,9.5804,9.7089,9.7987,9.7987,9.7987,9.7987,9.7987,9.7987,9.7987,9.7987,9.7987,9.7987,9.7987,9.7987,9.7987,9.7987,9.736,9.7003,9.6902,9.6259,9.592,9.5804,9.6563,9.6935,9.7071,9.7698,9.7987,9.7987,9.7987,9.7987,9.7987,9.7987,9.7987,9.7987,9.7987,9.7987,9.7987,9.7987,9.7987,9.7987,9.7987,9.7987,9.7987,9.7987,9.8442,9.895,9.895,9.9999,10.1183,10.1183,10.1809,10.2486,10.2486,10.2486,10.2486,10.2486,10.2486,10.2486,10.2486,10.2486,10.2486,10.2486,10.2486,10.2486,10.2486,10.2486,10.2486,10.2486,10.2486,10.2486,10.2486,10.2486,10.2486,10.2486,10.2486,10.2486,10.2486,10.2486,10.2486,10.2486,10.2486,10.2486,10.2486,10.2486,10.2486,10.2486,10.2486,10.2486,10.2486,10.2486,10.2486,10.2486,10.2486,10.2892,7.156,7.9342,8.6311,9.2725,9.4248,9.4518,9.5669,9.5838,9.5702,9.5364,9.506,9.4838,9.4838,9.4838,9.4838,9.4838,9.5717,9.6428,9.6428,9.7326,9.7987,9.7987,9.7987,9.7987,9.7987,9.7987,9.7987,9.7987,9.7987,9.7987,9.7987,9.7987,9.7987,9.7987,9.7274,9.6699,9.6293,9.5533,9.5195,9.5195,9.5499,9.609,9.6902,9.724,9.7597,9.7987,9.7987,9.7987,9.7987,9.7987,9.7987,9.7987,9.7987,9.7987,9.7987,9.7987,9.7987,9.7987,9.7987,9.7987,9.7987,9.7987,9.851,9.9085,9.9085,10.0184,10.1402,10.1402,10.1893,10.2486,10.2486,10.2486,10.2486,10.2486,10.2486,10.2486,10.2486,10.2486,10.2486,10.2486,10.2486,10.2486,10.2486,10.2486,10.2486,10.2486,10.2486,10.2486,10.2486,10.2486,10.2486,10.2486,10.2486,10.2486,10.2486,10.2486,10.2486,10.2486,10.2908,10.2892,10.2486,10.2908,10.2892,10.2486,10.2486,10.2486,10.2486,10.2486,10.2486,10.2486,10.2486,10.2908,7.3894,8.0255,8.5669,9.2184,9.3706,9.3943,9.5432,9.5785,9.5804,9.5804,9.6108,9.6345,9.6345,9.6041,9.5804,9.5804,9.6428,9.6902,9.6902,9.7529,9.7987,9.7987,9.7987,9.7987,9.7987,9.7987,9.7987,9.7987,9.7987,9.7987,9.7987,9.7987,9.7987,9.7987,9.7089,9.636,9.5804,9.489,9.4417,9.4417,9.462,9.5296,9.636,9.6732,9.7206,9.7732,9.7935,9.7987,9.7987,9.7987,9.7987,9.7987,9.7987,9.7987,9.7987,9.7987,9.7987,9.8037,9.819,9.8273,9.8307,9.8495,9.9085,9.9676,9.9676,10.0608,10.1706,10.1706,10.2096,10.2486,10.2486,10.2486,10.2486,10.2486,10.2486,10.2486,10.2486,10.2486,10.2486,10.2486,10.2486,10.2486,10.2486,10.2486,10.2486,10.2486,10.2486,10.2486,10.2486,10.2486,10.2486,10.2486,10.2486,10.2486,10.2486,10.2486,10.2603,10.2806,10.328,10.3415,10.3077,10.3382,10.3298,10.2806,10.2603,10.2486,10.2486,10.2486,10.2486,10.2486,10.2486,10.2806,7.1548,7.6014,8.0872,8.6907,8.9444,9.0817,9.2305,9.4267,9.5804,9.5804,9.692,9.7901,9.7901,9.6751,9.5804,9.5804,9.6428,9.6902,9.6902,9.7529,9.7987,9.7987,9.7987,9.7987,9.7987,9.7987,9.7987,9.7987,9.7987,9.7987,9.7987,9.7987,9.7987,9.7987,9.6616,9.5838,9.5804,9.4398,9.3654,9.3654,9.4383,9.474,9.4842,9.6259,9.6902,9.7003,9.7698,9.7987,9.7987,9.7987,9.7987,9.7987,9.7987,9.7987,9.7987,9.7987,9.7987,9.8104,9.8815,9.9051,9.9153,9.9848,10.0592,10.1316,10.1316,10.1792,10.2384,10.2384,10.2502,10.2486,10.2486,10.2486,10.2486,10.2486,10.2486,10.2486,10.2486,10.2486,10.2486,10.2486,10.2486,10.2486,10.2486,10.2486,10.2486,10.2486,10.2486,10.2486,10.2486,10.2486,10.2486,10.2486,10.2486,10.2486,10.2486,10.2486,10.2806,10.3483,10.3601,10.3905,10.4598,10.4007,10.3601,10.3517,10.2924,10.2486,10.2486,10.2486,10.2486,10.2486,10.2486,10.2486,6.8053,7.209,7.669,8.1731,8.5182,8.8023,9.0445,9.3117,9.5364,9.6326,9.7292,9.7987,9.7987,9.7563,9.7225,9.7225,9.7428,9.7597,9.7597,9.7834,9.7987,9.7987,9.7987,9.7987,9.7987,9.7987,9.7987,9.7987,9.7987,9.7987,9.7987,9.7987,9.7987,9.7987,9.6582,9.5345,9.4398,9.3857,9.3586,9.3586,9.3857,9.4485,9.5432,9.5939,9.6717,9.7631,9.7901,9.7987,9.7987,9.7987,9.7987,9.7987,9.7987,9.7987,9.7987,9.7987,9.8307,9.8747,9.9018,9.9424,9.9848,10.0102,10.0693,10.1402,10.1402,10.1893,10.2486,10.2486,10.2486,10.2486,10.2486,10.2486,10.2486,10.2486,10.2486,10.2486,10.2486,10.2486,10.2486,10.2486,10.2486,10.2486,10.2486,10.2486,10.2486,10.2486,10.2486,10.2486,10.2486,10.2486,10.2486,10.2486,10.2486,10.2486,10.2486,10.2892,10.3314,10.3601,10.4498,10.4904,10.4684,10.4904,10.4616,10.3585,10.3298,10.3009,10.2486,10.2486,10.2486,10.2486,10.2486,10.2486,6.5246,6.8392,7.227,7.6521,8.0221,8.3605,8.6535,8.9918,9.303,9.4992,9.6379,9.7428,9.792,9.7987,9.7987,9.7987,9.7987,9.7987,9.7987,9.7987,9.7987,9.7987,9.7987,9.7987,9.7987,9.7987,9.7901,9.7664,9.7867,9.7901,9.7631,9.7867,9.7751,9.7292,9.6074,9.4823,9.362,9.3586,9.3586,9.3586,9.3857,9.4485,9.5466,9.5939,9.6683,9.7631,9.7901,9.7987,9.7987,9.7987,9.7987,9.7987,9.7987,9.7987,9.7987,9.7987,9.8307,9.8815,9.9288,9.978,10.0287,10.0795,10.1302,10.1808,10.1808,10.2096,10.2486,10.2486,10.2486,10.2486,10.2486,10.2486,10.2486,10.2486,10.2486,10.2486,10.2486,10.2486,10.2486,10.2486,10.2486,10.2486,10.2486,10.2486,10.2486,10.2486,10.2486,10.2486,10.2486,10.2486,10.2486,10.2486,10.2486,10.2603,10.279,10.3314,10.3787,10.4295,10.531,10.5682,10.5377,10.5682,10.5293,10.4413,10.3905,10.3398,10.2908,10.2587,10.2486,10.2486,10.2486,10.2486,0.0,0.0,0.0,7.121,7.4424,7.7468,8.0424,8.462,8.8734,9.173,9.4165,9.621,9.7717,9.7987,9.7987,9.7987,9.7987,9.7987,9.7987,9.7987,9.7987,9.7987,9.7987,9.7987,9.7987,9.7987,9.7698,9.6969,9.7597,9.7698,9.6969,9.7597,9.7292,9.5804,9.506,9.4349,9.362,9.3586,9.3586,9.362,9.4349,9.4706,9.4774,9.6259,9.6902,9.6969,9.7698,9.7987,9.7987,9.7987,9.7987,9.7987,9.7987,9.7987,9.7987,9.7987,9.8021,9.8224,9.9678,10.022,10.049,10.1995,10.2502,10.2486,10.2486,10.2486,10.2486,10.2486,10.2486,10.2486,10.2486,10.2486,10.2486,10.2486,10.2486,10.2486,10.2486,10.2486,10.2486,10.2486,10.2486,10.2486,10.2486,10.2486,10.2486,10.2486,10.2486,10.2486,10.2486,10.2603,10.2603,10.2603,10.2603,10.2924,10.3601,10.3702,10.4295,10.5699,10.5801,10.6206,10.6917,10.6223,10.5801,10.5817,10.4396,10.3585,10.3585,10.2908,10.2486,10.2486,10.2486,10.2486,6.0341,0.0,0.0,0.0,0.0,0.0,7.5777,8.075,8.5892,8.9971,9.3049,9.5635,9.7615,9.7987,9.7987,9.7987,9.7987,9.7987,9.7987,9.7987,9.7987,9.7987,9.7987,9.7987,9.7987,9.7987,9.7935,9.7698,9.7886,9.7901,9.7698,9.736,9.6514,9.506,9.4808,9.4349,9.362,9.3586,9.3586,9.362,9.4349,9.4992,9.5533,9.6462,9.7206,9.7698,9.7901,9.7987,9.7987,9.7987,9.7987,9.7987,9.7987,9.7987,9.7987,9.7987,9.8341,9.8848,9.9254,10.01,10.1115,10.1605,10.2112,10.2486,10.2486,10.2486,10.2486,10.2486,10.2486,10.2486,10.2486,10.2486,10.2486,10.2486,10.2486,10.2486,10.2486,10.2486,10.2486,10.2486,10.2486,10.2486,10.2486,10.2486,10.2486,10.2486,10.2976,10.328,10.328,10.3804,10.4108,10.4108,10.4108,10.421,10.4379,10.4904,10.5377,10.5783,10.6291,10.6714,10.69,10.6697,10.6308,10.5801,10.4887,10.4092,10.3585,10.2908,10.2486,10.2486,10.2486,10.2486,0.0,0.0,0.0,0.0,0.0,0.0,7.1706,7.642,8.1528,8.6014,8.9362,9.2218,9.4755,9.5195,9.5195,9.5195,9.5736,9.6582,9.7818,9.7987,9.7987,9.7987,9.7987,9.7987,9.7987,9.7987,9.7867,9.7563,9.7834,9.7867,9.7563,9.6548,9.5601,9.4706,9.4417,9.4011,9.3586,9.3586,9.3755,9.4079,9.4823,9.5533,9.6293,9.7022,9.7597,9.7987,9.7987,9.7987,9.7987,9.7987,9.7987,9.7987,9.7987,9.7987,9.7987,9.7987,9.8273,9.8679,9.8984,9.9897,10.0996,10.13,10.1893,10.2486,10.2486,10.2486,10.2486,10.2486,10.2486,10.2486,10.2486,10.2486,10.2486,10.2486,10.2486,10.2486,10.2486,10.2486,10.2486,10.2486,10.2486,10.2486,10.2486,10.2486,10.2587,10.2892,10.3314,10.3686,10.399,10.4413,10.4684,10.4684,10.4684,10.4819,10.5107,10.5597,10.5902,10.6206,10.6714,10.69,10.69,10.69,10.6697,10.6308,10.5208,10.421,10.3095,10.2705,10.2486,10.2486,10.2486,10.2486,6.14,0.0,0.0,0.0,6.4478,0.0,6.8132,7.1954,7.6352,8.0737,8.4052,8.7062,9.0019,9.056,9.056,9.056,9.1928,9.406,9.7191,9.7751,9.7901,9.8003,9.7987,9.7987,9.7987,9.7987,9.7732,9.7071,9.7563,9.7563,9.6834,9.5466,9.4673,9.4586,9.3943,9.3586,9.3586,9.3687,9.4045,9.4706,9.5533,9.6259,9.6935,9.7664,9.7987,9.7987,9.7987,9.7987,9.7987,9.7987,9.7987,9.7987,9.7987,9.7987,9.7987,9.7987,9.7987,9.8104,9.8747,9.9457,10.0186,10.0878,10.169,10.2401,10.2401,10.2384,10.2486,10.2486,10.2486,10.2486,10.2486,10.2486,10.2486,10.2486,10.2486,10.2486,10.2486,10.2486,10.2486,10.2486,10.2486,10.2486,10.2486,10.2486,10.2689,10.3382,10.3585,10.4007,10.4582,10.4819,10.492,10.492,10.492,10.5191,10.5885,10.5902,10.6189,10.6917,10.69,10.69,10.69,10.69,10.69,10.69,10.5512,10.4007,10.2486,10.2486,10.2486,10.2486,10.2486,10.2486,6.2018,6.2188,6.2391,6.3284,0.0,0.0,6.5256,6.847,7.2372,7.6217,7.9397,8.2408,8.5371,8.5912,8.5912,8.5912,8.7719,9.056,9.474,9.6379,9.7326,9.792,9.7987,9.7987,9.7987,9.7987,9.7935,9.78,9.736,9.68,9.6041,9.5195,9.4451,9.3823,9.3687,9.3586,9.3586,9.418,9.4552,9.4706,9.6041,9.6766,9.6935,9.7664,9.7987,9.7987,9.7987,9.7987,9.7987,9.7987,9.7987,9.7987,9.7987,9.7987,9.7987,9.7987,9.7987,9.8021,9.8172,9.8713,9.9322,9.9491,10.0488,10.1605,10.1605,10.1995,10.2486,10.2486,10.2486,10.2486,10.2486,10.2486,10.2486,10.2486,10.2486,10.2486,10.2486,10.2486,10.2486,10.2486,10.2486,10.2486,10.2486,10.2486,10.252,10.2705,10.3686,10.4514,10.47,10.5682,10.6511,10.6511,10.6511,10.6494,10.6714,10.6714,10.6697,10.69,10.69,10.69,10.69,10.69,10.69,10.69,10.5512,10.4007,10.2486,10.2486,10.2486,10.2486,10.2486,10.2486,6.3845,6.3778,6.3609,6.3961,0.0,0.0,0.0,6.6068,6.8921,7.227,7.474,7.7096,7.9689,8.0162,8.0297,8.0703,8.2949,8.596,8.9715,9.347,9.621,9.7326,9.7428,9.7292,9.6954,9.7225,9.7597,9.7969,9.6988,9.6191,9.5804,9.4755,9.3992,9.362,9.3586,9.3789,9.4146,9.4518,9.506,9.5804,9.6563,9.7105,9.7461,9.7834,9.7987,9.7987,9.7987,9.7987,9.7987,9.7987,9.7987,9.7987,9.7987,9.7987,9.7987,9.7987,9.7987,9.7987,9.7987,9.8476,9.9085,9.9085,10.01,10.1402,10.1402,10.1893,10.2486,10.2486,10.2486,10.2486,10.2486,10.2486,10.2486,10.2486,10.2486,10.2486,10.2486,10.2486,10.2486,10.2486,10.2486,10.2486,10.2486,10.2486,10.2587,10.3009,10.3702,10.4311,10.47,10.531,10.58,10.58,10.58,10.58,10.58,10.58,10.6003,10.6291,10.6409,10.6494,10.6917,10.69,10.6612,10.58,10.5106,10.4007,10.2486,10.2486,10.2486,10.2486,10.2486,10.2486,0.0,0.0,0.0,0.0,0.0,6.3443,0.0,0.0,0.0,6.8582,7.0161,7.1684,7.3646,7.4086,7.4458,7.527,7.7887,8.0898,8.4078,8.8903,9.303,9.5514,9.5954,9.5819,9.5195,9.5939,9.6785,9.7529,9.621,9.5432,9.5567,9.433,9.3586,9.3586,9.3586,9.3943,9.4673,9.4842,9.5567,9.6902,9.7037,9.7428,9.7987,9.7987,9.7987,9.7987,9.7987,9.7987,9.7987,9.7987,9.7987,9.7987,9.7987,9.7987,9.7987,9.7987,9.7987,9.7987,9.7987,9.8375,9.8882,9.8882,9.9913,10.1183,10.1503,10.1995,10.2486,10.2486,10.2486,10.2486,10.2486,10.2486,10.2486,10.2486,10.2486,10.2486,10.2486,10.2486,10.2486,10.2486,10.2486,10.2486,10.2486,10.2486,10.2705,10.3314,10.3483,10.3787,10.4413,10.4582,10.4684,10.4684,10.4684,10.4684,10.4684,10.4819,10.5191,10.5783,10.5902,10.6291,10.6917,10.6815,10.6105,10.4717,10.4598,10.3787,10.2486,10.2486,10.2486,10.2486,10.2486,10.2486,0.0,0.0,0.0,0.0,6.4546,0.0,0.0,0.0,6.4028,6.5019,0.0,6.6755,6.7647,0.0,0.0,6.9857,7.2473,7.5687,7.935,8.1562,8.5093,9.1217,9.2508,9.288,9.2812,9.4098,9.5263,9.5973,9.4669,9.4161,9.4774,9.406,9.3586,9.3586,9.3586,9.3943,9.4673,9.5364,9.609,9.6902,9.7563,9.7935,9.7987,9.7987,9.7987,9.7987,9.7987,9.7987,9.7987,9.7987,9.7987,9.7987,9.7987,9.7987,9.7987,9.7987,9.7987,9.7987,9.7987,9.8055,9.8123,9.8123,9.9137,10.0592,10.1995,10.2384,10.2486,10.2486,10.2486,10.2486,10.2486,10.2486,10.2486,10.2486,10.2486,10.2486,10.2486,10.2486,10.2486,10.2486,10.2486,10.2486,10.2486,10.2486,10.2486,10.2587,10.3179,10.3618,10.3686,10.4311,10.4684,10.4684,10.4684,10.4684,10.4684,10.531,10.5716,10.5817,10.6392,10.6798,10.69,10.6291,10.5496,10.4684,10.4108,10.3314,10.2486,10.2486,10.2486,10.2486,10.2486,10.2486,0.0,0.0,0.0,0.0,0.0,0.0,6.3386,0.0,6.4231,6.4546,0.0,0.0,0.0,0.0,0.0,0.0,7.0567,7.3228,7.6103,7.7401,8.0378,8.6656,8.8091,8.9241,9.0952,9.2474,9.3692,9.4466,9.3503,9.3233,9.4011,9.3789,9.3586,9.3586,9.3586,9.4161,9.533,9.5635,9.6379,9.7529,9.7867,9.7987,9.7987,9.7987,9.7987,9.7987,9.7987,9.7987,9.7987,9.7987,9.7987,9.7987,9.7987,9.7987,9.7987,9.7987,9.7987,9.7987,9.7987,9.7987,9.8123,9.9002,9.9712,10.049,10.2012,10.2486,10.2486,10.2486,10.2486,10.2486,10.2486,10.2486,10.2486,10.2486,10.2486,10.2486,10.2486,10.2486,10.2486,10.2486,10.2486,10.2486,10.2486,10.2486,10.2486,10.2486,10.2806,10.2976,10.2976,10.3212,10.3415,10.3415,10.3415,10.3585,10.399,10.4295,10.4904,10.5699,10.6494,10.6697,10.6291,10.5986,10.5293,10.4108,10.3804,10.3212,10.2486,10.2486,10.2486,10.2486,10.2486,10.2486,7.5697,0.0,0.0,0.0,0.0,0.0,0.0,0.0,0.0,0.0,6.5199,0.0,0.0,0.0,0.0,0.0,0.0,7.1334,7.3138,7.3477,7.5777,8.1786,8.3727,8.5736,8.87,9.014,9.129,9.23,9.144,9.1392,9.2605,9.2875,9.3078,9.3267,9.3484,9.4296,9.577,9.5804,9.6548,9.7987,9.7987,9.7987,9.7987,9.7987,9.7987,9.7987,9.7987,9.7987,9.7987,9.7987,9.7987,9.7987,9.7987,9.7987,9.7987,9.7987,9.7987,9.7987,9.7987,9.7987,9.819,9.9476,9.9881,10.0186,10.1708,10.2198,10.2181,10.2384,10.2486,10.2486,10.2486,10.2486,10.2486,10.2486,10.2486,10.2486,10.2486,10.2486,10.2486,10.2486,10.2486,10.2486,10.2486,10.2486,10.2486,10.2486,10.2486,10.2486,10.2486,10.2486,10.2486,10.2486,10.2486,10.2689,10.3296,10.3702,10.4498,10.602,10.6392,10.6409,10.5801,10.5411,10.4701,10.3585,10.3382,10.2993,10.2486,10.2486,10.2486,10.2486,10.2486,10.2486,7.8945,7.678,7.4142,7.2699,7.0094,6.7286,6.5087,0.0,6.4613,0.0,0.0,0.0,0.0,0.0,0.0,0.0,0.0,0.0,0.0,6.909,7.0398,7.642,7.968,8.2624,8.5635,8.6636,8.7685,8.912,8.7888,8.8009,9.0174,9.1,9.1711,9.2406,9.3199,9.4296,9.577,9.5804,9.6548,9.7987,9.7987,9.7987,9.7987,9.7987,9.7987,9.7987,9.7987,9.7987,9.7987,9.7987,9.7987,9.7987,9.7987,9.7987,9.7987,9.7987,9.7987,9.7987,9.7987,9.7987,9.8138,9.8882,9.9135,9.9424,10.0996,10.1402,10.1605,10.2299,10.2486,10.2486,10.2486,10.2486,10.2486,10.2486,10.2486,10.2486,10.2486,10.2486,10.2486,10.2486,10.2486,10.2486,10.2486,10.2486,10.2486,10.2486,10.2486,10.2486,10.2486,10.2486,10.2486,10.2486,10.2486,10.2486,10.2486,10.3787,10.5293,10.6815,10.6223,10.5801,10.5817,10.4396,10.3618,10.3585,10.2908,10.2486,10.2486,10.2486,10.2486,10.2486,10.2486,10.2486,8.4255,8.2441,8.0141,7.8665,7.6048,7.3003,6.9778,6.9406,6.935,0.0,0.0,0.0,0.0,0.0,0.0,0.0,0.0,0.0,0.0,6.7512,6.8301,7.1379,7.5202,7.8585,8.1122,8.2902,8.4336,8.533,8.4945,8.5655,8.7908,8.9633,9.0899,9.1643,9.2943,9.4296,9.577,9.5804,9.6548,9.7987,9.7987,9.7987,9.7987,9.7987,9.7987,9.7987,9.7987,9.7987,9.7987,9.7987,9.7987,9.7987,9.7987,9.7987,9.7987,9.7987,9.7987,9.7987,9.7987,9.7987,9.8123,9.8848,9.9085,9.9405,10.0878,10.1402,10.1621,10.2299,10.2486,10.2486,10.2486,10.2486,10.2486,10.2486,10.2486,10.2486,10.2486,10.2486,10.2486,10.2486,10.2486,10.2486,10.2486,10.2486,10.2486,10.2486,10.2486,10.2486,10.2486,10.2486,10.2486,10.2486,10.2486,10.2705,10.3179,10.4092,10.4887,10.5394,10.5191,10.4887,10.4413,10.3905,10.3398,10.2908,10.2587,10.2486,10.2486,10.2486,10.2486,10.2486,10.2486,10.2486,8.8531,8.7008,8.5195,8.3977,8.1439,7.8348,7.4852,7.4255,7.3815,7.1853,0.0,0.0,0.0,0.0,0.0,0.0,0.0,0.0,0.0,6.6406,6.6869,6.8121,7.1988,7.5303,7.7321,7.9283,8.075,8.1507,8.1291,8.2374,8.5134,8.7414,8.9342,9.0865,9.2895,9.4552,9.577,9.6056,9.6785,9.7987,9.7987,9.7987,9.7987,9.7987,9.7987,9.7987,9.7987,9.7987,9.7987,9.7987,9.7987,9.7987,9.7987,9.7987,9.7987,9.7987,9.7987,9.7987,9.7987,9.7987,9.807,9.8544,9.8713,9.895,10.0217,10.059,10.0793,10.1792,10.2096,10.2198,10.2384,10.2486,10.2486,10.2486,10.2486,10.2486,10.2486,10.2486,10.2486,10.2486,10.2486,10.2486,10.2486,10.2486,10.2486,10.2486,10.2486,10.2486,10.2486,10.2486,10.2486,10.2486,10.2486,10.2806,10.3517,10.399,10.4413,10.47,10.4497,10.4108,10.3585,10.3298,10.3009,10.2486,10.2486,10.2486,10.2486,10.2486,10.2486,10.2486,10.2486,10.2486]}]]